GFSFLT1_sfc_wetblb_000.txt.gz
Wetbulb
63.47 64.73 65.56 65.62 65.86 66.52 67.28 68.25 69.04 70.05 70.23 70.10 71.65 72.51 72.61 72.96 71.45 67.37 65.55 64.48 63.29 63.05 63.13 64.07 64.96 64.58 64.97 63.32 63.66 64.93 65.85 65.01 64.95
61.63 63.92 65.26 66.11 66.57 66.95 67.34 68.29 69.14 69.78 70.28 70.83 71.41 71.89 72.33 70.30 68.91 65.10 64.12 63.65 63.40 63.33 63.77 63.81 64.14 64.04 64.22 63.32 63.45 65.54 65.49 64.72 65.24
61.00 63.02 65.13 65.89 67.08 67.52 68.11 68.75 69.75 70.37 70.97 70.93 71.24 71.14 70.30 68.99 66.70 64.36 63.22 63.02 63.04 62.26 62.57 63.54 63.69 63.85 63.68 63.68 63.89 65.01 65.05 64.27 64.68
60.24 61.36 63.94 64.99 67.06 68.45 68.70 69.10 69.61 70.10 70.72 71.03 70.87 70.10 68.63 67.02 64.59 63.67 63.23 63.28 63.76 62.83 62.32 63.05 63.50 63.50 63.54 63.85 63.78 64.57 64.04 63.95 64.58
57.92 61.01 63.48 64.56 66.71 68.13 68.45 68.46 69.17 69.80 70.67 70.97 71.33 70.13 67.71 65.77 64.39 64.08 63.71 63.88 64.11 63.73 63.11 62.87 63.57 63.79 63.94 64.38 64.73 64.47 63.90 63.81 65.05
57.58 60.11 61.15 63.36 64.99 66.47 67.20 67.52 68.82 69.65 70.39 70.74 71.43 69.85 66.10 65.00 64.18 64.49 64.23 64.25 64.14 63.68 63.09 62.81 63.21 64.01 63.71 63.51 63.39 62.70 62.94 63.75 64.08
56.66 58.88 60.73 62.13 63.16 64.75 65.98 66.26 67.49 68.86 69.83 70.63 70.33 68.51 65.86 64.98 64.42 64.23 65.09 64.85 64.47 63.81 63.68 63.20 63.13 63.22 63.37 62.97 62.38 62.65 63.27 63.59 63.62
57.43 56.91 58.04 60.83 62.67 63.32 64.02 64.47 65.71 67.74 68.93 69.75 69.49 67.63 66.19 65.98 65.76 65.95 65.18 64.51 64.72 64.28 63.55 63.72 63.63 63.15 62.85 63.08 62.80 62.97 63.71 64.01 63.70
57.33 57.65 58.48 59.30 61.32 62.33 62.69 63.75 64.55 67.06 68.22 69.05 69.31 67.92 66.94 67.40 66.50 65.74 65.33 65.65 65.54 63.97 63.66 63.31 63.40 62.67 63.21 62.82 63.10 61.63 62.30 64.38 64.09
57.99 58.03 58.90 58.14 58.95 60.64 61.49 62.31 64.44 65.85 67.70 69.10 68.86 68.33 68.37 67.31 65.22 64.60 64.57 65.13 65.01 64.04 62.82 62.92 62.52 62.89 62.98 62.96 64.02 60.15 60.30 62.56 64.52
56.56 57.61 58.90 58.49 58.79 60.50 61.49 62.24 64.06 65.70 67.36 68.44 68.55 68.22 68.37 66.21 64.96 64.29 63.94 63.45 62.87 63.79 62.96 62.38 62.72 62.78 63.13 62.89 63.34 59.28 58.91 61.25 63.94
56.97 58.93 59.89 61.38 61.33 61.22 61.99 63.33 64.65 65.72 66.74 67.82 68.02 67.88 66.99 66.07 65.52 65.12 65.38 63.96 63.62 63.59 63.68 63.30 62.87 63.59 63.44 62.83 62.99 58.33 58.10 59.76 62.82
56.52 57.93 59.20 60.14 61.90 62.59 63.81 64.43 65.50 65.40 65.74 66.99 66.98 67.06 66.88 66.76 65.83 64.25 63.77 64.47 64.56 63.90 63.89 63.77 64.07 63.45 62.77 60.46 62.48 58.09 57.82 58.64 61.48
59.20 60.48 61.88 63.18 64.21 64.57 64.60 65.03 65.56 64.62 64.83 65.73 66.99 66.70 67.08 67.70 66.94 66.03 65.49 64.16 63.35 62.86 63.83 63.69 63.08 61.92 60.78 61.94 62.45 62.70 57.00 54.34 59.31
59.45 60.01 61.37 63.07 63.77 65.01 65.34 64.98 65.60 63.73 64.52 65.19 65.96 66.18 65.96 65.24 65.28 65.62 62.97 61.56 61.71 62.10 61.56 60.62 60.61 61.48 59.35 58.94 61.53 55.65 55.61 52.61 54.80
60.17 61.07 62.12 64.61 65.47 64.74 63.98 64.05 64.78 63.00 62.82 64.76 64.88 63.45 62.93 64.07 63.89 63.60 62.51 61.66 61.53 61.36 60.87 60.55 60.76 61.02 61.13 61.94 57.74 55.03 51.12 51.33 50.99
60.72 61.48 62.04 63.57 63.54 62.05 61.35 62.42 63.01 63.20 63.94 64.51 63.31 62.11 62.54 63.03 62.81 62.14 61.71 61.89 62.57 61.57 60.73 59.48 60.60 61.45 60.61 59.05 55.67 54.05 53.03 52.20 52.02
61.05 60.63 61.97 62.60 61.77 61.65 61.97 62.59 62.26 63.36 64.00 62.80 61.68 61.61 61.03 61.00 61.31 62.20 62.15 61.53 59.81 60.85 58.81 56.75 61.07 60.28 59.43 56.81 54.45 52.52 49.29 49.27 50.61
61.04 61.13 61.96 61.38 61.24 62.00 61.56 61.72 61.89 62.01 62.98 63.04 62.41 61.48 60.45 59.92 60.96 60.87 60.03 54.08 51.96 46.03 45.14 45.14 44.06 46.15 51.93 51.62 48.12 44.17 42.78 41.27 40.66
59.38 61.47 62.31 62.01 60.71 61.08 60.83 61.02 61.59 62.32 61.33 60.91 60.68 60.24 58.49 57.76 57.67 59.42 57.58 55.37 53.68 52.40 47.69 42.77 41.15 41.52 41.97 43.36 42.85 41.38 40.68 39.57 39.65

GFSFLT1_sfc_wetblb_006.txt.gz
Wetbulb
68.39 69.32 69.03 69.63 70.80 71.69 72.78 73.57 74.52 75.32 76.69 77.58 78.15 78.20 78.80 79.67 79.11 77.74 77.17 77.32 75.03 73.38 72.33 72.21 74.11 75.31 73.72 72.80 72.34 72.15 70.94 69.29 69.14
66.62 68.85 69.33 69.30 70.70 71.86 72.78 73.62 74.92 76.28 77.54 77.39 77.52 77.71 78.31 79.02 79.28 78.51 77.80 78.20 77.34 74.85 75.48 72.44 74.40 74.34 73.11 71.82 72.18 71.10 70.73 68.60 69.25
66.76 68.90 69.69 69.76 70.42 71.47 72.79 73.84 74.79 75.75 76.46 77.19 77.39 77.55 77.70 77.59 78.09 78.50 78.37 78.20 77.67 76.96 75.93 75.33 73.91 73.33 71.76 71.47 71.11 70.38 70.64 69.34 69.70
66.09 68.20 69.73 70.36 70.49 71.61 72.92 73.62 74.30 75.16 75.90 76.39 76.81 77.25 78.17 77.77 77.48 77.76 78.34 78.01 77.87 77.53 76.80 75.01 73.57 72.86 71.27 71.03 70.22 70.24 70.12 69.98 68.84
63.80 68.19 70.25 71.13 71.65 72.01 72.45 73.24 73.68 74.26 75.16 75.84 76.67 77.97 78.49 77.38 77.58 77.66 77.59 78.12 77.07 76.03 76.34 73.96 73.08 71.92 70.97 71.20 70.35 70.30 70.01 68.97 68.24
66.40 68.54 70.14 71.41 71.84 72.19 72.72 73.07 74.17 74.28 75.18 75.55 76.22 77.06 77.00 76.90 76.69 77.08 77.34 77.45 76.60 76.58 74.18 71.50 70.11 69.81 70.17 70.62 69.90 70.18 70.45 70.14 69.50
66.35 68.99 69.94 71.18 71.66 72.66 73.32 74.49 76.29 76.28 75.14 75.90 76.25 76.46 76.76 77.19 76.85 76.75 76.94 76.92 73.70 71.62 71.82 70.07 68.21 68.70 69.08 69.00 70.37 70.29 70.17 69.71 69.74
66.00 68.53 69.21 70.57 71.41 73.62 75.36 75.60 76.16 76.01 75.82 76.23 76.63 76.48 76.42 76.83 77.77 77.54 76.61 75.50 73.32 70.90 70.46 69.93 66.13 67.93 67.02 68.95 69.78 67.99 69.80 69.42 68.53
65.57 68.34 68.98 70.77 72.01 73.02 73.92 74.40 75.16 75.57 75.83 76.19 76.91 76.70 76.35 77.42 77.31 76.97 75.94 74.44 72.42 71.49 70.15 68.83 67.97 66.63 66.52 67.10 67.94 63.84 63.65 67.27 68.52
65.74 68.29 69.27 70.22 71.67 72.79 74.14 74.56 75.59 75.00 75.60 76.29 76.25 76.28 76.56 76.95 76.88 75.54 74.43 73.21 72.11 70.52 69.46 68.83 68.72 68.43 67.61 67.47 69.23 62.12 62.14 63.86 67.96
66.40 68.88 69.71 70.52 71.35 72.78 73.74 74.26 74.40 74.89 75.21 75.36 75.60 75.80 75.77 76.13 75.70 74.48 73.68 72.79 71.33 70.52 68.68 68.37 69.07 69.56 68.97 68.49 69.23 62.07 60.92 63.45 68.65
67.97 69.87 71.22 71.29 71.81 72.68 73.51 73.01 73.89 73.78 73.77 74.29 74.38 74.47 74.72 75.12 74.73 73.53 71.76 71.18 71.03 71.40 69.52 69.02 69.75 70.24 69.77 69.30 69.64 58.71 58.78 63.00 68.64
66.98 69.59 70.38 70.64 71.14 71.94 71.99 72.30 72.87 72.82 72.82 73.54 73.69 74.32 74.63 74.84 74.16 73.60 72.01 71.62 71.80 71.13 70.69 69.70 69.12 69.29 69.78 66.62 70.14 57.54 57.05 61.34 67.98
68.84 69.93 70.56 71.34 71.20 70.54 71.62 72.20 72.82 72.31 72.83 72.90 74.25 75.00 75.09 74.36 73.78 73.40 73.39 72.61 71.44 71.01 70.03 69.42 69.87 69.05 69.72 69.46 66.45 67.98 55.67 56.01 66.82
69.42 69.27 69.51 70.09 70.73 71.69 72.80 73.53 73.75 73.10 73.47 75.00 75.36 75.21 74.36 72.46 72.75 71.83 72.14 71.47 69.91 68.60 69.11 69.36 68.56 69.86 69.77 69.87 70.57 59.82 55.24 54.23 56.68
68.39 68.83 69.09 70.33 71.06 72.07 73.22 74.32 74.35 73.81 74.83 74.90 74.68 72.51 71.07 71.41 72.24 70.76 70.32 68.94 67.55 67.32 68.60 68.21 67.49 67.71 67.62 69.46 68.48 62.77 54.15 52.78 53.08
68.61 69.81 69.64 70.52 70.78 71.54 72.17 73.16 73.87 74.39 73.28 73.71 73.67 72.19 71.89 70.58 69.68 69.99 69.48 68.90 68.75 68.51 67.91 67.24 68.97 68.19 65.65 65.25 65.68 64.84 64.12 59.07 60.59
68.84 69.56 70.12 70.31 70.54 71.54 71.70 72.53 72.72 72.87 72.78 72.38 71.13 70.36 70.43 69.24 68.86 68.28 69.11 65.83 61.60 67.66 64.09 61.91 66.83 65.58 64.04 62.85 65.73 64.75 59.06 59.01 63.84
68.99 70.08 70.69 70.82 71.16 71.68 71.97 72.27 72.32 72.69 71.84 72.18 70.97 69.23 68.99 69.07 69.56 69.56 68.65 66.87 63.99 44.81 46.11 45.71 45.93 45.39 56.95 60.44 51.86 45.88 43.62 42.61 42.98
61.79 66.95 68.10 70.58 70.29 71.05 71.18 71.55 71.63 72.35 72.58 71.71 70.81 69.77 69.76 69.00 66.75 67.87 67.59 67.08 65.46 63.24 52.39 43.02 41.37 41.72 42.86 45.94 45.41 42.01 40.87 40.50 40.78

GFSFLT1_sfc_wetblb_009.txt.gz
Wetbulb
65.91 69.21 70.04 69.24 70.69 72.66 74.76 74.89 76.89 77.49 78.73 80.14 80.87 80.35 80.68 81.02 80.85 77.13 76.49 77.78 76.14 73.99 73.29 74.02 78.03 75.58 75.01 73.92 72.92 72.75 72.72 70.15 69.37
63.56 67.38 69.51 69.80 70.09 71.45 73.69 74.42 76.47 77.46 78.70 79.72 80.32 78.81 81.11 80.94 80.76 80.27 77.41 78.96 79.21 76.15 77.16 74.16 74.72 75.31 74.57 73.64 72.29 72.77 72.29 69.19 70.98
63.63 65.87 69.21 70.15 70.23 71.01 73.01 73.64 75.71 77.57 78.81 79.33 79.14 79.57 79.95 79.52 79.91 80.74 80.56 81.16 80.00 78.27 77.73 77.59 76.25 75.68 74.50 73.24 73.23 73.21 72.85 71.44 71.65
63.47 65.36 68.46 70.16 70.50 71.08 72.35 73.12 74.71 75.86 77.10 78.60 78.99 79.43 79.44 79.68 79.06 79.57 80.47 79.94 79.80 79.84 78.72 78.43 76.77 76.26 75.02 72.90 72.15 72.25 72.68 71.70 70.69
63.76 65.71 68.31 70.16 70.96 71.26 71.62 72.95 73.05 73.97 74.99 75.35 77.64 78.90 79.89 79.71 79.93 79.80 79.22 79.95 80.23 80.09 78.69 78.61 76.97 75.99 74.37 72.97 70.74 68.71 71.92 70.26 70.17
64.43 65.68 67.26 69.80 70.69 71.26 71.91 72.47 73.66 72.96 74.67 74.16 75.54 78.02 78.10 79.14 78.90 79.52 79.33 79.76 79.87 79.71 79.46 78.32 75.98 75.63 74.31 72.25 72.16 72.24 72.30 71.92 69.30
64.68 65.82 68.91 69.47 71.02 72.53 73.49 74.43 74.99 74.69 74.34 73.93 74.80 76.06 76.34 78.08 78.90 79.15 79.22 80.15 79.71 79.96 79.07 78.31 75.81 74.98 73.42 72.59 71.89 71.81 71.64 71.48 71.13
63.17 64.34 68.98 70.51 71.38 74.75 75.97 75.97 76.36 76.40 75.70 76.43 75.94 77.32 77.15 78.14 79.83 79.92 79.84 79.43 80.04 79.55 78.88 77.77 75.43 74.53 72.49 71.95 70.66 70.08 71.34 70.69 69.86
62.57 63.34 65.29 70.51 71.94 73.21 75.96 76.58 77.58 77.34 77.06 77.50 77.59 78.43 78.06 79.35 80.46 80.02 79.82 79.85 79.95 78.68 77.49 76.29 74.95 72.17 70.26 69.07 68.21 64.51 64.80 69.08 68.58
63.11 63.76 65.31 70.00 71.68 73.19 75.26 75.00 77.73 77.65 78.31 78.50 78.53 79.27 79.98 80.47 81.11 80.32 80.28 79.47 78.06 76.65 74.86 74.91 73.32 71.16 68.24 67.96 70.15 62.51 62.73 64.63 69.06
64.47 66.25 66.48 69.05 71.21 73.48 76.06 75.63 75.82 77.53 77.33 79.23 79.50 79.73 79.66 80.66 80.75 79.91 79.58 78.06 76.51 74.79 74.08 73.69 72.13 70.30 69.84 70.40 70.74 62.48 61.16 64.29 69.07
64.64 65.62 66.68 70.01 72.48 74.10 77.48 76.69 78.11 78.20 76.78 77.74 77.66 77.37 78.49 79.30 78.65 78.09 77.45 75.83 75.22 74.12 72.90 72.48 70.48 69.54 68.92 69.97 71.30 59.95 59.37 63.73 68.95
67.36 68.16 67.25 71.77 73.06 74.67 75.60 77.19 76.39 76.15 75.46 75.77 75.81 77.05 77.04 78.47 78.42 77.33 75.81 75.47 74.71 74.12 73.98 71.97 70.93 69.46 69.89 67.88 71.07 58.51 57.72 62.58 66.52
68.66 68.85 71.99 73.81 74.28 75.37 76.30 77.10 75.48 75.80 75.40 74.38 75.20 76.16 76.41 76.97 76.66 76.59 76.19 75.05 74.86 73.89 73.10 71.68 70.13 68.93 70.73 72.02 70.68 69.67 55.70 56.24 66.72
69.21 70.22 71.86 72.47 73.41 74.25 74.98 76.03 75.93 75.68 75.76 77.39 77.97 77.48 76.48 76.19 76.00 74.95 73.82 73.37 73.83 72.92 71.72 70.53 70.50 70.76 70.85 70.82 72.50 61.55 55.88 54.57 55.72
70.96 71.43 71.79 72.24 71.88 73.73 74.34 76.27 76.66 76.19 78.11 78.25 77.58 76.63 76.25 75.07 74.01 73.72 73.75 73.57 71.89 69.49 70.00 68.55 69.20 67.81 69.10 70.88 71.99 69.08 56.18 54.17 54.99
69.01 69.82 71.05 71.46 71.89 72.66 73.73 75.84 75.65 76.71 76.43 76.75 75.86 73.98 72.59 72.32 72.00 71.09 71.22 70.83 69.75 68.42 67.92 68.29 69.34 68.92 68.98 68.99 68.63 67.97 65.81 61.25 62.06
69.44 70.02 71.34 72.05 71.65 71.84 72.50 74.10 74.56 74.55 75.22 75.53 73.78 73.73 72.53 71.46 70.91 70.36 68.77 66.47 65.69 68.10 65.33 63.72 68.05 68.58 68.60 66.41 64.77 65.04 59.35 58.89 61.95
69.25 69.59 70.53 71.54 71.44 72.17 72.93 73.37 73.51 74.14 74.28 74.34 72.86 71.52 71.12 70.41 69.94 69.04 68.23 65.85 61.29 45.44 46.97 44.78 44.66 46.64 57.07 62.29 51.31 45.71 43.96 43.03 45.01
63.98 69.93 69.99 70.43 70.84 71.93 72.77 72.99 72.90 72.65 73.25 73.40 72.84 71.27 71.50 70.09 68.25 69.80 69.27 68.32 67.66 65.21 54.10 43.98 42.54 43.31 45.18 48.50 47.02 42.22 41.90 41.92 43.08

GFSFLT1_sfc_wetblb_012.txt.gz
Wetbulb
67.77 68.97 69.35 69.90 70.80 71.90 73.14 73.62 74.94 75.82 77.02 77.33 78.64 78.12 78.65 78.49 78.20 77.84 77.19 77.56 77.12 76.17 75.12 74.42 75.12 75.02 74.53 74.77 73.24 73.19 73.21 72.08 70.25
65.48 68.55 69.53 69.44 71.49 71.83 73.54 73.66 74.60 75.59 77.29 77.88 78.71 78.64 78.90 78.79 78.37 78.10 77.50 77.41 77.36 77.62 76.50 77.36 74.63 74.57 75.14 73.91 73.17 73.31 73.81 70.24 69.98
64.20 64.83 69.45 70.24 70.32 72.27 73.51 74.47 75.06 76.22 77.12 77.84 78.93 78.93 78.73 78.59 78.93 78.39 77.61 77.57 77.51 76.02 77.20 76.25 75.49 75.08 74.57 73.67 72.77 71.48 72.16 69.74 71.60
64.04 65.06 67.10 69.64 70.54 71.52 73.43 74.81 74.81 75.68 76.07 77.70 78.45 78.74 78.59 78.67 78.62 78.79 77.91 78.36 77.38 77.82 76.72 76.18 75.58 74.94 74.00 73.41 72.12 72.23 71.48 70.52 69.34
64.92 65.28 67.06 68.90 71.07 71.08 72.09 73.20 74.03 75.06 76.04 77.10 78.01 78.43 78.43 78.31 78.64 78.64 78.36 77.37 78.45 77.60 78.22 77.03 75.48 75.20 74.10 73.18 70.97 71.91 70.01 68.90 68.76
65.97 67.88 71.61 69.04 70.00 70.71 71.25 72.07 73.20 74.60 75.52 76.24 77.91 78.01 77.82 77.83 77.95 78.06 77.99 78.28 77.47 78.89 77.65 76.68 75.05 74.98 73.95 72.97 70.63 71.17 70.08 69.37 69.44
65.87 68.15 70.37 70.29 70.38 71.67 71.53 72.09 72.82 73.76 74.82 75.88 76.88 77.28 77.18 77.05 77.33 77.61 77.70 78.11 78.47 78.00 78.06 76.70 76.25 74.70 73.96 73.33 71.08 70.37 69.68 70.14 69.98
65.15 67.96 69.46 71.65 72.78 73.09 72.39 72.69 72.97 73.37 74.03 74.48 75.13 75.86 76.48 76.76 77.82 77.92 78.15 77.86 78.37 78.42 78.08 77.77 77.22 75.62 74.22 73.81 71.32 70.33 70.50 70.52 70.00
65.00 65.79 67.22 70.55 72.07 75.49 75.55 73.57 73.16 73.14 73.36 73.69 74.63 74.57 75.15 76.43 77.24 77.89 77.41 77.92 77.77 78.30 78.16 78.16 77.21 75.73 73.77 72.81 70.96 65.47 65.78 69.63 69.81
65.55 66.11 66.63 71.23 72.37 73.29 75.35 75.40 74.56 73.26 73.42 74.66 74.00 74.93 75.47 75.82 76.95 77.47 77.70 77.80 77.78 77.92 77.79 77.86 76.63 75.95 73.57 71.85 70.91 62.95 62.86 66.28 69.55
64.53 66.02 66.30 67.60 69.73 73.30 75.10 76.18 75.71 75.80 75.14 75.03 74.71 76.82 76.08 76.78 77.77 77.72 77.84 77.79 77.72 78.02 77.96 77.01 75.93 74.23 71.35 70.25 69.29 63.17 61.96 63.76 66.77
64.03 65.09 69.05 68.12 66.59 73.28 75.07 75.77 76.17 76.77 75.68 75.26 76.99 75.91 78.55 77.73 79.93 78.87 78.65 78.37 78.15 77.99 76.53 74.50 73.28 71.44 68.81 68.09 69.46 61.96 59.71 61.82 66.45
63.03 63.91 65.87 69.09 67.55 74.54 76.19 76.49 76.73 76.15 76.64 75.98 75.01 77.56 78.23 80.00 79.97 79.39 78.62 78.36 77.36 75.02 73.52 72.80 72.32 69.52 68.87 66.40 69.28 61.38 58.79 60.31 67.15
67.78 65.12 67.35 75.37 75.60 74.74 76.17 77.02 76.94 76.03 76.51 76.28 77.37 78.88 78.76 79.46 79.58 79.28 78.91 78.15 75.73 73.16 73.41 73.82 71.05 69.25 69.08 69.57 68.07 69.44 56.00 56.37 67.97
70.80 69.91 71.36 75.31 75.79 76.64 77.38 77.69 77.31 76.71 76.77 78.33 78.99 78.31 78.09 78.25 78.49 76.83 76.64 75.40 73.73 73.66 72.44 70.90 69.94 69.19 68.77 69.89 71.48 61.26 55.62 55.13 57.17
69.89 70.92 74.50 74.30 75.67 76.42 77.37 78.61 77.17 76.25 77.38 77.47 77.16 76.89 76.83 77.03 76.49 75.43 74.93 73.26 72.69 71.96 71.79 70.19 68.94 69.30 69.05 70.36 71.27 69.39 54.61 54.87 55.08
72.31 73.12 73.66 74.02 73.83 74.23 74.86 76.14 76.91 77.33 77.52 77.48 76.87 76.12 75.23 74.53 72.90 72.07 72.99 72.33 71.82 70.47 69.80 68.97 69.22 69.31 70.33 70.27 69.60 67.61 65.32 63.58 59.60
71.83 72.17 72.74 73.54 73.46 74.23 75.16 76.61 76.19 76.68 77.20 76.67 74.21 73.21 72.49 71.22 70.41 70.30 68.51 61.72 64.37 69.29 61.05 61.08 70.06 70.11 69.29 67.80 66.74 66.67 61.60 61.10 62.84
70.25 70.58 70.91 71.01 72.67 73.44 73.83 74.43 74.72 75.70 76.35 74.89 73.57 71.63 70.84 69.53 69.58 68.55 67.15 63.73 60.04 45.90 46.91 44.87 44.73 47.13 62.22 58.16 50.89 47.52 45.97 45.41 45.61
64.78 67.53 69.35 71.51 72.58 73.27 73.20 73.30 73.06 74.65 75.75 74.94 72.96 71.26 71.28 70.38 68.73 69.28 67.86 66.39 64.75 60.59 52.01 44.86 43.53 43.85 49.03 52.03 46.92 43.14 42.50 42.56 43.53

GFSFLT1_sfc_wetblb_015.txt.gz
Wetbulb
64.97 65.79 65.58 65.66 67.60 68.92 69.81 70.60 72.21 73.62 74.07 73.65 75.07 75.27 74.73 73.82 74.64 73.21 72.64 72.58 72.76 72.76 72.98 72.56 72.50 71.78 70.21 68.98 67.39 70.05 68.85 67.43 66.25
64.63 63.99 64.95 66.18 67.23 68.87 69.81 70.46 72.22 72.57 74.55 74.63 75.28 75.46 75.65 74.85 74.39 74.58 74.29 73.49 73.17 72.67 72.00 72.12 72.34 71.96 70.46 69.62 68.32 67.30 68.33 67.14 65.39
62.94 63.56 64.92 66.40 67.16 68.76 70.13 71.01 72.42 73.04 74.91 74.82 75.50 74.97 76.33 75.80 75.23 74.58 74.73 74.11 72.95 73.42 71.87 72.31 71.71 72.01 70.98 70.97 68.80 68.31 68.66 65.84 66.78
62.63 63.97 64.37 66.85 67.79 69.12 70.62 71.41 72.18 72.89 74.11 74.93 75.50 75.76 75.53 76.30 75.82 75.59 74.86 74.52 73.52 72.80 73.14 71.80 71.66 71.79 71.64 70.19 69.24 69.22 68.41 65.69 65.43
62.23 61.68 65.30 67.17 68.10 68.63 70.34 70.83 71.47 72.60 74.69 74.99 75.82 76.47 76.09 75.95 76.37 76.36 75.34 74.42 74.09 74.12 72.64 72.72 72.73 71.95 71.44 70.41 69.53 68.47 68.33 65.99 66.00
61.55 61.62 62.39 66.98 67.31 68.67 70.15 70.68 70.97 72.48 73.84 75.45 76.25 76.56 76.24 75.87 75.55 76.06 75.83 74.72 74.91 74.72 74.67 73.38 72.65 72.50 71.09 70.56 69.89 68.46 68.46 66.75 64.78
61.86 63.53 61.63 64.11 67.10 68.67 69.84 70.89 71.07 71.81 73.13 75.18 76.08 76.71 76.09 75.47 75.58 75.72 75.87 75.93 74.58 74.95 75.35 74.41 71.76 71.97 71.61 70.90 70.01 68.41 68.25 66.54 65.36
59.84 61.14 62.01 63.78 66.35 67.28 68.94 70.13 70.84 71.78 72.82 73.73 75.49 75.61 75.55 75.21 75.77 76.08 76.06 75.80 76.01 75.23 74.94 74.61 73.48 71.60 71.65 71.19 69.50 68.57 66.99 67.07 66.43
58.01 58.41 64.78 65.38 66.62 67.46 67.86 68.71 69.65 71.08 72.02 73.17 74.27 74.88 74.86 75.11 75.12 75.52 75.35 75.49 75.43 75.89 74.74 74.83 73.58 72.81 71.71 70.75 71.15 66.00 65.99 67.47 67.08
58.61 60.11 63.23 64.94 65.49 67.95 68.27 68.97 69.88 70.46 71.79 72.96 73.21 73.65 74.39 74.42 74.56 74.62 74.96 75.04 74.96 75.25 75.37 75.34 74.92 74.08 72.43 70.94 71.23 64.81 63.84 66.54 67.28
57.53 60.51 62.66 65.70 67.75 68.55 69.91 70.54 70.40 71.19 71.60 71.95 72.11 71.96 73.20 73.81 74.21 74.24 75.06 74.83 74.89 74.86 75.62 75.21 75.20 74.18 71.89 71.21 69.22 62.83 62.44 64.29 65.55
56.93 58.11 60.95 60.46 65.48 67.92 70.85 71.20 71.03 70.54 70.26 71.01 70.77 70.65 71.58 73.11 73.48 73.87 74.50 74.68 74.86 75.10 75.18 75.09 73.99 72.11 69.89 68.07 67.18 61.34 60.80 61.93 63.96
58.62 60.14 60.28 60.67 63.17 68.26 70.64 71.51 71.92 70.45 69.93 70.34 69.78 70.63 72.06 72.88 73.51 74.21 74.81 75.05 74.94 74.34 74.56 71.66 71.95 69.25 68.32 65.28 66.68 60.33 59.10 59.71 63.61
63.99 64.47 60.04 61.28 64.68 68.90 69.91 71.19 72.66 70.95 70.84 70.01 72.14 71.60 75.71 74.23 75.74 76.07 75.90 75.46 73.93 72.09 71.59 71.46 69.52 67.98 67.44 66.45 66.27 64.75 57.38 56.40 64.12
62.31 62.03 66.77 63.75 68.18 68.88 71.15 71.52 73.07 71.82 71.49 72.91 74.01 75.89 76.41 76.62 76.82 76.95 74.86 73.05 71.24 70.57 71.04 70.09 68.34 67.24 67.03 67.74 66.01 62.64 56.22 55.35 56.77
63.32 67.92 71.21 71.69 72.58 72.80 73.85 72.98 73.67 73.14 74.45 75.27 75.18 75.29 75.19 74.53 74.06 73.06 72.30 70.91 70.67 70.20 69.25 68.88 67.74 66.89 66.10 65.39 67.20 63.86 56.38 54.32 54.45
67.97 68.77 70.40 71.84 71.88 71.85 72.26 73.77 74.09 74.12 74.16 74.75 74.62 73.61 72.69 72.44 71.90 71.01 71.08 70.69 69.96 69.50 68.48 68.06 67.32 66.77 65.36 65.30 64.75 62.39 59.02 58.33 56.96
67.92 68.49 69.06 71.25 71.79 72.12 72.25 73.54 73.54 74.01 74.42 73.88 72.56 71.23 70.25 69.85 70.12 67.09 59.01 53.51 56.62 63.97 55.27 61.23 65.69 65.96 65.81 64.80 64.45 63.60 59.68 58.61 58.75
62.79 62.66 69.39 71.08 71.60 71.89 72.22 72.91 72.74 72.43 72.54 71.96 70.29 68.79 68.40 68.33 65.39 63.30 60.92 58.78 54.52 45.99 46.19 45.24 45.68 50.76 59.04 53.64 54.65 50.72 49.52 50.68 51.83
58.94 61.07 67.17 69.46 69.76 70.29 70.60 70.81 71.10 71.58 71.17 70.90 69.93 68.32 68.05 67.06 65.48 64.52 63.25 61.23 58.37 53.89 49.90 45.46 43.64 44.67 49.40 50.98 47.66 45.47 44.47 43.55 44.65

GFSFLT1_sfc_wetblb_018.txt.gz
Wetbulb
62.94 63.19 64.73 65.38 66.24 67.55 67.92 68.65 70.33 71.64 71.19 70.96 72.71 73.04 72.58 72.54 72.19 71.73 71.61 70.25 71.09 72.21 72.33 72.54 72.64 71.51 69.67 67.06 66.47 66.97 66.13 65.45 64.76
62.25 62.97 63.71 65.00 66.00 67.66 68.17 68.73 70.36 71.25 71.75 71.71 72.67 72.89 72.90 73.15 73.19 72.41 71.98 70.70 71.88 71.93 72.60 72.43 72.20 71.64 69.38 67.47 65.92 68.05 66.81 65.51 64.47
62.68 63.70 64.62 65.21 65.23 67.27 68.74 69.25 70.71 71.76 72.59 72.23 72.93 73.74 73.20 72.83 73.20 73.71 72.85 71.42 71.68 71.96 71.96 72.01 71.50 70.79 69.31 67.99 66.42 66.83 66.85 65.64 64.78
63.28 63.92 63.68 64.73 65.42 67.01 68.56 69.68 70.75 71.86 72.37 72.37 72.92 73.78 73.84 73.53 72.75 72.72 73.57 73.34 73.01 72.62 71.69 71.07 71.37 70.80 69.45 68.43 67.21 66.03 67.23 64.98 65.14
63.94 64.70 64.30 64.23 65.47 65.90 67.79 69.16 70.39 71.34 72.86 72.68 73.19 73.97 74.09 73.94 73.94 73.50 72.85 72.94 73.61 72.86 72.28 71.12 71.32 71.00 69.82 69.21 68.45 67.32 66.47 65.56 65.41
62.20 63.74 62.06 62.41 64.53 65.55 67.19 68.80 69.68 71.15 72.47 73.34 73.75 74.05 73.91 74.45 74.31 74.04 73.62 73.07 73.18 73.05 72.58 71.35 71.05 70.77 70.47 69.18 69.10 67.70 67.30 66.58 65.26
59.83 60.96 61.16 61.77 64.77 65.75 67.41 68.84 69.51 70.96 71.64 73.83 74.16 74.36 74.00 73.82 74.39 74.34 74.46 74.23 73.50 73.17 73.32 71.43 71.09 70.77 70.47 70.45 69.21 68.07 67.66 67.00 65.43
59.54 59.52 60.48 63.26 63.94 65.98 67.56 68.76 69.53 70.79 71.84 73.26 74.22 74.02 74.25 73.83 74.61 75.02 75.00 74.57 74.07 73.36 73.67 73.12 71.59 70.93 70.62 69.97 69.77 69.03 67.68 67.03 65.87
57.63 58.31 58.99 61.59 65.10 66.59 67.11 68.81 69.24 70.16 71.27 73.35 74.22 74.16 74.14 74.81 74.82 74.53 74.54 74.87 74.69 73.51 73.27 73.17 71.80 70.67 70.50 69.80 69.89 66.30 65.38 67.41 66.75
58.34 57.16 59.65 62.56 65.04 66.41 67.75 69.07 69.92 69.67 71.21 73.11 74.08 74.07 74.56 74.78 74.80 74.44 74.39 74.52 74.36 74.34 73.33 73.00 72.42 70.86 70.56 69.88 70.41 64.43 63.72 65.96 66.49
57.13 57.47 58.14 61.84 65.50 66.41 68.38 69.87 70.42 70.79 71.25 72.01 73.22 73.60 74.13 74.75 74.38 74.19 74.37 74.29 74.09 74.23 74.76 73.43 73.36 72.31 71.32 71.06 70.76 64.06 62.06 65.14 67.68
54.36 56.82 59.46 59.66 64.73 66.09 67.62 68.66 70.09 70.33 70.49 71.26 71.69 72.61 73.27 74.04 74.11 73.64 73.84 73.44 73.66 74.24 74.52 74.37 74.19 74.29 72.36 71.39 70.45 61.10 60.31 63.79 66.40
57.47 54.58 56.42 58.35 62.99 67.30 66.87 68.25 69.34 69.28 69.54 70.39 70.76 71.60 72.81 73.94 74.05 73.41 73.25 73.72 73.97 74.49 74.70 74.58 74.73 72.88 72.03 68.72 66.78 58.15 58.47 62.40 64.53
59.60 56.76 56.67 57.56 57.30 64.00 69.52 69.13 68.84 68.49 69.03 69.47 71.21 72.04 72.15 72.80 73.42 73.45 73.54 74.02 74.27 74.27 74.51 73.23 71.75 69.28 67.50 67.82 67.10 63.43 57.95 56.80 63.27
61.33 61.14 61.42 58.91 55.55 57.21 63.34 69.68 69.28 68.04 68.12 70.03 71.08 71.16 70.50 71.05 72.21 72.86 73.92 74.12 74.01 73.69 72.31 70.64 67.88 67.07 66.57 66.82 66.26 60.90 56.60 55.11 56.80
61.92 65.72 67.82 68.85 58.57 59.05 61.87 67.63 70.21 68.25 68.73 68.89 69.68 69.35 70.79 71.27 72.05 73.61 74.34 73.29 72.08 71.14 70.25 68.76 67.32 66.64 66.14 65.98 65.56 62.94 56.52 54.38 54.36
63.93 65.18 65.05 69.28 69.92 69.12 68.47 68.78 70.22 70.21 70.08 71.94 71.86 72.00 74.01 74.43 73.82 73.16 72.92 71.97 71.27 70.32 68.33 67.41 66.41 65.94 66.12 65.12 63.83 61.41 59.58 57.06 55.92
59.84 59.47 57.33 58.65 64.60 69.55 70.34 71.88 72.19 73.35 72.96 74.50 73.37 72.97 73.01 72.16 70.80 68.97 62.58 56.56 63.76 67.45 63.02 66.45 66.99 65.83 65.39 64.11 63.06 62.27 57.65 56.52 58.73
58.42 58.47 58.96 58.40 55.94 56.73 56.02 57.70 72.17 73.13 73.28 72.84 71.41 70.43 69.33 66.43 64.06 62.99 61.37 59.37 55.81 48.00 48.30 48.23 51.56 53.92 60.83 57.69 54.75 49.93 47.58 46.12 46.31
58.18 60.83 58.24 59.17 59.86 60.50 61.10 60.61 62.59 71.01 70.97 71.22 70.53 68.60 66.08 64.38 63.59 63.43 62.32 60.71 58.69 54.57 49.86 45.31 45.31 48.46 50.35 53.87 52.29 47.94 46.12 44.86 45.22

GFSFLT1_sfc_wetblb_021.txt.gz
Wetbulb
62.58 63.42 64.31 65.06 65.70 66.34 67.50 67.85 69.09 69.75 69.23 70.65 71.52 71.65 71.42 71.47 71.22 70.49 70.32 69.07 69.32 70.45 71.83 72.10 72.39 71.93 71.29 68.23 65.25 66.09 64.92 63.87 63.61
61.58 62.66 63.92 64.58 65.75 66.08 67.16 67.82 68.48 69.51 69.16 69.89 71.82 72.12 72.13 71.47 71.29 70.95 70.41 69.47 69.91 70.61 71.56 72.04 71.79 72.19 70.96 68.39 65.95 65.60 65.10 64.01 63.67
60.12 62.52 63.23 64.48 65.34 66.17 67.14 67.92 68.46 69.98 70.29 69.64 70.71 72.29 72.34 71.92 71.71 71.61 71.15 70.74 70.32 70.49 71.49 71.51 71.09 71.83 70.50 68.65 66.19 66.39 65.61 64.06 63.65
61.10 61.30 62.66 63.91 65.00 66.38 66.61 67.91 68.20 69.38 70.22 70.10 70.10 71.46 72.13 71.95 71.95 71.96 71.48 71.06 70.93 71.45 71.47 71.21 71.03 71.16 70.20 68.45 66.44 65.85 66.20 65.04 64.49
61.37 62.71 63.04 63.69 64.93 65.32 65.84 67.09 67.74 68.99 70.18 70.48 70.73 71.52 71.79 71.69 72.18 72.19 72.15 71.65 71.38 71.51 71.43 71.25 70.98 70.76 69.81 68.84 67.39 65.58 66.34 65.39 65.86
59.36 61.40 62.22 62.60 61.64 62.62 64.83 66.70 67.78 69.14 70.16 70.96 71.45 71.63 71.93 71.78 71.61 71.44 71.87 72.34 72.34 72.06 71.91 70.80 70.84 70.54 70.02 68.87 67.81 66.46 65.56 66.10 65.38
58.76 60.96 62.07 60.78 60.38 61.95 64.63 66.48 67.81 68.78 70.29 71.30 71.65 71.87 72.06 71.89 71.96 72.07 71.77 72.10 72.27 72.49 72.46 70.76 70.45 70.41 70.29 69.51 68.91 67.98 66.99 65.84 65.43
56.80 59.53 61.75 60.05 62.63 61.86 63.76 65.58 67.63 68.77 70.12 71.37 71.89 71.65 71.97 72.10 72.63 73.01 72.75 72.34 72.06 71.96 72.00 72.06 70.54 69.93 69.88 69.95 69.10 68.89 67.51 66.93 65.94
55.40 57.69 61.61 61.99 63.19 63.69 64.29 65.87 67.24 68.21 69.77 70.83 72.25 71.66 71.94 72.47 73.00 73.09 73.06 73.08 72.65 72.26 71.77 71.79 70.69 69.97 69.47 69.09 69.85 66.16 65.51 67.36 66.84
53.68 56.86 58.74 57.97 61.97 63.07 64.58 65.80 67.78 68.02 69.42 70.81 72.08 71.99 72.34 72.57 72.49 72.76 73.21 73.43 73.05 72.41 71.65 72.06 70.54 70.45 69.95 69.27 69.39 64.48 64.13 66.16 67.30
54.34 56.11 56.77 57.46 59.94 60.85 63.26 66.29 68.16 69.04 69.71 70.45 71.28 71.87 72.26 72.75 72.83 72.49 73.23 73.29 73.31 73.27 72.33 72.06 71.81 70.45 70.17 70.14 70.14 63.42 62.04 64.72 67.61
52.88 54.83 57.40 57.74 61.21 62.73 64.46 65.80 68.10 68.86 68.98 69.93 71.14 71.42 72.07 72.80 73.50 73.06 72.96 72.90 73.03 73.74 73.43 72.07 72.12 71.71 70.81 70.69 70.11 61.41 60.43 62.53 67.49
53.79 53.76 54.54 57.64 60.85 62.43 62.96 65.77 67.88 68.23 68.12 69.25 70.52 71.82 72.36 73.34 73.87 73.46 73.15 73.28 73.34 73.83 74.06 73.71 72.95 72.48 72.49 68.54 70.59 59.50 58.49 63.31 66.96
56.63 57.04 54.44 54.29 57.14 63.42 64.01 65.55 67.72 67.85 68.30 68.51 70.57 72.36 73.16 73.49 74.03 73.72 73.75 73.66 73.78 73.92 73.71 73.98 73.72 73.51 73.01 70.71 67.14 61.57 56.60 60.10 66.60
62.37 65.43 67.46 66.32 54.67 54.05 60.18 63.68 66.77 67.28 67.68 69.63 70.42 71.22 71.96 72.79 73.49 73.86 73.58 73.43 73.28 73.66 73.46 73.69 73.18 71.08 69.74 69.18 65.38 58.45 56.82 58.43 59.75
59.75 60.64 64.53 68.14 67.78 63.60 58.64 59.85 64.80 65.10 67.91 69.13 69.43 69.76 70.59 71.21 72.70 73.26 72.97 72.93 72.93 73.30 73.63 72.89 70.26 69.42 68.38 66.44 66.64 64.50 55.87 55.09 54.93
57.52 56.84 56.95 61.54 63.28 64.65 62.08 64.24 66.64 65.76 66.90 67.08 68.03 68.75 69.64 70.24 71.42 71.87 72.58 73.43 73.49 73.38 73.04 71.03 69.27 68.77 66.46 65.87 64.49 62.32 60.50 58.17 55.72
57.06 57.19 57.03 56.80 61.14 60.99 58.93 57.84 59.49 60.17 63.77 65.79 66.23 67.86 68.51 69.15 70.63 71.18 71.81 62.23 68.09 72.58 68.07 67.48 68.52 67.75 67.12 65.59 63.87 62.38 58.91 57.71 59.19
57.77 58.05 57.59 57.58 57.25 58.21 59.76 60.64 60.97 61.34 60.29 69.65 67.34 67.86 70.52 71.07 71.00 64.76 62.01 61.10 58.33 53.88 53.34 55.33 54.61 55.15 59.24 62.00 55.78 50.26 48.62 47.17 47.72
58.33 63.44 62.84 61.60 58.81 57.94 58.75 58.93 59.18 60.05 61.72 68.54 71.27 71.48 67.98 65.85 64.18 64.66 65.60 65.78 64.16 61.94 59.04 51.34 45.90 50.07 48.80 51.34 48.80 46.99 44.82 43.73 44.64

GFSFLT1_sfc_wetblb_024.txt.gz
Wetbulb
63.16 64.25 65.77 66.36 66.59 66.29 66.91 67.62 68.24 69.19 69.50 69.54 70.38 70.30 70.20 70.82 70.92 70.49 70.32 70.13 70.65 71.08 71.54 72.47 73.19 72.57 72.45 71.47 69.61 68.84 67.83 66.41 65.51
59.91 62.13 64.30 65.47 66.70 66.95 66.68 67.60 68.00 69.02 69.59 69.69 70.21 70.45 70.55 70.50 70.77 70.87 70.40 70.64 70.66 71.19 71.86 72.74 73.06 72.91 72.58 71.64 69.29 68.82 67.94 66.30 66.07
59.87 61.32 62.86 64.45 65.72 66.53 67.21 67.55 68.52 69.37 69.81 69.44 70.33 70.86 71.03 71.03 71.09 71.46 71.31 70.84 70.05 70.36 71.10 72.61 72.69 72.89 72.58 71.29 69.45 68.23 67.87 66.83 66.39
59.71 60.94 61.93 63.48 64.85 66.14 66.72 67.62 67.94 68.75 69.42 69.52 69.91 71.14 71.43 71.45 71.50 71.60 71.56 70.75 70.87 70.65 71.40 71.84 72.36 72.77 72.20 71.15 69.38 68.48 67.35 66.88 66.59
59.56 60.52 61.78 63.37 64.33 65.23 65.97 66.15 67.35 67.87 69.28 69.27 69.82 71.35 71.70 71.66 71.73 71.76 71.26 71.16 71.44 71.71 71.25 71.90 72.04 72.28 72.16 71.32 69.65 68.76 68.06 66.84 67.02
56.43 59.69 60.85 61.64 62.97 63.88 64.87 65.64 66.62 67.44 68.61 69.62 70.07 70.36 71.61 71.64 71.57 71.31 71.24 71.28 71.81 71.45 71.74 71.81 72.05 71.97 71.59 71.01 70.11 68.26 68.51 68.28 67.41
54.81 57.07 59.15 60.73 61.29 63.25 64.59 65.40 66.34 66.87 68.05 69.58 70.28 70.27 70.48 71.05 71.40 71.55 71.68 71.73 71.98 71.72 71.90 71.73 71.78 71.80 71.72 71.09 70.51 69.35 68.39 68.19 67.90
55.65 57.58 59.26 59.19 60.67 61.79 62.70 64.47 66.15 67.07 68.07 69.19 70.32 70.05 69.98 70.63 71.25 71.78 71.95 72.25 72.35 72.30 72.13 72.00 71.78 71.66 71.56 71.41 70.54 69.91 69.12 68.13 67.70
52.08 55.30 58.34 60.45 61.12 61.90 62.37 64.27 65.74 67.05 67.94 69.13 70.30 70.13 70.04 71.07 71.45 71.44 71.46 71.65 72.03 72.36 72.41 72.38 71.72 71.35 71.29 70.89 70.85 66.58 65.51 68.42 68.20
50.20 52.09 54.58 58.76 60.90 62.03 62.94 64.26 66.16 66.79 67.76 69.65 70.01 70.25 70.67 71.13 71.51 71.56 71.70 71.92 71.63 71.49 71.43 72.13 71.33 71.21 71.02 70.88 71.28 63.78 64.02 66.04 69.06
51.00 52.21 55.04 57.64 60.30 62.45 63.87 64.69 65.43 66.76 68.20 69.34 70.17 70.13 70.54 71.43 71.68 71.80 72.20 72.32 72.10 71.99 71.94 71.44 71.49 71.20 71.01 70.94 70.70 62.98 62.21 64.95 69.46
52.41 52.90 54.79 57.09 59.25 60.83 62.71 62.72 64.51 66.31 67.43 69.17 69.70 70.36 70.54 71.31 71.90 71.78 72.15 72.13 72.27 72.62 72.27 71.95 71.80 71.93 71.23 70.98 71.04 61.49 60.45 63.63 68.74
52.32 53.23 54.56 56.01 57.32 59.60 60.23 62.19 65.35 66.36 66.89 68.13 68.60 70.60 71.26 72.08 72.42 72.10 72.07 72.56 72.89 73.30 73.25 72.62 72.62 71.96 71.68 69.23 71.55 59.77 59.42 63.19 68.93
60.19 58.57 58.86 56.57 59.23 60.40 61.80 63.35 65.37 66.10 66.85 67.41 69.29 70.76 71.94 72.39 72.89 72.85 72.50 72.84 73.44 73.54 73.53 73.25 72.45 72.35 72.11 72.19 71.01 68.69 57.92 58.56 68.98
65.02 66.34 67.92 66.91 58.64 57.56 57.58 63.66 65.52 66.18 66.30 68.42 69.80 70.99 71.55 72.03 72.89 73.35 73.55 72.95 73.06 73.24 73.43 72.99 72.38 71.82 71.95 72.52 72.33 63.50 56.05 56.53 62.37
58.46 62.26 64.78 67.54 65.80 63.43 62.95 65.48 64.71 64.17 65.24 67.99 69.11 69.89 70.97 72.22 72.87 73.51 73.69 73.40 72.78 72.92 73.21 72.71 72.08 71.60 71.55 71.17 69.93 61.18 55.14 56.81 58.63
56.61 56.99 57.25 63.64 63.33 61.32 60.22 62.65 63.98 63.58 65.78 69.43 67.91 68.49 69.38 71.11 72.26 72.68 73.69 73.68 73.57 73.00 72.77 72.04 71.69 71.55 71.17 70.16 65.72 64.10 62.44 63.41 60.75
59.90 60.27 59.61 58.58 58.88 59.93 59.57 60.95 61.73 62.40 62.82 68.15 69.01 66.50 68.19 69.56 71.23 71.04 73.04 65.10 68.28 72.98 73.63 71.84 72.70 71.57 70.11 66.63 65.70 65.16 60.01 59.65 61.09
61.94 60.73 60.73 60.34 61.43 61.65 61.15 61.05 61.50 61.75 62.18 66.09 70.77 68.62 66.96 68.38 70.35 71.47 63.21 61.32 57.58 48.84 53.55 54.28 52.28 54.09 62.55 62.55 55.55 50.68 49.56 51.01 49.20
59.96 61.89 62.45 61.03 60.02 62.59 62.45 62.75 63.58 64.19 63.95 62.81 68.60 69.89 68.91 68.89 68.10 65.25 63.56 65.80 64.80 60.57 54.42 52.28 51.92 52.64 53.73 54.82 55.73 49.56 46.66 46.12 45.21

GFSFLT1_sfc_wetblb_027.txt.gz
Wetbulb
67.38 68.21 68.96 69.73 71.00 71.78 72.13 72.22 72.64 72.81 73.25 73.65 74.80 74.94 75.14 75.91 76.22 75.04 75.23 75.75 74.66 74.25 74.44 74.87 77.34 76.87 77.05 76.97 76.71 76.01 75.03 74.08 72.98
65.58 67.58 68.67 69.21 70.93 71.90 72.07 72.54 72.52 72.92 73.26 73.82 74.30 74.48 75.03 75.15 75.68 75.63 75.25 76.21 76.45 74.84 76.66 75.52 76.54 77.22 77.01 77.17 76.53 75.90 74.98 73.08 72.46
63.19 65.12 67.79 69.07 70.51 71.24 72.02 72.26 72.98 73.18 73.78 73.74 74.49 74.91 74.85 74.71 75.09 75.53 75.84 76.09 75.60 76.05 76.65 76.78 76.67 76.85 77.10 76.95 76.49 75.89 75.19 74.01 73.08
62.36 63.99 65.51 67.22 69.90 71.47 71.98 71.99 72.56 72.75 73.21 73.72 74.06 74.52 75.01 74.78 74.99 75.29 75.64 75.63 75.86 76.05 76.74 76.90 76.71 76.72 76.53 76.47 76.21 75.64 74.87 74.52 73.33
62.71 65.20 66.47 67.03 68.17 69.59 70.48 71.74 71.81 72.30 72.90 73.38 74.18 74.49 74.76 74.73 75.06 75.14 75.01 75.02 75.87 76.24 76.19 76.59 77.11 76.86 76.51 76.19 76.16 75.85 74.73 74.23 73.41
61.52 63.67 65.63 67.10 67.49 68.74 69.84 70.96 71.69 71.84 72.41 72.67 73.42 74.51 74.58 74.80 74.83 74.72 74.70 75.06 75.73 76.15 76.21 76.41 76.08 76.76 76.60 76.00 75.72 75.51 74.96 74.80 74.04
60.63 62.53 65.78 66.91 67.09 69.15 69.81 70.60 71.23 71.73 72.17 72.94 73.51 73.66 74.22 74.42 74.71 74.99 74.94 75.32 75.72 75.92 76.29 76.22 76.41 76.81 76.95 76.47 75.65 75.55 74.84 74.47 74.37
59.79 61.40 62.92 64.77 66.48 68.83 70.16 70.57 71.14 71.46 72.24 73.15 73.59 73.70 73.74 74.19 75.15 75.74 75.75 75.45 75.61 76.06 76.27 76.10 76.44 76.59 76.70 76.52 75.55 74.80 74.80 74.60 74.03
60.39 60.02 62.47 65.33 67.77 68.29 69.01 70.30 70.63 71.28 71.81 72.38 73.57 73.32 72.99 74.39 75.45 75.51 75.45 75.48 75.57 75.94 75.94 75.87 76.45 76.22 76.36 76.19 75.01 68.81 67.47 72.78 73.87
60.94 61.49 62.64 64.01 67.08 68.32 69.29 69.46 71.04 70.58 71.48 72.35 73.00 73.26 73.59 74.11 74.83 75.01 75.09 75.56 75.72 75.36 75.58 75.87 75.74 75.82 76.06 75.87 76.18 64.87 64.77 67.09 74.67
60.94 61.85 62.39 64.27 63.03 66.61 70.05 69.48 69.47 71.62 72.24 72.64 72.76 73.34 74.00 74.02 73.87 74.46 75.20 75.37 75.19 75.54 75.66 75.44 75.50 75.52 75.77 75.75 75.66 63.48 62.68 65.78 74.20
60.98 62.49 63.46 63.98 63.40 65.25 70.34 70.26 71.25 71.91 72.05 72.62 72.89 73.12 73.69 74.23 73.98 74.50 74.97 74.49 74.62 75.07 75.35 75.44 75.49 75.97 75.84 75.38 75.83 61.71 61.33 65.14 72.92
59.67 60.34 61.78 63.00 63.77 65.72 66.83 69.90 70.07 71.06 71.11 72.07 72.40 73.41 73.75 74.43 75.20 74.88 74.69 75.07 75.14 75.41 75.55 75.22 75.44 75.65 76.03 72.30 75.70 61.03 59.75 64.37 73.58
62.99 63.60 62.35 62.79 63.55 65.10 67.42 68.40 69.21 70.62 71.60 71.78 73.25 74.10 74.57 75.36 75.95 75.72 75.53 74.66 75.69 76.26 75.82 75.74 75.40 75.21 75.57 75.57 74.19 73.42 58.46 58.60 73.66
69.98 70.37 69.19 62.56 63.55 66.31 68.89 69.92 70.05 71.30 72.46 73.60 74.31 74.61 75.10 76.11 76.31 75.61 75.19 75.55 74.98 76.17 74.84 75.33 75.59 75.29 73.84 74.58 75.68 65.64 57.32 57.10 63.09
69.40 70.45 70.29 69.67 68.84 69.35 70.04 71.00 72.02 71.31 71.85 73.15 73.88 74.52 75.31 75.91 76.54 76.48 76.67 76.09 75.80 73.45 72.94 72.75 73.33 72.33 72.40 72.87 72.95 73.56 57.62 55.29 57.24
65.98 68.01 68.71 68.30 67.68 67.70 67.99 70.47 71.78 72.30 73.66 74.15 73.83 74.34 74.90 75.51 75.77 75.74 76.57 75.86 75.59 74.50 72.86 72.09 71.44 71.65 71.17 71.67 72.43 70.67 63.05 61.90 62.80
63.70 64.16 65.20 66.48 66.68 66.78 66.66 68.14 68.14 68.12 68.68 73.08 74.48 73.32 73.23 73.98 74.39 74.22 75.62 76.13 75.66 74.41 74.37 73.44 73.45 74.29 72.16 71.94 66.68 63.63 57.76 60.82 63.81
64.64 64.39 65.76 65.71 65.77 65.93 66.17 66.87 67.25 67.62 68.30 67.87 69.99 71.37 72.35 71.96 72.56 73.60 74.62 74.27 69.40 53.63 52.95 54.74 53.47 56.19 68.22 68.72 57.14 50.03 50.75 51.30 51.30
60.84 64.28 64.79 65.27 66.50 67.60 67.89 67.85 67.88 68.96 69.21 68.33 68.25 68.22 69.86 71.31 68.37 72.10 73.61 67.69 69.51 65.51 55.81 48.22 50.03 50.94 51.84 53.11 52.93 50.39 50.03 50.57 50.39

GFSFLT1_sfc_wetblb_030.txt.gz
Wetbulb
67.11 69.40 70.88 71.41 72.52 73.16 73.52 73.56 75.03 75.15 76.38 77.06 77.19 77.24 78.79 79.46 79.69 77.02 77.14 78.25 76.69 76.16 75.68 76.54 78.02 78.10 78.59 78.79 78.88 78.91 78.78 77.90 76.90
63.23 67.90 70.55 71.43 72.44 73.29 73.96 74.70 75.87 76.50 77.04 77.82 77.59 76.82 78.93 79.35 79.27 78.93 77.20 79.43 79.39 77.36 79.37 77.01 77.62 77.86 78.18 78.52 78.75 78.86 78.81 77.17 76.89
63.67 67.41 70.21 71.44 72.38 73.04 74.16 74.83 75.45 76.43 77.42 77.43 78.06 77.62 77.97 77.97 78.68 79.58 79.56 79.82 79.68 79.39 79.05 79.25 78.15 77.78 77.96 78.17 78.62 78.88 78.91 77.50 77.40
63.69 66.39 69.47 70.58 71.72 72.84 73.85 74.85 75.36 75.47 76.00 77.13 77.17 77.84 78.35 78.12 77.88 78.35 78.95 79.04 79.55 80.00 79.35 80.18 78.93 79.28 78.02 77.76 78.32 78.83 78.60 78.62 77.55
63.99 66.12 67.29 68.68 70.44 71.99 72.82 73.73 74.61 75.25 75.59 75.44 76.80 77.69 78.48 78.57 78.89 78.86 78.21 78.76 79.27 80.13 79.73 79.89 80.23 79.70 79.01 78.48 77.92 78.70 78.03 77.59 76.94
62.92 64.43 66.37 68.15 68.76 69.73 71.74 72.95 73.92 74.09 75.20 75.16 75.92 77.43 76.81 77.27 77.96 77.69 78.54 79.20 79.10 79.83 79.76 79.95 78.42 79.37 79.78 78.89 78.40 78.46 78.05 77.80 77.61
61.46 63.87 65.59 66.67 67.84 69.16 70.70 72.95 75.34 75.76 74.21 75.13 75.41 75.87 76.07 77.30 78.21 78.42 78.56 79.36 79.25 79.54 79.93 79.82 79.72 79.57 80.24 79.54 78.75 78.10 77.69 77.33 77.41
61.09 61.91 62.92 65.75 68.84 70.23 72.30 73.15 74.99 76.01 75.09 75.93 75.94 77.03 76.03 77.48 78.59 79.14 79.21 79.01 79.20 79.52 79.89 79.67 79.92 79.73 80.03 80.09 78.35 77.22 78.67 78.52 77.45
60.03 60.96 61.65 62.90 66.54 69.18 71.12 72.47 73.59 74.55 76.29 75.83 76.02 77.24 76.73 77.97 78.71 79.18 79.03 79.24 79.24 79.44 79.44 79.47 79.69 79.20 79.56 79.40 77.85 70.64 68.28 75.34 77.49
59.85 61.49 62.71 64.17 65.82 68.01 70.99 72.35 73.61 73.39 75.96 75.96 76.42 76.88 77.76 78.06 78.79 78.62 78.85 79.18 79.33 79.01 78.86 79.44 79.18 79.19 79.37 79.19 79.49 66.71 65.67 68.62 77.37
60.61 61.34 62.68 64.18 64.27 66.01 69.51 71.26 70.08 73.64 74.16 76.44 76.56 76.94 77.39 78.18 78.34 78.52 79.21 79.30 78.78 78.91 79.08 78.73 78.79 78.93 79.36 79.27 79.35 65.86 63.34 66.95 76.79
62.03 63.15 64.09 64.81 65.22 66.27 68.69 68.81 70.88 71.57 73.65 74.53 75.70 76.51 76.85 77.72 78.22 77.35 77.91 78.36 78.43 78.88 78.35 78.23 78.40 78.25 79.13 79.31 79.22 63.80 61.48 66.64 76.04
61.95 63.56 64.31 64.69 65.43 65.86 66.91 69.80 70.62 71.55 72.56 73.32 74.64 75.99 76.76 77.96 78.62 78.11 77.53 78.63 78.74 79.10 78.71 77.70 77.23 77.57 78.89 74.74 79.19 64.02 59.71 66.10 75.30
66.29 66.29 66.03 67.03 67.45 66.86 68.70 71.36 72.06 72.18 72.95 72.84 75.36 75.86 75.93 77.62 78.72 78.56 78.84 79.38 79.44 79.01 78.43 77.74 78.29 77.17 77.70 78.71 77.71 77.28 58.46 59.03 75.52
67.16 67.03 69.75 71.68 68.94 67.13 69.01 71.93 71.39 72.24 75.26 75.99 77.00 77.28 76.69 78.49 78.55 77.02 77.00 79.23 79.43 78.81 78.44 77.57 77.29 75.76 76.58 77.78 78.93 67.85 59.21 58.00 61.87
65.99 68.55 71.09 72.39 67.39 68.96 72.56 74.03 73.70 72.88 75.69 76.74 76.63 76.73 77.48 77.95 78.31 77.96 79.12 78.82 78.64 76.85 77.93 75.75 75.39 74.53 75.74 75.43 77.48 77.70 61.56 57.14 57.82
69.20 71.33 72.63 72.84 71.37 70.84 72.34 74.60 75.18 76.03 75.97 76.31 76.07 75.59 76.16 76.71 76.86 76.54 77.34 76.97 77.01 75.89 75.37 75.98 75.18 75.68 75.94 75.80 76.05 76.59 76.16 68.86 63.73
69.75 71.30 71.24 72.00 71.60 71.50 71.50 72.71 73.01 73.91 75.16 77.15 75.39 75.95 76.20 76.58 76.25 76.45 76.87 77.69 76.65 76.14 77.62 75.03 75.78 75.94 75.82 74.86 74.26 75.14 69.88 65.01 66.23
68.59 68.66 69.25 69.44 69.56 69.90 70.20 70.44 70.77 71.43 71.95 72.11 73.38 74.14 74.24 73.91 74.66 75.36 75.90 75.97 76.50 52.15 54.93 52.72 52.03 52.60 64.59 73.94 64.20 52.48 50.40 50.22 50.76
62.79 68.10 68.98 69.48 69.84 70.71 71.25 70.81 70.32 69.38 70.34 72.18 72.13 71.73 72.36 71.91 69.61 72.18 72.96 74.14 74.63 74.27 66.45 48.40 47.50 47.32 52.21 53.28 53.08 49.67 49.31 48.04 49.13

GFSFLT1_sfc_wetblb_033.txt.gz
Wetbulb
65.85 67.63 70.23 71.41 72.56 73.20 73.84 74.42 75.66 76.45 77.67 78.76 79.63 79.46 79.63 79.90 80.67 77.81 77.11 78.26 76.05 75.27 75.16 75.62 80.06 80.43 80.11 79.85 80.19 79.57 80.87 78.46 77.71
64.68 66.98 69.34 70.76 72.56 73.46 74.79 74.84 76.12 76.58 77.63 78.53 79.21 78.93 79.57 80.11 80.08 79.88 78.36 79.20 79.72 78.02 78.72 76.43 79.86 80.36 79.95 80.07 79.93 80.59 80.84 77.44 78.84
63.71 65.93 68.60 70.63 72.02 73.21 74.97 75.04 76.28 77.23 77.81 78.22 78.93 78.75 79.36 79.60 80.22 80.67 80.24 80.67 80.53 79.05 79.85 80.57 80.88 79.50 79.52 79.63 80.16 80.32 80.89 78.85 79.72
63.31 64.32 67.41 70.04 72.05 73.20 74.50 75.18 75.40 76.47 77.41 78.41 78.88 79.19 79.32 79.51 79.78 80.08 80.68 79.88 80.53 80.69 81.01 81.60 80.09 80.74 79.91 79.74 79.66 80.27 80.39 79.65 79.61
63.37 65.19 67.09 70.11 72.05 72.50 73.33 74.41 74.97 75.62 76.65 76.81 78.89 79.40 79.37 79.32 79.94 79.98 80.09 80.34 80.27 81.31 81.17 81.01 81.28 80.94 80.56 79.97 79.62 79.96 80.01 79.09 77.51
64.16 65.83 67.44 69.92 70.91 71.61 72.41 73.33 75.46 75.29 76.78 76.09 76.77 78.51 78.72 79.48 79.29 79.86 79.42 80.15 80.63 80.77 81.10 81.20 80.93 80.72 80.85 80.16 79.69 79.78 80.35 79.98 79.35
63.57 64.74 65.59 67.90 68.67 69.91 72.24 74.02 76.47 77.14 76.43 76.74 76.85 77.20 77.70 78.31 79.42 79.49 79.78 80.26 80.67 80.78 81.13 80.79 80.63 80.69 80.64 80.69 80.32 80.01 79.97 79.69 79.47
62.81 63.82 64.68 66.16 67.55 70.01 73.15 75.36 77.15 77.73 76.50 77.85 77.47 78.10 78.00 78.26 79.68 80.32 80.43 80.21 80.72 80.87 80.96 80.82 81.00 80.53 80.56 80.95 80.52 79.16 79.57 79.30 79.10
60.69 61.87 62.68 63.89 65.22 68.48 70.55 73.31 76.20 76.96 77.74 77.54 78.05 78.58 78.06 79.08 79.84 80.29 80.39 80.76 80.56 80.92 80.58 80.80 80.75 80.46 80.27 79.95 79.77 71.72 69.01 76.41 79.04
61.11 61.88 62.53 63.59 64.55 66.06 69.73 71.12 74.41 74.97 78.05 78.42 77.61 78.06 78.95 79.10 79.81 79.85 80.42 80.79 80.83 80.14 80.22 80.70 80.39 80.22 80.48 80.10 80.43 67.97 66.23 68.83 79.10
61.76 62.46 63.13 63.97 63.86 65.72 68.45 68.49 70.54 74.21 74.87 78.85 78.37 78.02 78.18 79.09 79.33 79.85 80.56 80.72 80.31 80.53 80.70 80.25 80.25 80.14 80.48 80.28 80.32 67.89 63.75 66.70 77.48
62.60 63.43 63.81 64.44 64.85 65.55 70.27 67.94 70.13 72.17 74.36 76.96 78.08 78.15 78.19 78.53 79.54 79.47 79.93 79.63 80.05 80.45 80.11 80.11 79.85 80.29 80.42 80.16 80.14 66.01 63.11 65.62 76.46
65.38 64.15 64.61 65.19 65.69 66.17 66.63 69.47 68.22 68.71 70.01 74.08 77.16 77.49 78.77 79.32 80.22 79.74 79.60 79.96 80.39 80.50 80.33 79.68 79.40 79.64 80.24 76.19 79.99 68.18 62.14 65.03 76.65
68.75 69.46 69.57 69.58 69.44 68.66 69.69 70.23 69.43 73.55 73.17 73.02 76.32 78.03 79.22 79.68 80.09 80.05 80.18 80.33 80.84 80.59 80.22 79.35 79.49 79.26 79.65 80.05 78.66 78.94 60.55 60.27 77.04
68.37 69.60 69.92 69.60 69.55 71.86 73.09 71.66 72.49 76.07 76.08 77.58 79.44 79.12 78.73 79.42 80.11 79.06 79.13 80.34 80.67 81.07 80.33 79.52 79.23 78.90 78.86 79.54 80.12 69.73 63.92 58.84 63.46
69.45 70.25 69.87 68.03 69.02 73.04 71.43 73.06 73.60 75.59 78.37 80.57 80.30 79.98 80.01 80.14 80.49 80.33 80.26 80.22 80.10 78.62 79.54 77.90 77.57 77.31 77.82 78.04 79.37 79.58 62.91 57.36 58.07
69.72 70.31 71.35 72.99 73.10 72.48 71.70 74.71 75.87 75.86 78.37 78.73 79.29 79.74 80.17 80.21 80.27 79.65 79.75 77.86 78.17 77.35 76.81 76.93 76.57 76.57 76.77 77.29 77.82 78.29 79.60 73.30 65.93
69.54 71.32 72.70 72.76 73.43 74.23 73.81 75.63 76.46 77.32 77.66 77.43 76.49 76.87 76.81 77.15 76.77 77.60 78.96 79.09 76.95 77.17 78.42 75.05 76.81 76.96 76.85 76.39 76.49 76.90 71.89 73.25 77.22
70.56 70.66 71.24 72.25 72.34 71.98 72.25 72.73 72.89 73.67 74.20 76.62 77.44 76.46 76.38 76.04 76.08 76.52 76.79 76.90 77.34 59.64 60.66 57.13 51.36 48.09 59.48 73.82 59.65 55.07 52.39 52.81 53.35
66.32 69.86 70.03 70.79 71.43 71.97 72.44 72.08 70.40 71.53 73.90 74.31 74.20 74.18 74.41 74.47 71.31 73.73 74.03 75.55 75.37 74.58 68.20 52.08 51.90 48.27 48.64 47.00 49.90 50.27 47.91 47.73 50.45

GFSFLT1_sfc_wetblb_036.txt.gz
Wetbulb
66.87 68.52 69.48 71.63 72.55 72.42 72.06 72.71 73.56 74.34 75.71 75.85 76.82 77.01 77.23 76.53 78.05 76.79 75.12 77.72 75.01 74.02 75.05 75.46 78.16 77.68 78.38 78.26 77.97 78.36 79.72 78.88 77.90
65.23 66.80 68.42 71.03 72.87 73.28 72.68 72.53 73.37 74.09 75.08 76.20 76.97 76.55 77.73 77.67 76.35 77.97 76.41 76.59 77.55 77.19 76.39 77.23 79.30 77.94 78.13 77.87 78.42 78.83 79.25 77.30 77.71
64.29 66.27 67.98 70.63 72.29 73.56 73.52 73.34 73.77 74.46 75.71 75.85 77.01 77.52 77.35 77.71 76.97 77.61 77.96 77.21 77.49 76.49 78.17 77.25 80.54 78.13 77.80 78.15 77.91 79.02 78.56 77.87 78.27
64.07 65.93 67.64 69.86 72.32 73.50 74.52 74.20 74.30 74.32 74.85 76.24 76.82 77.38 77.59 77.48 77.74 77.12 77.59 77.52 77.91 79.00 77.71 80.27 77.77 79.15 77.88 77.97 77.94 78.15 78.17 77.34 77.23
64.43 66.35 68.54 69.78 71.81 73.22 74.15 74.33 74.36 74.55 74.97 75.79 76.85 77.95 77.77 77.24 77.74 78.16 77.71 77.09 77.91 78.86 79.58 78.36 80.02 78.92 78.23 78.06 77.67 77.93 77.54 77.10 76.21
64.61 67.23 67.57 69.24 71.14 72.14 73.58 74.26 74.67 75.03 75.24 75.46 77.25 77.94 77.59 77.39 77.27 77.35 77.80 77.92 77.60 78.28 78.46 78.97 78.43 79.34 78.81 77.67 77.48 77.53 77.69 77.42 77.18
65.05 67.28 67.95 69.10 70.64 71.98 73.21 74.32 74.92 75.21 75.52 76.09 76.37 77.35 77.59 77.04 77.18 77.54 77.68 78.25 78.54 77.85 78.22 78.23 78.61 78.50 78.32 78.72 77.91 77.76 77.54 77.49 77.70
65.73 67.18 68.50 70.42 70.58 72.05 73.02 74.14 75.03 75.69 76.09 76.17 76.47 76.22 76.82 77.09 77.46 78.11 78.21 78.22 78.41 78.80 78.44 78.14 78.52 78.44 78.47 78.38 78.66 78.14 77.39 77.42 77.62
64.46 65.37 66.17 68.44 70.22 72.55 75.45 74.61 75.56 75.27 75.88 76.49 76.80 76.05 76.34 76.97 77.42 77.60 78.30 78.08 78.27 78.54 78.70 78.62 78.48 78.30 78.09 78.13 78.44 72.13 69.82 75.18 77.29
61.96 61.86 63.35 65.44 68.63 70.74 72.41 73.69 77.17 76.51 76.33 77.38 77.27 76.28 77.06 77.14 77.43 77.35 77.69 78.50 78.21 77.96 78.29 78.72 78.28 78.43 78.47 77.72 78.07 68.65 67.48 69.23 77.14
63.18 63.76 65.88 68.21 64.92 67.80 72.98 70.34 70.56 75.28 77.73 77.32 76.88 77.74 77.24 77.92 77.89 77.52 78.11 78.21 78.17 78.38 78.49 78.45 78.21 78.38 78.57 78.33 78.13 68.19 65.15 67.25 75.79
62.95 65.43 66.82 67.42 65.90 67.32 74.29 71.81 72.45 73.47 74.44 77.41 77.35 76.53 77.53 77.60 78.27 78.01 78.02 78.01 78.03 78.51 78.73 78.38 78.68 78.59 78.61 78.24 78.21 66.40 64.24 65.37 74.45
67.17 68.47 70.14 70.99 70.91 71.10 69.70 75.50 72.42 74.92 74.11 75.45 76.40 76.59 76.76 78.10 77.98 77.91 77.73 78.25 78.68 78.95 79.13 78.67 78.83 78.57 78.90 75.25 78.25 68.71 62.62 64.74 75.57
67.70 69.37 70.48 72.03 71.87 71.26 75.35 76.01 74.84 76.67 74.33 73.73 76.01 77.49 77.84 78.20 78.31 77.86 78.21 78.72 79.35 79.30 79.10 78.90 78.56 78.42 78.69 78.87 77.43 77.43 62.23 60.01 76.03
67.62 69.37 70.75 71.07 71.66 72.34 73.08 78.34 77.68 76.09 77.35 78.82 80.68 78.99 77.83 78.13 79.22 78.04 78.38 78.83 79.13 79.26 78.97 78.28 77.92 77.83 77.68 78.56 78.81 69.11 65.76 58.85 61.21
68.11 70.47 71.78 71.84 71.09 72.52 73.56 78.60 79.07 75.93 80.17 82.01 81.40 81.24 79.96 78.66 79.62 79.09 78.33 78.99 78.41 78.25 78.66 77.80 77.48 77.11 76.88 77.14 78.16 78.92 63.24 59.18 57.99
67.29 70.52 71.85 74.14 74.08 74.70 76.56 77.92 77.39 78.98 79.32 80.50 81.26 81.54 81.35 79.93 79.45 78.59 78.95 78.16 78.55 77.66 77.55 77.47 77.35 77.09 76.47 76.84 77.67 78.04 78.01 74.02 64.72
65.56 67.89 72.21 73.36 74.07 75.38 76.01 77.38 77.00 77.21 78.53 80.24 79.12 79.55 79.64 79.96 78.94 78.15 78.83 78.73 77.53 78.07 78.47 76.17 77.44 77.32 76.86 76.02 76.38 74.35 60.61 64.23 76.06
65.89 68.45 71.46 72.78 73.64 73.47 73.31 73.39 73.68 74.68 75.85 77.51 79.26 78.35 77.34 76.64 76.69 77.19 77.59 77.73 77.58 63.40 63.73 56.87 49.42 49.42 61.70 75.21 56.99 50.14 51.05 54.13 55.76
64.60 67.56 70.67 71.20 72.23 71.56 72.89 72.75 71.32 72.43 75.21 75.84 76.54 77.06 78.41 77.17 74.08 77.04 76.58 76.22 77.04 76.02 59.96 49.05 48.87 46.52 46.52 47.42 47.49 46.70 47.60 48.87 48.87

GFSFLT1_sfc_wetblb_039.txt.gz
Wetbulb
66.69 67.41 67.68 67.95 68.32 68.63 68.89 69.58 70.98 72.31 72.34 72.18 73.73 74.23 72.98 72.59 73.76 73.35 72.15 72.71 70.41 70.62 72.16 73.88 74.30 75.55 75.14 74.77 74.67 74.42 75.18 74.47 74.56
65.77 66.85 68.12 68.37 68.61 69.03 68.96 69.60 71.37 71.86 72.76 72.66 73.42 74.06 74.27 72.91 73.05 74.97 72.49 71.69 73.52 70.07 71.38 73.08 74.76 75.20 75.95 75.15 74.87 74.40 74.79 75.45 74.07
64.58 66.56 67.76 69.06 68.87 69.21 69.34 69.87 71.39 72.45 73.72 73.33 73.71 73.97 74.45 74.46 73.11 73.14 74.88 72.22 71.97 73.18 71.15 71.63 74.12 74.95 75.46 75.33 75.19 75.15 75.03 74.69 74.92
62.45 65.82 67.33 69.39 69.63 70.01 69.87 70.19 71.03 71.69 72.81 73.59 73.88 74.32 74.11 74.67 74.29 73.30 74.62 74.42 72.50 74.29 72.92 73.72 73.38 75.02 75.09 74.95 75.16 75.78 75.20 74.04 73.87
59.72 64.87 66.16 69.87 70.15 70.28 69.92 69.66 70.52 71.14 71.99 73.39 74.18 74.84 74.32 74.41 75.21 74.67 73.60 74.58 74.52 73.03 74.76 73.86 75.37 75.82 75.20 75.39 75.09 74.82 75.30 74.23 74.61
58.05 62.78 65.82 69.24 70.26 70.06 69.96 69.81 70.07 70.81 71.82 72.93 74.13 74.81 74.88 74.50 74.54 75.10 73.97 74.16 74.74 75.09 73.88 75.74 74.26 75.85 75.50 75.25 75.41 75.20 75.11 75.28 74.58
59.21 62.46 65.02 68.57 69.33 70.37 70.74 70.53 70.47 70.71 71.29 72.87 74.13 74.54 74.77 74.74 74.93 75.00 75.42 74.92 74.52 74.10 75.76 75.17 76.50 74.57 75.63 75.74 75.79 75.52 75.67 75.30 75.02
61.02 61.82 64.31 66.48 68.84 69.61 70.78 71.10 71.00 71.47 71.73 72.43 73.48 74.27 74.77 74.85 75.30 75.28 75.32 75.25 75.67 75.50 74.40 75.96 75.46 75.83 75.56 76.14 75.69 75.99 75.31 75.49 75.21
57.83 59.38 62.41 63.49 66.18 69.16 70.34 71.35 71.62 71.99 72.13 72.45 73.07 73.78 74.19 75.42 75.15 75.19 74.91 75.16 75.21 75.84 75.71 74.77 75.31 75.26 75.41 75.66 76.42 70.94 69.27 73.97 75.11
57.53 58.18 59.47 60.07 60.45 63.60 67.66 70.92 72.26 72.28 72.94 73.35 73.05 72.83 73.99 74.76 75.02 74.74 75.02 75.16 75.45 75.24 75.69 76.09 75.21 75.17 75.69 75.31 75.93 67.64 66.98 69.31 75.53
58.32 60.06 60.52 60.45 60.12 61.54 62.68 67.79 72.92 73.17 73.31 73.24 73.10 72.89 73.02 74.08 74.60 74.83 75.06 75.30 74.85 75.62 75.82 75.87 75.95 75.85 75.73 76.08 76.13 67.22 65.20 67.22 75.04
63.32 63.83 64.91 65.51 65.63 65.22 64.84 64.72 65.73 73.46 73.00 73.43 73.47 72.94 73.16 73.81 74.80 74.49 75.03 74.84 75.32 75.62 75.63 75.72 75.97 76.56 76.31 75.97 76.18 65.07 64.09 65.20 73.71
64.56 65.43 66.01 66.55 66.80 66.42 66.43 66.79 66.98 70.09 73.20 73.16 72.93 73.72 74.59 74.89 74.99 75.02 74.49 75.04 75.32 75.96 76.27 76.02 76.40 76.06 76.77 73.55 76.51 66.67 61.89 64.69 74.22
64.77 66.13 66.62 67.08 66.43 66.11 66.94 67.56 66.91 67.18 67.85 72.13 73.83 73.66 73.42 74.84 75.63 75.49 75.66 75.49 75.99 76.15 76.30 76.38 76.21 76.09 76.57 77.04 75.82 75.55 61.15 59.83 74.03
64.63 64.34 67.31 68.51 66.28 65.71 66.58 66.61 67.66 66.32 66.11 70.71 72.12 72.88 73.43 73.91 74.42 75.18 75.64 75.44 76.02 76.38 76.37 76.02 75.99 75.93 76.12 76.93 77.10 67.19 62.59 58.74 60.92
62.40 63.14 63.90 69.27 69.92 70.46 70.50 66.74 68.02 67.03 71.28 72.82 74.45 72.82 73.18 73.50 74.77 75.25 73.57 75.45 75.22 76.15 76.34 76.31 75.88 75.72 75.63 75.79 76.70 76.76 61.76 58.72 58.36
60.73 62.59 63.80 68.12 69.55 70.64 72.80 73.16 73.40 73.11 73.91 72.94 71.29 73.55 75.01 74.39 74.92 75.02 74.47 75.87 76.21 76.07 76.25 75.78 75.68 75.24 75.18 75.35 75.24 75.60 76.38 73.28 65.44
61.38 62.24 64.09 66.41 67.66 69.61 70.51 71.81 71.39 71.84 72.08 73.21 74.30 72.09 75.84 74.97 75.05 74.81 75.04 74.55 75.06 75.62 75.64 74.56 75.65 75.65 75.53 74.47 74.63 71.78 59.59 61.28 70.29
61.43 62.29 63.52 65.08 66.87 68.72 69.29 70.03 69.54 69.15 69.89 71.54 72.35 73.82 75.06 74.77 74.34 74.69 75.11 75.14 72.84 52.08 53.75 53.67 51.52 49.95 64.98 60.76 52.96 47.85 47.12 46.94 47.66
56.21 62.58 63.35 64.23 66.10 68.12 69.03 68.90 68.49 68.62 69.84 71.29 69.88 69.66 72.41 72.36 71.12 72.97 74.30 74.37 74.52 65.93 56.19 46.90 46.38 48.64 48.15 48.04 46.89 45.49 44.40 44.40 46.03

GFSFLT1_sfc_wetblb_042.txt.gz
Wetbulb
63.79 63.89 66.50 67.11 67.75 68.05 68.21 69.51 69.95 69.88 69.94 70.21 71.79 71.71 71.58 71.88 71.53 71.81 70.95 69.40 67.99 68.98 71.10 71.50 72.49 74.13 74.13 73.90 73.58 73.35 72.58 72.19 72.74
63.29 65.33 66.72 66.91 67.94 68.20 68.58 69.10 69.91 70.16 69.71 69.83 71.47 72.08 72.04 72.22 72.54 71.79 71.77 70.47 70.42 68.02 70.35 73.23 72.71 74.18 73.91 73.98 73.56 73.60 73.30 72.66 72.20
63.27 66.41 66.88 67.16 67.76 68.38 68.81 69.52 70.31 70.85 70.67 69.97 70.80 72.31 72.03 71.65 71.92 73.76 72.97 71.51 70.33 71.35 69.13 72.00 73.18 73.31 74.83 73.81 73.69 73.16 72.78 73.53 72.62
64.53 66.02 66.85 67.24 67.69 68.73 68.84 69.39 70.12 70.73 70.89 70.59 70.94 71.90 72.75 72.42 71.74 71.76 73.70 72.39 70.37 70.94 71.54 69.83 71.75 73.23 73.88 74.33 73.71 73.21 72.48 72.90 74.01
64.76 66.93 67.36 67.63 67.72 68.33 68.38 68.66 69.74 70.09 71.54 71.21 71.61 72.36 72.86 72.89 72.94 72.03 71.43 73.45 72.07 71.47 71.53 72.02 70.30 73.39 73.39 74.03 73.98 73.81 73.37 72.84 73.98
58.16 65.56 67.10 67.52 67.78 67.79 68.02 68.27 69.22 70.60 71.38 72.08 72.38 72.63 72.55 72.87 73.01 72.84 71.92 71.75 74.01 72.91 71.57 72.41 72.35 73.66 73.43 73.88 74.03 74.03 74.16 73.64 73.25
58.29 64.24 66.41 67.68 67.67 67.69 68.16 68.30 68.93 69.99 70.92 72.89 73.03 72.98 72.83 72.33 72.86 73.58 73.43 72.76 72.34 74.26 73.53 71.31 72.51 74.08 74.30 74.33 74.21 74.12 74.17 74.56 74.12
58.25 63.05 65.61 67.50 67.65 67.84 68.17 68.23 68.62 69.74 70.67 71.97 73.07 72.97 73.00 72.79 72.95 73.87 74.32 73.63 73.19 73.16 73.72 74.21 72.64 73.74 74.13 74.76 74.58 75.00 74.25 73.91 73.83
58.24 60.96 65.62 67.80 68.29 68.38 68.39 68.43 68.52 69.43 70.09 71.10 72.62 72.65 72.94 73.41 73.81 73.54 73.62 74.16 73.81 73.13 72.95 72.76 74.31 73.73 74.18 74.10 75.32 69.92 68.83 73.21 74.09
55.55 58.58 64.27 67.63 68.42 68.79 69.31 69.28 69.46 69.01 69.94 71.00 72.01 72.28 72.79 73.48 73.58 73.86 73.91 74.19 74.10 74.05 73.51 73.35 72.24 73.51 74.27 73.93 74.75 67.01 66.70 68.62 74.38
61.65 62.14 60.96 58.84 61.64 65.71 68.34 69.64 70.33 70.29 70.45 70.48 70.66 71.33 72.62 73.16 73.99 73.72 74.15 73.90 73.68 73.87 74.42 74.23 73.83 73.02 73.50 74.22 74.41 65.93 64.68 67.01 73.65
62.03 62.32 62.70 62.97 63.86 63.64 62.87 69.04 71.37 71.15 70.86 70.84 70.58 70.50 71.07 73.10 73.63 73.90 73.81 73.46 73.47 73.94 74.05 74.19 74.62 74.86 74.35 73.46 74.03 64.35 63.11 64.99 72.47
63.33 66.32 64.76 63.80 63.92 63.93 63.83 64.91 64.37 70.82 70.95 71.13 70.61 71.11 71.62 72.23 73.65 73.86 73.94 73.96 73.99 74.29 74.51 74.59 74.83 74.71 75.38 72.29 74.87 64.75 61.82 64.22 73.39
62.14 63.57 67.22 67.81 67.19 64.54 63.52 64.57 64.87 67.57 69.60 71.04 72.36 72.69 72.45 72.46 72.70 73.71 74.26 74.50 74.57 74.36 74.51 74.49 74.45 74.46 75.21 75.60 74.31 74.18 60.24 59.92 73.81
61.29 61.56 65.84 68.18 70.46 70.92 69.76 65.49 65.26 63.37 65.52 68.57 71.03 70.88 72.13 72.66 73.38 73.58 74.26 73.81 74.05 74.39 74.33 74.16 74.07 74.05 74.36 75.31 75.55 65.64 59.89 58.82 61.40
60.44 61.15 62.80 66.01 67.92 69.91 71.15 71.33 70.93 70.14 70.60 70.48 70.97 70.91 71.36 71.72 72.47 73.26 73.73 73.54 73.47 73.77 74.11 74.00 74.00 74.13 74.11 74.68 75.56 75.33 60.78 58.26 58.86
58.00 61.04 61.76 64.06 66.34 66.83 68.12 69.82 70.12 69.62 70.15 71.26 72.15 67.96 71.78 70.96 71.65 71.78 72.17 74.50 74.75 74.44 74.46 74.43 74.21 74.32 74.22 74.80 74.85 75.16 75.55 69.02 64.46
52.06 58.47 61.21 63.23 64.15 65.28 66.44 68.62 67.91 67.92 68.10 69.12 69.58 70.97 70.34 72.72 72.12 71.25 72.02 68.05 67.44 74.01 75.46 74.21 75.20 75.18 75.61 74.99 74.76 73.11 63.11 65.38 71.01
50.18 52.73 60.32 61.65 62.77 63.64 65.04 67.29 66.59 67.06 67.52 68.44 68.81 68.72 71.13 72.81 72.48 72.59 73.17 67.06 61.26 50.97 48.72 48.90 52.28 55.54 66.15 56.81 53.35 48.65 49.02 49.38 49.02
51.19 52.90 58.64 60.94 62.16 63.52 65.52 66.15 66.40 67.34 68.52 69.19 68.04 66.75 66.49 69.89 71.10 73.27 73.61 72.89 66.18 61.53 56.77 47.93 46.08 46.81 48.75 50.43 48.91 47.82 47.38 46.66 47.56

GFSFLT1_sfc_wetblb_045.txt.gz
Wetbulb
64.36 64.96 66.50 67.11 67.20 67.86 68.26 68.93 68.69 68.46 68.60 68.46 69.05 69.40 69.71 69.82 69.43 69.18 69.33 69.33 67.84 67.67 69.02 70.09 71.35 72.41 72.39 72.04 72.41 72.20 71.23 70.93 71.18
63.65 63.19 63.79 65.73 67.66 67.71 68.05 68.88 68.91 68.76 68.44 69.25 69.43 69.67 70.10 70.21 70.17 69.93 69.56 69.30 69.04 68.55 68.52 70.38 70.43 71.71 73.13 72.71 72.47 72.47 71.68 70.86 71.21
63.15 64.08 63.97 64.64 67.31 67.74 67.70 69.04 69.45 69.54 69.32 69.31 69.84 70.20 70.43 70.68 70.52 70.73 70.65 69.87 68.56 67.75 68.86 70.62 70.96 71.43 72.02 72.37 72.79 72.67 72.36 71.44 71.09
62.17 64.06 64.34 64.47 66.71 68.15 68.33 68.92 69.47 69.16 69.42 69.19 69.68 70.51 70.61 70.80 70.82 71.12 71.21 70.66 69.89 70.33 68.24 69.98 71.20 71.41 72.21 72.43 72.38 72.46 72.18 72.53 72.47
61.18 64.29 64.83 65.50 66.82 67.61 68.04 67.86 68.97 69.27 69.41 69.18 69.64 70.83 70.93 70.85 71.16 71.63 71.91 71.37 70.14 70.24 70.99 68.93 70.52 71.38 71.74 72.97 72.91 72.63 72.30 71.69 72.70
58.63 62.57 64.21 65.78 66.80 66.90 67.66 67.96 68.25 69.09 69.66 69.51 69.90 70.08 70.88 70.80 70.41 70.23 70.80 72.59 72.49 70.51 69.97 70.03 69.62 70.77 71.83 72.33 73.11 72.97 72.58 72.29 72.07
53.99 61.86 63.55 65.60 66.45 66.71 67.64 68.00 68.01 68.70 69.58 70.40 70.34 70.38 70.42 70.71 71.01 71.12 70.59 70.82 72.18 72.68 71.49 70.48 70.80 71.07 71.81 72.45 72.85 73.23 73.13 72.99 72.50
52.34 60.29 63.85 65.44 66.17 66.29 67.13 67.41 67.80 68.93 69.63 70.60 70.67 70.36 70.46 70.71 71.96 72.20 72.08 71.22 70.85 71.88 73.00 72.26 71.73 71.46 72.57 72.79 72.92 73.37 73.04 73.18 72.90
53.35 62.00 64.37 65.80 66.50 66.64 66.79 67.32 67.45 68.43 69.51 70.68 71.25 70.70 70.47 71.30 71.51 72.23 72.38 72.28 71.87 70.85 71.88 73.11 71.98 71.24 71.64 72.56 73.70 69.34 68.27 72.10 72.92
55.64 60.61 64.12 65.66 66.31 66.71 67.18 67.52 68.14 68.00 69.47 70.84 71.30 71.18 71.38 71.62 71.71 71.59 72.30 72.92 72.70 71.62 71.16 71.74 72.63 72.61 71.94 71.88 72.78 66.58 66.66 68.52 73.28
61.58 59.74 62.47 65.65 67.12 67.42 67.86 68.37 68.37 68.62 69.54 69.69 70.78 71.30 71.51 72.10 72.23 72.00 72.18 72.47 72.86 72.83 72.47 71.72 71.63 71.63 72.69 72.83 73.20 65.90 64.47 67.03 72.94
62.79 64.65 60.75 61.23 65.09 66.28 66.93 68.23 68.42 68.18 68.75 69.22 69.74 70.41 71.20 72.05 72.52 72.35 72.74 72.31 72.51 73.12 73.32 72.89 72.49 72.51 71.64 71.49 72.68 63.58 63.72 64.97 71.75
62.24 66.19 67.28 63.36 62.56 64.36 67.19 67.68 68.59 68.09 68.05 68.37 68.41 69.99 71.07 72.19 72.57 72.80 72.58 73.09 72.95 73.45 73.35 73.30 73.82 73.72 73.74 70.05 72.21 64.10 61.46 64.12 72.45
60.92 63.40 66.51 69.95 68.56 64.03 62.66 63.92 69.22 68.55 68.64 68.32 69.75 69.79 70.23 71.32 72.61 72.93 73.49 73.37 73.62 73.42 73.05 73.35 73.05 73.18 73.79 74.32 72.85 72.68 60.18 59.57 72.26
59.75 60.63 64.05 67.04 69.23 69.08 68.42 64.01 66.09 66.09 67.07 68.42 69.47 69.86 69.76 70.09 71.06 72.91 73.51 73.41 73.22 73.22 73.10 72.54 72.52 72.79 73.12 74.14 74.61 65.68 60.75 59.07 60.79
53.89 59.99 62.00 64.61 65.81 67.96 69.14 69.32 69.42 68.53 68.59 71.11 69.73 69.58 69.81 70.08 70.79 71.31 72.61 72.67 72.82 72.70 72.78 72.53 72.46 72.47 72.34 72.82 74.00 74.24 61.90 59.02 58.88
50.09 54.21 60.14 62.70 63.66 64.77 66.29 67.44 67.40 67.05 67.49 69.05 70.19 69.63 69.13 70.09 70.97 70.95 72.10 72.91 72.92 72.81 72.68 72.26 72.28 72.39 72.62 72.96 73.22 74.39 73.94 68.09 65.65
51.53 52.90 57.19 61.32 61.83 62.44 64.20 66.12 65.52 66.18 67.70 68.36 68.26 68.92 69.23 69.27 70.28 68.68 70.26 65.47 65.16 71.77 72.97 70.83 72.90 73.05 73.53 73.16 72.99 73.61 68.41 69.54 72.36
51.20 54.72 57.05 60.69 61.29 62.32 63.55 65.22 65.17 66.03 68.02 68.60 67.06 66.84 66.90 66.56 69.92 70.12 69.54 64.03 59.78 48.96 47.04 46.26 48.69 53.40 66.71 60.91 54.49 51.95 50.68 49.78 51.23
51.50 52.48 55.54 59.33 60.11 61.98 63.71 64.46 64.83 65.79 67.59 67.61 66.05 64.65 66.12 65.36 65.00 70.78 70.33 66.14 64.57 58.72 54.60 47.71 44.68 44.61 47.73 51.21 49.76 45.97 45.25 45.07 46.33

GFSFLT1_sfc_wetblb_048.txt.gz
Wetbulb
65.21 65.42 66.03 66.29 66.80 67.20 67.37 67.77 68.06 68.13 67.66 67.54 67.88 68.51 69.15 69.38 69.44 68.68 69.12 69.02 68.83 68.87 69.31 70.69 72.40 72.59 73.36 73.39 73.48 73.59 73.46 72.72 72.55
63.54 64.58 65.17 66.74 67.71 67.84 67.88 67.92 68.04 68.10 68.14 68.02 68.22 68.22 68.85 69.21 69.36 69.00 69.14 69.65 69.80 69.27 69.73 70.84 72.00 72.64 73.19 73.29 73.64 73.73 73.40 72.44 72.60
62.35 64.32 64.43 66.05 67.65 67.90 68.51 68.88 69.14 68.62 68.71 68.13 68.68 68.99 69.04 69.39 69.41 69.61 69.83 69.83 69.53 69.46 69.58 71.03 71.46 71.81 73.03 73.42 73.79 73.59 73.57 73.00 72.90
61.83 63.41 64.22 65.55 67.22 68.49 68.65 69.21 69.20 68.76 68.62 68.43 68.84 69.20 69.33 69.67 69.82 70.20 70.35 69.91 69.92 69.79 69.86 70.38 71.25 71.69 72.18 72.51 73.17 73.81 73.61 73.50 73.40
62.25 64.00 64.78 64.82 65.97 67.35 68.12 68.26 68.86 69.01 68.85 68.52 69.21 69.57 69.68 69.72 70.29 70.44 70.39 70.45 70.43 70.58 69.75 70.22 71.37 72.12 72.22 72.65 72.93 73.47 73.25 73.13 73.87
56.56 60.96 63.15 64.55 65.09 65.44 67.41 67.49 68.22 68.98 69.09 69.06 69.63 70.07 69.94 69.92 70.06 70.32 70.34 70.73 71.09 71.23 71.26 70.22 70.75 71.87 72.00 72.30 73.18 73.48 73.33 73.37 73.39
51.41 54.23 61.70 63.89 64.73 64.85 66.78 67.68 67.80 68.71 69.11 69.70 69.74 70.03 70.25 69.80 70.00 70.47 70.98 71.57 71.74 70.95 71.07 71.35 70.97 71.08 71.83 72.55 73.04 73.81 73.88 73.58 73.35
53.66 53.98 54.75 62.10 64.15 64.88 66.18 67.49 67.49 68.71 69.23 69.41 69.79 69.25 69.88 70.06 70.66 70.98 71.30 71.71 72.47 72.66 71.17 70.99 71.59 71.42 71.71 72.45 72.91 73.37 73.78 73.96 73.55
59.75 56.90 54.16 58.47 64.13 65.48 66.15 67.28 67.61 68.26 69.08 69.48 69.81 69.12 69.35 70.68 70.84 70.98 70.82 70.79 70.85 72.05 72.78 72.23 71.97 71.55 71.83 71.68 72.25 68.02 67.65 72.16 73.65
60.36 61.56 57.50 56.51 63.66 65.76 66.74 67.40 68.10 67.65 68.75 70.00 69.62 69.20 69.62 70.10 70.86 71.18 71.45 71.63 71.18 70.67 71.10 72.54 72.38 72.08 72.09 71.99 72.90 65.88 65.77 68.01 73.62
59.77 63.14 62.17 62.46 65.17 66.45 67.19 68.26 68.43 68.56 69.36 69.87 69.87 69.66 69.95 70.66 70.90 71.17 71.89 72.04 71.86 71.82 71.36 71.04 72.25 72.59 72.29 71.96 72.29 64.97 64.05 66.53 72.85
60.04 63.08 66.09 61.52 65.21 66.04 66.90 67.77 68.15 68.16 69.00 69.53 70.07 69.86 70.37 71.03 71.40 71.28 71.73 71.89 72.16 72.70 72.20 71.88 71.58 72.29 72.90 72.81 72.81 62.95 62.75 65.05 72.32
60.30 63.41 66.90 65.28 65.68 65.87 65.98 66.61 67.64 67.77 68.30 69.00 69.81 70.52 71.28 72.12 72.26 72.05 71.66 71.91 72.41 73.26 73.52 73.01 72.88 72.60 72.75 69.72 72.88 64.12 61.33 63.99 72.32
57.38 61.87 65.10 68.32 65.19 65.04 66.49 67.34 67.66 67.37 68.01 68.12 70.08 71.38 72.13 72.27 72.86 72.77 72.87 72.93 73.17 73.19 73.28 73.63 73.71 73.54 73.86 73.83 71.76 71.92 60.07 59.18 72.41
54.27 58.64 62.79 65.61 68.38 68.34 66.83 67.04 67.91 67.21 67.42 69.22 69.76 70.51 71.13 71.89 72.46 73.14 73.36 73.22 73.62 73.65 73.42 72.95 73.11 73.11 73.34 74.40 75.02 65.04 61.35 58.73 60.07
55.67 57.75 61.00 63.40 65.50 66.94 67.73 69.37 70.51 69.93 70.67 71.09 70.21 69.36 69.58 70.49 72.08 72.64 73.53 73.26 72.98 72.99 73.38 72.71 72.51 72.60 72.65 73.37 74.50 74.90 60.94 58.44 57.83
55.20 58.45 59.72 61.66 63.18 64.34 65.56 66.41 67.55 68.08 69.63 71.70 71.12 70.65 70.19 70.15 69.97 70.86 72.74 73.50 73.65 73.11 72.87 72.53 72.65 72.53 72.44 73.20 73.83 74.56 74.75 70.90 66.63
52.18 55.80 59.49 60.93 61.59 63.21 64.57 66.12 66.97 68.84 69.86 70.13 69.81 70.14 71.10 71.54 71.61 70.47 71.35 69.86 69.42 73.03 74.12 70.69 72.98 73.28 73.60 73.54 73.41 73.72 68.50 69.36 73.69
51.26 52.03 56.31 59.60 61.67 63.03 64.55 65.65 66.35 67.62 69.03 69.16 68.73 68.47 68.79 68.17 71.69 70.70 71.57 64.95 61.17 49.01 47.75 47.40 48.85 53.20 66.94 66.79 57.45 58.10 53.75 51.94 52.66
52.27 51.91 54.61 58.33 60.75 62.20 63.08 64.98 65.23 65.46 65.92 66.94 66.94 66.41 67.37 67.77 65.52 72.01 69.18 67.06 66.30 63.29 54.64 45.85 43.56 44.14 49.58 54.29 55.54 46.68 44.87 44.87 46.13

GFSFLT1_sfc_wetblb_051.txt.gz
Wetbulb
67.79 68.12 68.77 68.93 69.24 70.01 71.14 71.34 72.11 72.11 72.03 72.13 73.15 73.54 74.12 74.91 75.44 73.38 73.21 74.49 73.27 73.01 73.15 74.19 76.63 76.74 77.10 77.41 77.69 77.47 77.66 76.73 76.45
66.55 67.78 68.53 68.80 69.62 70.44 71.11 71.46 71.97 72.18 72.47 72.56 72.96 72.46 74.01 74.41 74.78 74.69 73.79 75.35 75.07 73.65 75.29 73.77 75.64 76.67 76.74 77.13 77.30 77.46 77.83 76.44 76.75
66.14 68.07 68.95 69.38 69.70 70.39 71.46 71.73 72.47 72.75 73.08 72.60 73.11 73.39 73.83 73.80 74.47 74.88 75.15 75.31 74.94 75.32 74.57 74.71 74.72 75.88 76.43 76.74 76.96 77.35 77.62 76.63 77.24
64.60 67.36 68.65 69.54 70.21 71.12 71.48 71.89 72.40 72.56 72.55 72.87 73.01 73.17 73.36 73.88 73.75 73.75 73.85 74.08 74.56 75.53 75.02 75.07 75.29 76.01 76.24 76.38 76.43 76.93 76.95 76.89 76.82
64.01 66.86 68.69 69.42 70.26 71.13 71.28 72.07 72.22 72.19 72.56 71.96 72.87 73.40 73.60 73.41 74.24 74.30 73.53 74.30 74.43 75.56 75.60 75.10 75.32 75.91 76.24 76.07 76.24 76.49 76.45 75.95 75.76
62.20 66.24 67.83 69.08 69.29 70.43 71.29 71.82 72.44 72.37 72.39 72.04 72.62 73.38 72.71 73.08 73.61 73.53 74.18 74.55 74.82 75.25 75.30 75.36 74.92 75.18 75.67 75.91 76.04 76.15 76.23 76.34 76.18
58.10 61.59 66.57 68.34 68.70 70.58 71.84 72.22 72.49 72.84 72.78 72.74 72.88 72.89 72.86 73.22 73.58 74.08 74.13 75.06 75.40 74.76 75.78 75.34 75.20 75.43 75.63 76.21 76.17 76.31 76.37 76.27 76.34
62.07 62.29 61.21 66.40 68.46 69.97 70.78 72.12 72.65 72.95 73.50 73.59 73.39 73.27 73.16 73.44 74.19 74.74 75.04 75.18 75.55 75.79 75.70 75.97 75.95 75.50 75.40 75.74 75.51 75.16 75.82 76.24 76.21
63.33 64.59 65.80 65.01 64.60 69.49 70.14 71.22 72.01 72.40 73.07 73.34 73.80 73.14 73.21 74.08 74.52 74.69 74.92 75.35 75.51 75.84 75.42 75.80 76.38 75.58 75.39 75.18 74.61 68.44 67.39 73.85 75.86
61.53 63.40 64.97 67.00 67.09 64.75 70.33 70.39 72.28 71.88 72.74 73.77 73.44 73.33 73.91 74.45 74.83 74.50 74.79 75.31 75.59 75.85 75.75 75.56 75.61 75.22 75.36 75.72 76.22 65.58 65.30 68.03 75.48
60.37 63.02 64.49 66.39 68.48 66.51 68.91 70.44 71.23 72.78 73.09 73.44 73.25 73.33 73.64 74.60 74.90 74.62 75.10 75.07 75.09 75.62 75.58 75.98 75.34 75.31 76.03 76.04 76.04 65.34 63.71 65.68 74.31
56.15 61.04 64.11 67.60 70.16 68.21 70.15 71.82 72.87 72.73 72.98 73.27 73.12 73.02 73.43 74.12 74.75 74.64 75.12 74.81 75.07 74.96 74.43 74.55 75.25 75.64 76.09 76.00 76.41 63.51 62.88 65.77 74.58
57.43 62.49 65.25 69.09 69.38 69.50 71.17 72.54 72.96 72.21 71.74 72.70 72.59 73.39 74.02 74.75 74.95 75.02 75.08 75.52 75.55 76.11 75.44 74.96 74.43 74.45 76.08 72.32 76.42 65.02 61.10 64.83 73.98
60.92 64.40 65.71 70.90 70.41 71.27 72.25 72.98 72.33 72.15 72.33 72.48 73.42 74.01 74.03 74.73 75.44 75.36 75.88 76.28 76.76 76.01 75.55 75.97 75.39 75.06 76.24 76.08 74.80 75.62 60.34 58.82 73.87
59.73 61.78 65.83 68.71 70.34 69.62 71.59 72.84 72.66 72.37 72.38 74.57 75.46 75.63 75.23 75.69 76.06 74.96 74.93 76.32 76.13 75.92 76.28 75.73 75.72 75.57 75.35 75.96 76.44 66.50 62.33 58.45 60.07
57.96 60.46 64.60 67.93 69.58 70.26 71.71 72.16 72.66 72.05 73.38 74.40 75.12 75.51 75.83 75.70 75.94 76.05 77.19 75.88 75.87 74.64 75.71 74.68 74.71 74.68 74.71 75.25 76.53 77.08 61.10 58.03 57.54
54.32 58.08 62.91 67.62 69.17 69.10 69.83 72.20 73.41 74.20 74.74 74.41 74.13 74.27 75.13 75.42 75.02 75.35 76.36 75.55 75.57 74.96 74.87 74.55 74.62 74.68 74.76 75.48 76.16 76.85 77.48 74.28 69.67
54.50 55.86 61.11 65.15 66.84 67.76 68.59 70.67 71.14 71.94 73.37 75.40 74.17 73.78 73.41 73.89 74.19 74.11 75.09 75.85 74.56 75.23 77.01 72.81 75.12 75.50 75.88 75.47 75.41 76.09 70.89 72.20 76.87
56.08 57.45 60.31 61.24 61.36 65.30 68.05 69.03 68.66 69.24 70.15 70.79 72.40 73.16 73.87 73.78 73.70 70.92 73.35 74.67 69.50 48.02 49.09 48.78 49.87 52.95 66.40 75.82 61.20 56.36 54.22 52.23 54.22
55.04 57.55 59.22 59.96 59.62 60.72 63.21 66.79 65.81 65.02 66.43 70.22 69.79 69.22 70.23 70.60 72.78 75.65 74.19 73.45 72.18 70.93 58.22 45.45 43.62 43.71 50.60 51.86 58.91 53.13 50.05 48.24 48.42

GFSFLT1_sfc_wetblb_054.txt.gz
Wetbulb
69.73 70.46 71.28 71.31 71.41 71.34 72.09 72.52 72.79 73.27 74.61 75.41 75.98 75.69 76.80 77.49 77.38 74.71 75.10 75.99 75.23 74.78 74.44 74.95 77.29 78.37 78.59 78.76 78.65 78.48 78.82 77.66 76.88
67.93 69.58 70.79 71.51 72.15 72.24 72.30 73.00 74.35 74.71 75.71 75.17 75.85 75.10 77.04 77.49 77.54 77.28 75.81 78.29 76.65 75.64 77.52 75.29 76.37 77.24 77.92 78.21 78.53 78.63 78.77 77.02 77.83
65.98 68.98 70.50 71.26 72.33 72.70 72.95 73.13 73.73 74.32 74.59 75.26 75.94 75.45 75.93 76.00 76.11 76.89 77.46 77.29 77.51 77.41 76.48 76.99 76.57 76.58 77.06 77.12 77.76 78.45 78.79 77.66 78.29
64.92 67.95 70.07 71.03 72.15 73.31 73.49 73.84 73.68 74.08 74.23 74.53 74.72 76.17 76.33 76.36 75.86 76.21 76.47 76.33 76.57 77.13 77.25 77.25 77.22 76.80 76.46 76.33 77.63 78.13 78.13 77.99 77.51
64.70 66.76 69.47 71.16 72.18 73.01 73.30 73.46 73.64 73.48 74.00 73.99 74.66 76.19 77.07 76.66 76.99 77.12 75.92 76.31 76.64 77.31 77.21 77.49 77.58 77.52 76.94 76.52 76.96 78.01 77.88 77.33 76.78
64.76 66.16 67.81 70.48 71.68 72.25 72.85 73.50 73.73 73.66 74.06 73.93 74.65 75.84 74.98 75.13 75.62 75.92 76.59 76.87 76.54 77.76 77.17 77.36 77.22 77.34 77.16 76.76 76.81 77.44 78.05 77.86 77.33
62.71 64.78 67.50 69.38 70.64 71.61 73.17 74.01 75.30 75.54 74.27 74.62 74.44 74.77 74.63 75.49 75.57 76.32 76.02 77.75 78.12 76.95 78.00 77.36 77.33 77.45 77.39 77.15 76.81 76.73 77.28 77.28 77.48
61.87 62.26 63.06 66.59 68.90 71.11 73.87 74.47 75.90 75.81 74.69 75.43 75.45 76.27 74.52 75.80 77.35 77.51 77.72 78.13 78.37 78.03 78.15 77.60 77.64 77.63 77.68 77.35 76.85 75.77 76.71 76.87 76.71
64.27 64.82 66.49 66.78 67.60 70.79 72.05 73.26 75.00 75.96 76.16 75.99 76.26 76.86 76.14 77.28 78.16 78.00 78.14 78.56 78.86 78.92 78.25 78.37 78.15 77.23 77.37 77.13 76.27 68.73 67.31 73.45 76.08
64.24 65.57 67.17 68.59 69.81 69.85 70.07 72.67 74.26 74.86 76.79 76.72 76.54 77.09 77.25 77.63 78.28 77.94 78.33 78.68 78.90 78.56 78.58 78.21 78.28 77.31 77.54 78.06 77.95 65.70 65.30 67.61 75.58
63.75 65.00 65.97 68.14 69.83 70.91 72.43 70.66 72.56 74.78 75.51 77.11 77.19 77.39 77.18 77.76 78.16 77.96 78.56 78.56 78.64 78.91 78.13 78.14 77.75 77.38 78.69 78.64 78.39 65.35 63.60 66.07 75.65
64.35 65.12 66.50 68.02 70.01 71.20 72.62 73.58 71.76 73.90 74.53 75.87 76.43 76.83 77.14 77.76 78.10 77.88 77.57 77.72 77.94 77.66 77.91 77.52 77.54 77.61 78.28 78.11 78.86 63.71 62.82 66.57 75.45
64.60 65.91 67.58 68.49 70.84 72.56 73.08 73.66 71.05 72.12 73.43 74.41 76.01 76.70 77.16 78.10 78.27 78.38 77.83 78.19 78.42 79.04 77.85 77.74 77.34 77.38 78.37 73.97 78.41 65.39 61.33 66.11 75.56
61.03 63.71 67.21 71.08 73.27 72.87 72.73 73.09 71.26 74.23 74.52 74.57 76.13 76.15 76.26 77.41 78.40 78.50 78.89 79.26 79.15 78.89 77.66 78.09 77.83 77.48 78.67 79.37 77.33 77.27 60.21 59.29 75.75
56.53 61.65 67.98 72.31 72.54 72.81 72.82 73.56 73.60 75.21 75.69 76.15 77.00 77.09 76.97 78.07 78.26 76.93 76.94 79.08 78.19 78.08 78.19 77.87 78.12 77.55 76.97 77.28 78.02 67.14 61.03 58.14 61.13
54.52 59.95 64.23 70.21 71.75 72.87 73.60 74.19 74.67 74.00 77.13 77.42 77.27 77.38 77.70 76.70 77.02 76.94 78.82 77.86 77.45 76.68 77.46 76.77 75.99 76.07 75.95 76.36 77.41 78.15 61.88 57.81 57.76
55.12 58.25 57.69 62.61 69.42 70.33 71.99 74.40 75.00 75.54 76.39 76.67 76.53 76.22 76.48 76.90 76.62 76.29 76.98 76.94 77.19 76.46 76.29 76.02 75.99 75.99 75.99 76.60 77.21 77.84 78.85 75.17 68.81
56.31 57.96 59.37 59.52 60.58 67.31 68.14 70.26 71.38 72.73 74.78 76.34 75.69 76.05 76.43 76.81 76.80 76.42 76.82 77.65 75.86 77.06 78.73 71.58 76.55 76.76 77.21 76.76 76.83 77.39 72.12 73.63 78.76
57.24 58.30 58.60 59.21 60.39 61.79 64.62 66.02 68.85 70.88 73.49 74.19 75.46 74.69 75.07 75.23 75.74 76.20 76.60 76.71 74.66 48.99 49.32 48.76 49.33 51.32 64.26 77.58 65.42 58.91 57.70 56.76 54.40
57.60 58.86 59.23 60.31 60.67 60.40 62.89 63.99 64.69 67.48 70.35 72.93 73.74 73.83 75.55 75.67 72.86 75.45 75.48 75.09 74.85 71.65 60.76 47.66 46.59 46.43 49.87 51.50 53.73 53.31 52.41 49.51 48.78

GFSFLT1_sfc_wetblb_057.txt.gz
Wetbulb
69.81 70.60 71.00 70.70 71.08 71.35 73.03 73.37 74.63 74.99 76.60 77.50 78.08 77.58 77.47 76.97 78.24 74.73 74.64 76.80 74.95 74.25 73.90 74.96 80.75 78.80 78.49 78.89 78.86 78.54 79.29 77.39 77.00
67.53 70.03 70.87 71.51 71.76 71.75 72.89 73.78 75.14 75.33 76.37 77.36 77.86 76.45 77.76 77.77 77.54 76.54 74.48 77.01 78.51 76.20 77.68 75.74 76.62 78.52 78.35 78.39 78.33 79.11 79.96 76.69 78.69
66.67 70.08 70.78 71.64 72.45 72.56 72.77 73.35 74.13 75.67 76.72 77.09 77.14 77.32 78.10 77.78 77.66 78.13 77.69 78.06 79.33 77.90 78.98 79.36 77.83 77.93 77.62 78.09 78.89 79.12 80.53 78.70 79.05
65.83 68.50 69.93 71.23 72.76 73.54 73.70 73.98 73.95 74.41 75.35 76.50 76.63 77.42 77.76 77.37 77.41 77.41 77.56 78.83 79.10 79.67 79.37 80.14 79.56 79.12 78.22 77.87 77.97 78.89 80.34 80.00 79.15
64.77 66.71 69.19 70.99 71.75 73.16 73.82 73.89 73.99 74.40 74.56 74.44 76.05 77.20 78.01 77.38 78.11 77.45 76.92 77.26 78.73 79.85 79.68 79.59 80.26 79.52 79.03 77.96 77.51 79.11 79.54 77.63 77.64
64.15 65.70 67.71 70.17 71.00 72.03 73.47 73.95 74.73 74.12 74.59 74.49 75.29 76.83 76.66 77.30 77.41 77.49 77.11 78.28 78.40 79.30 79.71 80.04 78.03 79.48 79.42 78.75 77.84 79.10 79.56 79.50 78.64
63.48 65.93 67.50 68.31 70.36 71.88 73.23 74.91 76.27 76.28 74.87 75.00 74.96 75.32 75.53 76.53 77.32 77.70 77.72 78.73 78.84 79.29 79.71 79.79 79.59 79.89 79.74 79.40 78.66 78.38 78.28 78.76 78.90
62.97 63.98 65.62 67.78 69.19 73.07 76.03 76.15 77.16 77.07 75.88 76.69 76.07 76.27 76.01 76.38 77.80 78.38 78.73 78.29 79.27 79.30 79.72 79.69 80.02 80.11 80.11 79.95 78.37 76.97 78.31 78.86 78.88
62.20 63.44 64.47 65.57 69.08 70.91 72.51 74.14 76.90 77.55 77.19 77.20 76.97 77.23 76.26 77.14 78.22 78.49 78.26 78.22 78.89 79.40 79.58 79.85 80.00 79.66 79.75 79.54 77.08 69.92 68.04 75.09 77.86
64.08 65.70 66.71 67.97 69.10 68.99 70.98 72.69 75.31 76.58 77.64 77.88 77.94 77.75 77.89 77.91 78.27 78.21 78.34 78.66 78.95 79.17 79.18 79.91 79.85 79.69 79.89 79.53 79.92 66.41 65.77 68.03 77.10
65.74 66.72 67.51 68.77 69.85 70.83 71.75 71.90 73.31 74.92 76.68 78.27 77.99 77.89 78.71 78.11 78.78 78.32 78.77 79.04 78.97 79.43 79.56 79.34 79.57 79.68 80.04 80.03 79.87 66.47 63.23 66.19 76.87
66.78 68.10 68.98 69.71 70.62 71.10 72.48 73.18 73.21 73.55 75.52 78.21 77.77 78.48 78.06 78.67 78.86 78.90 79.11 78.64 78.95 79.59 79.61 79.51 79.55 80.00 80.16 80.11 80.01 64.93 62.80 66.11 76.33
65.34 67.18 69.16 70.33 71.65 72.36 72.66 73.45 74.05 73.81 72.76 76.35 77.51 78.12 78.26 79.50 79.43 79.62 79.16 79.54 79.91 80.10 79.91 79.59 78.79 79.23 80.47 76.19 80.61 66.00 61.56 66.10 76.14
62.65 64.58 67.68 69.68 72.67 73.00 73.95 75.16 74.70 74.82 73.91 75.22 77.71 79.00 79.54 80.04 79.95 80.04 80.36 80.67 80.67 80.39 80.02 78.90 79.71 79.44 80.02 80.56 78.87 79.23 60.57 59.56 76.99
58.15 61.39 61.79 65.55 71.80 74.55 75.22 75.66 75.59 76.50 75.70 76.41 79.19 79.20 79.27 79.60 80.20 78.86 79.01 80.42 80.44 80.50 79.96 79.63 80.16 79.64 79.56 78.77 80.86 68.85 61.40 58.39 61.81
56.96 58.18 58.50 61.97 67.86 75.25 76.12 76.11 75.57 76.38 76.31 79.50 79.55 79.43 79.28 79.44 79.90 79.90 80.18 79.80 79.92 78.43 79.60 77.16 77.08 76.85 76.15 76.52 77.50 78.83 61.93 57.76 58.57
57.00 57.54 57.88 60.05 63.56 67.06 71.72 73.58 75.04 77.49 78.30 79.87 79.69 79.18 79.05 79.36 78.98 78.69 79.48 78.67 78.46 77.33 76.85 76.37 76.23 76.07 75.85 76.00 76.07 76.14 77.61 73.63 67.41
57.44 58.11 58.38 59.12 59.74 61.40 63.43 66.25 68.18 70.77 73.90 78.51 77.09 78.26 77.91 77.95 77.40 77.12 78.27 78.44 77.64 77.26 79.15 74.06 77.03 76.27 75.96 74.87 75.83 76.33 72.20 73.37 77.67
58.27 57.51 58.58 57.98 58.07 59.14 60.13 61.31 61.99 65.02 67.91 73.92 76.42 75.43 76.06 76.14 76.49 77.04 77.09 77.05 74.66 51.03 55.72 52.53 53.62 53.56 64.84 75.67 60.05 58.53 53.69 54.52 58.45
56.93 57.76 57.32 58.10 58.12 58.66 59.73 61.01 61.17 62.49 65.01 67.59 75.52 75.78 75.93 76.91 74.34 76.81 77.48 77.34 75.74 74.20 64.22 50.12 49.81 50.17 53.44 54.34 54.03 54.71 54.34 51.62 50.17

GFSFLT1_sfc_wetblb_060.txt.gz
Wetbulb
67.78 69.62 70.09 70.60 71.15 71.50 71.47 71.99 72.30 73.16 73.86 73.84 74.82 75.89 73.96 74.85 76.79 74.67 74.79 77.35 75.30 77.24 75.07 75.21 77.63 78.72 78.11 78.79 78.98 78.87 78.81 78.48 78.05
65.01 64.14 66.33 70.64 71.47 71.71 72.21 72.39 72.35 73.36 74.04 74.46 75.24 74.79 75.50 73.83 75.52 75.55 73.98 76.96 78.16 76.46 77.76 77.39 77.74 78.33 79.03 78.55 78.93 78.79 78.44 76.90 77.04
63.91 64.88 64.18 67.51 71.72 71.83 72.88 73.12 73.71 73.71 75.02 74.88 75.67 75.76 75.84 75.18 73.43 75.57 75.68 74.57 77.41 76.18 78.03 77.72 77.77 78.33 78.11 78.44 79.08 79.41 78.94 77.54 77.96
63.26 64.36 66.12 66.92 68.84 72.48 72.66 73.55 73.95 73.83 73.96 75.56 75.99 76.35 75.79 75.65 75.01 74.49 74.38 75.35 74.08 77.01 76.51 80.36 78.92 79.79 78.58 78.02 77.99 79.21 78.77 77.81 78.24
66.98 67.01 66.74 66.31 65.20 67.20 72.65 72.76 73.50 74.18 74.09 74.65 75.85 76.47 76.21 75.90 75.93 74.96 74.65 73.25 76.15 76.91 77.43 77.74 79.44 78.60 79.70 77.99 77.91 78.17 77.93 77.40 75.76
67.39 65.20 65.31 65.06 66.23 68.69 72.36 72.66 73.36 73.80 74.32 74.47 76.04 76.52 76.02 76.05 75.84 75.74 74.91 74.19 74.22 76.68 76.82 78.37 77.62 78.72 77.62 78.02 77.46 77.24 77.57 77.89 77.05
63.05 67.15 66.45 67.07 68.92 71.71 73.30 73.30 73.50 73.81 74.08 74.86 75.06 75.98 75.81 75.32 75.51 75.69 75.62 76.01 74.21 76.51 77.18 76.51 77.26 77.63 78.14 77.99 77.40 76.91 76.93 77.93 77.59
63.29 63.97 66.95 66.74 69.78 70.96 72.90 73.97 74.19 74.61 74.88 74.55 75.11 75.00 74.99 75.37 76.13 76.13 76.15 75.60 75.76 74.54 76.18 76.96 77.51 77.50 78.02 78.04 77.74 77.10 76.18 76.82 77.37
64.20 65.05 64.34 67.96 69.72 71.50 71.60 74.61 74.86 75.00 74.94 75.23 75.46 74.68 74.83 75.48 76.28 76.01 76.13 75.68 76.12 76.32 76.06 76.67 77.29 77.48 77.44 77.64 77.75 70.98 68.84 74.21 75.96
62.52 67.07 67.38 68.49 70.04 71.11 67.85 67.42 70.93 75.52 75.75 76.02 75.63 75.43 75.47 75.46 76.25 76.12 75.78 76.60 75.78 76.67 76.00 77.00 76.89 77.08 77.55 77.41 77.90 67.57 66.30 68.98 75.90
60.86 65.75 68.03 69.11 68.82 70.19 70.95 68.36 68.99 76.38 76.86 76.46 76.54 75.46 76.13 75.90 75.84 75.85 76.29 76.14 76.49 76.05 77.08 76.63 76.87 77.00 77.34 77.64 77.91 68.01 63.88 66.41 74.41
62.18 61.02 64.64 69.05 69.79 70.52 72.54 72.98 73.35 74.80 76.56 76.16 75.75 76.60 75.65 76.76 75.94 76.06 76.13 76.01 76.06 76.47 76.47 76.81 76.85 77.36 77.42 77.42 77.66 65.95 64.74 64.94 72.77
61.21 62.01 64.50 67.28 69.23 70.41 71.74 72.79 73.62 73.31 73.71 76.91 75.43 75.33 77.14 76.88 76.92 76.37 76.35 76.30 76.46 76.80 77.01 76.84 77.26 77.16 77.68 74.46 77.70 66.49 62.93 64.98 74.61
59.36 60.35 62.33 64.05 65.76 68.65 71.44 74.99 74.64 73.12 73.45 73.51 77.39 77.16 76.83 78.24 78.25 76.75 77.69 77.23 77.49 77.43 77.21 77.18 77.35 77.27 77.62 78.25 77.07 77.15 60.95 59.30 74.98
57.15 58.57 59.03 60.77 62.70 67.51 73.63 76.36 76.15 74.04 73.85 74.69 76.98 78.37 77.38 77.85 77.94 78.03 77.88 77.99 78.07 77.83 77.51 77.09 77.16 76.96 77.29 78.01 79.08 68.87 61.93 58.33 61.64
56.81 57.87 58.42 59.32 60.58 63.66 65.88 69.01 73.22 75.49 76.21 76.98 76.55 79.26 77.37 77.99 78.52 78.36 77.83 77.95 77.56 77.58 77.77 77.02 76.66 76.68 76.58 77.09 78.04 78.72 63.19 58.57 58.20
54.39 57.98 58.22 58.17 59.15 58.88 60.95 63.37 67.04 70.30 72.00 77.26 77.82 76.04 77.88 78.05 78.28 77.60 77.85 78.43 78.24 77.69 77.34 76.96 76.82 76.07 76.62 76.67 77.25 77.78 78.44 70.27 65.17
54.51 57.46 58.02 58.96 58.58 57.50 57.90 60.27 64.21 65.91 67.99 70.80 76.46 77.78 77.91 77.79 77.87 76.85 77.68 77.45 77.88 77.74 78.21 76.37 76.76 77.03 76.58 76.44 75.96 75.74 70.02 72.17 74.00
56.47 56.85 57.29 58.52 57.68 57.20 57.84 58.98 60.15 62.60 64.89 66.15 71.01 78.02 77.78 77.00 77.11 77.18 77.34 76.46 73.27 53.42 58.79 54.42 57.01 58.68 71.82 71.86 59.04 53.01 51.41 51.74 58.25
55.32 55.56 55.95 56.77 57.87 57.41 57.88 58.04 57.88 60.09 62.73 63.74 66.65 71.32 77.64 76.73 73.99 76.24 76.24 76.06 74.99 72.57 62.68 49.20 47.75 50.11 55.00 59.68 56.70 53.73 51.02 49.38 51.20

GFSFLT1_sfc_wetblb_063.txt.gz
Wetbulb
64.32 64.30 64.03 67.94 67.72 67.83 68.09 69.22 69.49 70.27 70.26 71.13 71.79 70.99 70.74 71.54 72.97 70.97 71.38 72.16 72.06 73.23 73.55 73.53 73.66 74.69 74.35 74.20 75.04 74.07 74.17 73.28 73.66
62.28 66.28 66.15 67.04 68.36 68.48 68.26 68.93 69.39 70.26 70.46 70.44 71.90 71.82 70.29 71.07 72.70 71.27 70.54 71.09 72.60 72.13 72.57 73.47 74.20 75.71 74.61 74.62 74.74 74.49 73.91 72.97 73.70
64.20 65.51 66.82 66.83 66.91 68.54 68.90 69.50 70.02 70.45 71.34 70.91 72.01 72.27 71.72 70.43 71.51 72.70 70.80 70.68 72.14 72.01 71.06 73.13 74.15 75.64 74.76 75.32 74.75 74.05 73.82 72.14 73.39
64.39 62.91 64.61 66.33 67.36 66.45 66.94 67.84 70.02 70.56 71.45 71.18 71.61 71.86 72.87 71.20 70.24 72.15 72.07 71.10 70.17 72.41 71.60 73.60 75.34 74.99 75.02 75.07 74.77 74.81 74.51 72.71 73.64
64.79 62.79 64.09 66.11 66.25 65.17 65.40 64.51 69.99 70.22 71.38 71.76 72.25 72.74 72.34 72.87 71.33 70.45 71.96 71.05 71.06 70.59 71.79 72.51 74.82 75.41 75.25 74.40 73.87 74.79 74.18 73.28 73.15
64.53 64.42 65.38 64.99 65.02 65.88 66.41 65.59 66.28 70.88 70.99 72.48 73.06 73.39 72.68 72.92 72.66 70.62 70.52 70.82 70.98 70.06 73.18 71.41 74.72 74.57 74.69 74.54 74.50 73.90 74.23 74.31 73.74
63.43 63.65 64.30 64.14 64.09 63.17 63.84 65.75 66.55 70.70 71.16 71.96 73.53 73.67 73.73 72.86 72.72 72.84 70.77 71.00 70.27 72.02 72.29 74.64 72.96 74.90 74.34 74.64 73.88 73.78 73.95 74.30 74.40
62.48 63.27 64.57 64.14 63.94 63.52 67.05 66.80 68.20 70.54 71.72 71.78 72.76 73.77 73.66 73.45 73.57 73.50 73.26 71.88 71.28 69.65 73.11 72.68 74.55 73.73 74.82 74.73 74.97 74.72 73.25 74.05 74.67
60.11 62.18 61.18 64.50 65.49 64.71 67.28 66.35 66.17 70.08 71.50 72.15 72.32 72.97 73.47 74.00 73.53 73.73 73.47 73.06 72.79 70.94 70.33 73.89 72.82 73.55 73.92 74.66 75.60 70.61 69.17 72.32 73.97
60.08 60.23 60.77 61.81 65.25 65.46 66.02 67.27 69.53 68.46 70.11 72.11 72.38 72.15 73.23 73.49 73.47 73.45 73.29 73.46 72.94 72.78 70.57 71.92 73.82 73.74 74.08 74.22 75.27 67.91 67.14 69.00 73.36
58.25 59.54 60.56 61.88 63.42 63.80 65.89 66.96 68.48 69.54 69.19 69.22 70.00 71.59 71.99 73.10 73.31 73.21 73.71 73.43 73.15 72.73 73.24 71.55 71.99 73.37 74.35 74.66 75.11 67.42 65.34 67.31 72.47
56.51 57.49 59.63 60.75 61.86 63.06 64.39 67.12 66.61 68.24 68.26 68.52 68.59 71.23 72.19 72.83 73.22 73.46 73.68 72.92 73.32 73.14 73.61 73.52 73.02 74.06 74.28 74.50 75.05 65.57 64.42 64.72 69.90
55.96 57.83 59.02 58.38 60.21 62.33 63.65 66.59 69.07 68.81 67.60 68.89 68.76 72.59 73.23 73.50 73.51 73.64 73.41 73.75 73.23 74.19 73.59 73.56 74.46 73.83 74.77 72.39 74.94 65.95 63.30 64.09 71.85
56.12 57.12 57.84 59.09 60.07 59.86 62.65 66.18 66.75 71.51 69.72 70.12 70.88 74.03 73.86 74.04 74.05 73.60 74.16 74.08 74.41 74.00 74.24 74.08 73.71 74.32 74.56 75.05 74.26 74.36 61.58 60.45 73.68
53.94 55.17 57.82 58.41 57.94 59.48 61.50 63.23 63.65 65.18 68.21 69.97 71.87 72.97 73.37 74.10 74.74 74.05 74.62 74.16 74.16 74.24 73.91 73.69 73.45 73.61 74.20 74.97 75.69 67.30 63.08 59.61 60.92
53.48 55.33 57.17 57.44 57.47 58.21 59.26 59.90 60.49 62.31 63.62 65.41 67.15 71.68 73.83 73.08 74.87 74.97 74.59 74.34 74.05 73.89 74.14 73.76 73.47 73.58 73.54 74.22 75.37 76.09 63.25 59.42 58.70
53.41 54.96 56.75 57.68 56.57 56.70 57.10 58.57 59.20 59.92 61.70 63.01 63.92 68.36 72.65 74.74 74.55 74.66 74.74 75.63 75.02 74.58 74.13 74.07 73.77 73.86 73.71 74.36 74.75 75.48 76.24 68.91 64.12
53.40 53.16 56.88 57.08 57.31 56.77 56.83 57.78 58.06 58.75 59.28 61.57 62.11 65.41 72.82 74.37 74.76 73.56 75.16 75.20 75.78 75.42 75.94 74.27 74.67 74.69 74.83 74.01 74.39 74.87 71.41 71.34 71.97
53.77 55.60 55.87 55.44 56.93 56.69 56.34 57.15 56.67 57.22 57.67 58.90 60.58 62.39 69.43 74.03 74.85 75.05 75.33 74.65 68.91 52.32 56.09 58.04 59.52 61.35 71.22 74.68 61.95 64.09 59.26 56.87 58.44
54.66 55.48 54.05 54.64 55.74 55.48 55.28 56.01 54.51 55.01 56.31 57.83 59.46 60.31 63.54 66.81 72.51 74.98 74.67 74.70 73.81 70.59 61.39 49.06 46.70 48.70 58.26 57.53 60.44 50.51 52.50 49.51 54.32

GFSFLT1_sfc_wetblb_066.txt.gz
Wetbulb
63.78 64.51 64.70 66.17 65.89 65.99 66.99 67.28 67.68 69.86 70.02 69.43 69.62 69.96 69.58 70.89 70.00 69.41 70.07 70.87 71.51 72.12 72.89 73.08 73.24 73.25 73.12 73.28 72.42 72.89 72.64 71.46 71.95
63.14 64.59 63.99 66.75 66.39 66.79 67.41 67.61 67.55 68.41 70.24 69.75 69.68 69.59 69.71 69.70 71.24 70.58 69.44 70.77 71.13 72.06 72.36 72.45 72.94 73.43 72.97 73.12 73.59 72.22 72.30 71.85 71.77
62.57 63.74 65.70 67.25 66.73 66.77 67.31 68.48 68.38 68.67 69.73 70.20 70.46 69.95 69.55 69.69 70.23 71.40 69.46 70.19 69.95 71.44 71.15 71.94 72.32 74.05 73.30 72.82 73.17 72.91 72.00 71.24 71.82
61.42 64.20 65.30 66.19 66.78 67.37 67.18 68.51 69.04 68.85 68.84 69.43 70.63 70.98 70.37 69.23 69.64 70.36 70.80 69.44 69.73 70.71 70.28 71.74 71.84 73.95 73.40 73.10 73.16 72.19 72.44 70.99 70.94
62.62 64.97 65.48 66.31 67.02 66.90 66.71 66.81 68.61 68.80 69.57 69.38 69.68 71.24 70.94 69.98 69.01 69.77 70.61 70.72 69.53 69.65 70.30 71.65 72.95 73.77 73.87 73.43 73.47 73.15 72.67 71.65 72.12
62.86 63.42 62.73 62.30 63.65 65.45 66.85 66.86 67.88 68.75 69.58 70.01 70.39 70.94 70.95 70.98 69.65 68.77 69.35 70.80 70.32 69.20 69.60 70.45 73.51 73.63 73.80 73.77 73.68 73.49 73.53 73.32 72.15
62.00 63.78 64.36 63.84 64.58 65.46 65.68 65.19 64.70 66.06 69.27 70.82 70.87 70.77 70.80 70.92 71.26 69.91 68.79 69.90 70.77 69.84 68.97 69.64 72.01 73.63 73.70 73.49 73.74 73.72 73.87 73.68 72.67
60.75 60.81 62.72 63.79 64.53 65.23 65.39 65.82 65.87 66.04 68.01 70.45 71.50 70.79 70.97 70.54 71.80 72.18 70.72 68.79 69.55 69.75 70.00 70.51 70.62 72.37 73.42 73.87 73.62 73.56 72.78 73.10 72.83
57.92 59.41 60.85 61.74 62.21 62.85 64.18 65.55 66.76 67.30 68.27 69.25 71.92 71.41 71.19 71.97 71.43 72.18 72.01 70.94 68.91 69.30 68.71 70.40 70.88 71.93 72.73 72.81 74.28 69.05 68.35 71.88 72.98
55.19 57.86 60.83 61.41 61.24 61.77 62.70 65.52 66.37 67.29 67.30 68.75 70.37 71.89 72.25 72.36 72.66 71.94 72.02 72.32 71.14 69.87 69.24 68.49 70.51 71.03 72.61 73.04 73.65 66.56 66.38 68.61 72.63
54.64 56.31 57.17 58.10 60.09 61.73 63.35 65.19 68.00 68.46 69.69 69.52 68.89 69.57 72.25 72.99 73.01 72.63 72.63 72.26 71.98 71.33 71.05 69.05 68.73 71.33 71.11 72.45 73.43 66.41 64.79 66.89 72.26
54.52 56.23 57.94 58.66 59.94 61.30 62.64 65.12 66.54 69.30 69.10 66.28 65.87 67.32 69.04 70.98 73.14 72.80 72.74 72.25 72.32 72.41 71.98 71.31 69.47 70.77 72.67 71.92 72.12 64.17 63.74 65.34 71.79
53.65 56.44 58.07 57.70 58.80 60.80 62.12 63.31 64.02 66.75 67.89 66.84 65.21 67.76 68.89 70.34 71.96 72.75 72.64 72.87 72.65 73.00 72.75 72.46 72.22 71.09 71.14 70.33 73.39 64.92 62.49 64.20 72.74
53.12 55.17 57.51 58.23 57.63 59.28 59.97 61.55 61.26 63.48 65.05 66.61 67.10 68.24 70.29 71.60 72.30 72.57 73.29 73.08 73.35 73.18 72.89 72.54 72.43 72.18 72.10 72.16 71.75 72.52 61.26 60.67 73.18
49.82 54.07 56.49 57.22 56.03 56.32 59.41 59.80 59.35 60.12 61.43 62.16 64.11 64.39 66.32 68.75 72.46 73.06 73.29 73.17 73.29 73.10 72.78 72.22 71.77 72.01 72.62 73.04 73.76 66.37 62.63 59.59 61.43
49.10 52.53 54.68 56.97 55.89 55.27 56.50 58.31 58.39 58.30 58.88 60.29 61.31 62.80 64.50 66.30 70.80 73.10 73.03 72.68 72.61 72.57 72.43 72.26 72.07 71.51 71.44 72.61 73.97 74.30 62.29 59.34 59.11
48.31 50.82 52.23 56.10 55.71 56.62 56.42 57.00 57.72 57.92 57.85 58.44 58.83 60.11 61.80 64.27 67.68 72.77 73.42 73.43 73.26 72.87 72.60 71.98 72.08 72.06 71.95 72.33 73.05 74.05 74.77 69.78 65.05
48.90 50.69 51.84 54.58 54.42 54.46 55.57 56.02 56.84 56.44 56.41 57.09 57.03 58.90 60.54 62.80 68.36 72.64 73.68 73.61 73.45 73.07 73.69 72.56 72.60 72.69 72.89 72.47 72.20 72.96 69.29 70.27 72.79
49.46 50.85 52.37 52.48 55.27 54.13 53.03 53.36 54.21 54.17 53.81 54.38 54.87 57.55 59.17 61.34 62.85 66.58 73.25 73.82 69.56 53.20 55.15 57.60 57.32 58.97 68.65 73.29 65.67 60.98 57.89 55.92 56.10
50.96 51.93 53.30 50.77 53.22 51.62 49.87 50.59 51.46 51.91 52.41 53.06 53.96 55.88 57.31 58.83 59.07 64.41 71.75 73.04 72.66 70.80 60.45 49.01 50.66 52.29 55.54 56.99 64.09 53.02 52.84 53.74 52.29

GFSFLT1_sfc_wetblb_069.txt.gz
Wetbulb
65.45 64.91 65.46 66.04 64.90 65.58 66.04 66.32 66.63 68.65 68.47 68.04 68.64 68.98 68.98 68.15 68.13 69.27 69.23 69.37 68.93 70.43 71.26 72.31 72.19 72.04 71.80 71.75 71.17 71.49 71.09 70.96 71.20
63.80 64.24 64.90 66.18 65.22 65.38 66.20 66.67 66.76 68.12 68.56 68.43 68.63 69.12 69.15 69.33 68.66 68.23 68.80 70.03 69.48 70.73 71.06 72.42 72.02 72.78 71.95 72.29 71.93 71.51 71.29 70.89 70.27
63.03 64.54 63.95 65.03 65.84 65.32 66.46 66.90 67.46 68.43 69.11 68.66 68.90 69.16 69.40 69.20 70.07 70.29 68.71 69.02 70.20 70.08 70.61 71.07 71.71 72.72 71.63 72.02 72.42 72.07 70.90 70.64 70.83
60.72 62.36 63.68 64.54 65.93 66.01 66.56 67.30 67.20 67.50 68.82 68.76 68.80 68.91 69.23 68.99 68.71 69.29 69.74 68.97 69.31 70.37 70.82 70.89 70.92 72.42 72.44 71.99 71.91 72.17 71.18 70.47 70.51
61.06 63.11 64.02 65.31 65.77 65.65 65.78 66.34 66.95 66.71 67.88 68.94 69.00 69.24 69.06 68.67 68.57 68.62 69.69 69.59 68.88 68.75 69.42 69.99 71.05 71.26 72.62 72.30 72.19 71.70 71.35 71.04 71.20
61.73 62.84 62.62 62.97 64.47 64.84 65.43 65.52 66.36 66.72 67.14 68.18 69.41 69.68 69.31 68.76 68.39 67.98 68.38 69.39 69.71 68.40 68.60 69.24 70.72 71.51 72.23 72.38 72.50 72.25 71.87 71.73 71.08
59.49 60.85 62.44 63.47 63.85 64.13 64.18 65.61 65.74 65.37 67.65 68.40 68.46 69.56 69.78 69.17 68.63 68.11 68.45 68.69 69.14 69.78 68.31 68.76 69.51 72.10 72.37 72.92 72.64 72.76 72.54 72.37 71.85
58.02 59.11 59.85 60.38 60.68 62.00 64.31 65.20 65.08 65.19 66.13 68.76 69.28 68.70 69.20 69.42 69.89 69.48 68.59 68.09 68.59 69.03 69.22 69.04 68.77 70.28 72.48 72.66 72.92 73.31 72.50 72.54 72.39
54.87 56.08 57.24 58.66 60.69 61.68 62.49 63.50 65.84 66.51 67.13 67.10 69.78 69.34 68.92 69.91 70.16 70.29 69.34 68.13 67.54 67.92 68.72 68.74 68.29 68.84 70.08 72.04 73.39 68.85 67.80 71.62 72.49
53.02 55.28 56.23 57.16 58.39 60.75 62.15 63.39 65.97 66.50 67.58 67.71 68.18 69.72 69.74 69.91 69.86 70.21 70.72 70.03 68.27 67.32 67.63 68.23 67.73 68.68 69.51 70.16 71.88 66.41 66.14 68.13 72.48
51.84 54.90 55.62 56.71 58.08 59.13 61.18 63.58 64.84 65.62 67.83 68.06 68.35 68.95 70.23 70.47 70.75 69.78 70.39 71.16 70.24 68.71 68.05 67.83 67.43 67.48 68.03 69.98 70.85 65.51 64.58 66.55 71.46
48.79 53.03 55.87 56.79 57.89 59.11 61.16 62.39 62.36 65.19 68.50 67.54 65.15 66.71 67.89 69.99 71.31 71.36 70.84 70.57 70.87 71.09 69.91 68.95 68.68 68.30 67.93 68.40 69.54 63.74 63.50 64.75 70.79
47.57 49.64 54.28 57.17 57.18 58.69 59.31 59.37 60.44 63.00 64.51 64.51 64.37 66.26 67.90 69.19 68.59 72.01 71.87 71.85 71.56 71.90 71.60 70.98 70.56 69.83 69.03 66.99 69.73 62.51 61.83 64.24 71.85
46.94 48.60 51.13 56.83 57.36 57.33 57.45 59.55 59.86 60.26 61.46 60.54 62.13 64.43 64.60 66.06 68.71 69.47 70.24 72.52 72.82 72.56 72.04 71.94 71.36 71.11 70.73 69.70 69.49 70.52 59.28 60.03 71.95
46.18 47.25 49.39 55.08 55.91 57.28 57.25 58.66 58.16 57.91 58.07 59.92 61.58 62.43 63.66 64.89 66.26 69.27 71.45 71.31 72.22 72.64 72.32 71.44 71.21 71.18 71.11 71.52 70.94 63.63 61.17 58.85 60.80
47.06 48.01 48.78 52.62 55.34 56.45 56.99 57.48 57.41 55.91 57.17 57.69 58.58 60.21 61.26 62.35 63.63 65.71 69.51 71.58 71.14 71.50 72.04 71.69 71.13 70.95 70.65 71.09 72.09 71.86 60.54 58.29 58.54
46.47 47.71 48.55 51.11 53.83 54.25 55.95 56.01 56.46 55.63 56.33 55.62 55.74 57.43 59.73 61.09 62.01 62.28 66.37 71.16 72.18 71.54 71.48 71.44 71.20 71.01 70.62 70.61 71.75 72.54 72.91 67.65 63.09
45.90 47.20 48.96 50.79 52.19 55.06 55.72 54.17 54.88 54.86 54.62 54.10 53.31 54.25 57.85 59.32 60.13 60.81 62.21 65.33 72.05 72.08 72.57 71.41 71.61 71.80 71.76 71.03 70.50 71.37 68.51 69.36 71.36
45.92 46.70 49.27 51.20 53.46 54.39 52.75 50.04 50.58 51.55 51.20 51.42 51.89 52.69 54.85 56.59 57.82 59.14 60.60 63.48 66.64 57.34 56.83 55.49 55.89 56.49 66.36 72.19 64.34 58.97 55.81 54.27 53.91
49.03 49.16 49.79 52.89 53.98 52.23 50.92 47.74 47.98 48.95 48.88 49.82 49.96 51.15 53.36 54.38 54.25 57.57 59.86 60.77 62.64 68.17 63.89 51.74 50.47 49.20 52.82 53.84 62.38 52.64 51.92 51.56 51.56

GFSFLT1_sfc_wetblb_072.txt.gz
Wetbulb
64.55 64.80 65.71 66.17 64.56 65.22 65.81 66.29 66.73 67.45 67.42 67.58 68.12 69.20 68.77 68.97 69.70 69.86 69.88 69.74 69.83 70.45 71.35 72.28 73.72 73.42 73.27 73.64 72.64 72.62 72.98 72.35 73.01
62.13 64.72 65.37 65.61 64.43 65.61 65.80 66.22 66.26 67.32 67.51 67.85 68.04 68.87 69.27 68.41 68.67 69.24 69.71 70.53 70.74 70.90 72.14 72.93 73.76 73.89 73.42 73.42 73.14 72.93 72.87 72.37 72.61
60.06 64.12 64.28 65.15 65.24 65.08 66.14 66.49 66.49 67.72 68.51 68.03 68.31 68.80 69.19 69.25 68.74 68.96 69.48 70.49 70.68 71.04 71.90 72.59 73.51 73.59 73.63 73.47 73.30 73.63 73.24 72.84 72.90
60.90 61.12 64.12 64.41 65.78 65.02 66.17 66.87 66.75 66.81 68.29 68.34 68.25 68.94 69.29 69.34 69.47 69.51 69.19 69.46 70.70 71.40 71.97 72.25 72.59 73.58 73.83 73.28 72.93 73.38 72.30 72.51 72.90
60.57 62.34 63.21 64.72 65.73 65.26 65.54 65.63 66.23 66.61 67.65 68.41 68.69 68.86 69.12 68.99 69.13 70.05 70.15 69.38 69.93 70.93 71.50 72.03 72.49 72.77 73.68 73.75 73.52 73.35 73.45 72.95 73.07
58.67 59.93 61.24 63.09 64.34 65.11 65.86 66.23 66.45 66.40 67.27 68.48 69.01 68.87 69.12 68.94 68.56 68.35 69.45 70.18 70.19 70.29 70.65 71.05 71.74 72.54 72.61 73.43 73.67 73.43 73.49 73.42 73.22
56.41 57.63 59.01 60.05 60.92 62.39 64.87 66.33 67.06 67.36 67.04 67.87 69.00 69.08 68.87 68.51 68.53 68.56 68.85 69.62 70.19 69.92 70.47 70.63 70.62 71.72 72.36 73.25 73.73 73.63 73.71 73.28 73.28
54.48 55.82 56.85 58.34 59.73 61.45 62.92 64.42 66.35 67.10 67.30 67.85 68.44 69.04 69.16 68.94 69.24 69.31 69.22 69.21 69.33 70.47 70.39 70.35 70.67 70.96 72.19 73.24 73.74 73.57 73.60 73.63 73.31
51.29 53.74 55.87 57.12 58.59 59.91 61.07 63.43 65.21 66.91 67.54 67.80 68.84 68.53 68.55 69.99 70.22 69.82 69.15 68.83 68.87 69.08 69.99 70.22 69.99 70.01 71.09 72.28 72.92 68.73 67.85 72.13 73.44
47.45 49.39 53.12 55.84 56.96 58.03 59.88 61.48 63.74 63.86 65.93 68.23 68.22 69.08 68.96 69.07 70.13 70.01 70.01 69.61 68.84 68.32 68.52 69.52 69.74 69.47 70.04 70.53 72.33 65.97 66.31 68.05 73.80
45.17 46.61 48.39 52.01 56.28 57.34 58.91 61.37 61.46 62.10 66.71 68.97 68.13 68.12 69.25 69.63 69.74 69.90 70.57 70.65 69.61 68.67 68.53 68.22 68.52 69.04 69.61 69.80 70.49 64.58 64.13 66.71 72.70
45.46 46.41 47.67 49.88 53.68 57.69 58.91 59.68 60.40 61.05 64.59 65.10 65.98 66.20 67.43 69.62 70.31 70.04 70.35 70.28 70.84 70.62 69.51 68.71 68.38 68.95 68.66 69.11 69.82 62.27 62.42 65.02 71.81
45.71 46.14 47.38 48.87 51.03 56.03 57.65 58.04 59.75 59.52 61.96 62.36 62.17 63.50 64.68 65.60 67.29 70.61 71.28 70.62 70.73 71.21 71.54 70.65 69.96 69.60 69.58 66.62 68.65 61.99 60.31 63.26 71.11
45.50 45.98 47.04 49.47 50.68 53.29 56.72 58.44 58.90 57.74 59.27 59.56 60.58 62.54 64.05 64.99 65.91 67.59 70.33 71.60 72.10 71.63 71.56 71.59 71.71 70.74 70.93 70.58 68.49 68.94 58.76 59.18 70.70
44.09 44.52 46.59 49.36 49.24 50.79 54.96 58.05 58.28 57.24 57.10 59.49 59.58 60.27 61.40 63.96 65.19 65.42 67.54 68.33 69.93 72.19 72.52 71.78 71.70 71.66 71.44 71.79 71.27 62.92 59.88 57.46 60.22
43.26 44.14 46.71 48.59 48.61 50.06 53.12 56.55 57.32 56.24 57.03 57.58 56.83 57.84 59.21 60.80 63.40 64.32 65.77 66.64 67.79 70.46 71.89 72.07 71.68 71.59 71.31 71.66 72.73 72.19 59.46 57.18 57.18
42.57 43.89 45.86 47.16 47.30 48.86 51.33 55.00 57.33 55.71 56.42 56.04 54.70 55.11 56.56 59.02 60.56 61.69 63.15 65.06 65.83 67.79 71.44 71.52 71.64 71.64 71.48 71.89 72.41 72.68 73.03 67.18 63.15
43.08 44.96 45.87 47.08 47.03 47.75 50.41 55.03 55.14 54.15 53.92 52.75 51.52 53.07 54.40 56.81 59.23 59.11 59.59 61.60 63.18 64.95 67.92 70.08 71.90 72.18 72.38 71.92 71.41 71.96 67.79 67.90 70.54
45.74 45.38 46.29 46.61 47.06 48.38 50.41 54.33 54.07 51.96 51.84 50.46 50.14 50.24 52.26 54.67 55.73 56.57 57.06 59.33 61.11 56.29 54.86 52.94 52.22 54.39 66.00 72.47 64.14 58.62 54.17 53.30 52.40
46.02 46.87 47.89 49.16 49.28 50.01 51.60 52.76 51.06 50.00 49.39 48.70 48.62 48.95 50.46 52.99 52.51 53.88 56.15 58.62 58.68 58.95 60.09 54.21 51.31 48.95 50.58 50.58 58.68 53.12 50.22 50.40 52.03

GFSFLT1_sfc_wetblb_075.txt.gz
Wetbulb
65.45 68.02 69.29 69.06 68.54 68.85 69.59 69.98 70.88 71.05 71.59 72.92 72.90 73.10 74.26 74.89 75.12 73.89 74.12 75.22 74.53 74.76 74.75 75.50 77.24 77.50 77.39 77.54 77.14 76.72 76.59 75.89 75.75
63.56 66.74 67.67 69.36 69.79 69.32 69.77 70.14 70.88 71.43 72.00 72.43 72.61 72.91 73.98 74.34 74.77 74.62 74.32 75.25 75.53 74.87 76.21 75.52 76.76 77.19 77.45 77.39 77.33 77.12 77.00 75.46 76.76
61.21 64.22 67.48 69.07 70.31 69.27 70.19 70.55 70.94 71.49 72.08 72.44 73.31 73.32 73.48 73.51 73.53 74.15 74.97 75.22 75.45 75.67 75.99 76.61 76.47 77.00 77.31 77.53 77.53 77.40 77.15 76.06 76.50
60.06 64.77 66.41 69.02 70.01 70.01 70.37 70.80 70.86 70.94 71.24 71.58 71.74 72.32 73.67 73.54 73.34 73.51 74.17 74.12 74.95 76.03 76.67 76.92 76.77 76.97 77.09 77.17 77.03 77.49 77.11 76.97 76.67
59.57 61.71 64.85 67.78 69.04 69.25 69.88 69.93 70.57 70.35 71.38 70.97 71.34 72.46 72.99 72.12 73.43 73.54 73.12 73.31 74.06 75.28 75.82 76.70 76.83 77.19 77.10 77.09 77.25 77.27 76.84 76.30 76.01
57.19 59.38 61.23 62.74 64.60 66.42 68.52 69.35 70.18 70.24 70.54 71.01 71.69 71.91 71.18 70.35 71.02 72.33 73.23 73.65 73.95 74.45 74.86 75.94 75.94 76.61 76.73 76.94 77.09 77.02 77.16 77.22 76.80
56.00 56.99 57.83 59.23 60.60 62.45 64.38 66.80 69.28 70.19 70.46 71.12 71.78 71.95 71.84 71.01 70.19 70.31 72.74 74.56 74.67 74.28 74.63 75.08 75.31 75.81 76.25 76.67 77.28 77.28 77.28 77.03 77.00
54.12 53.85 55.67 57.06 57.62 59.11 61.50 63.52 65.35 68.09 70.05 70.57 71.11 71.92 71.67 71.91 73.02 71.93 71.07 73.16 74.80 74.64 74.58 74.45 74.92 75.17 75.31 75.91 75.89 75.87 76.69 77.03 76.89
51.21 51.71 52.81 54.86 57.06 58.56 58.41 60.74 62.45 63.48 65.88 69.09 70.15 70.09 71.61 73.22 73.68 74.05 73.76 74.31 74.37 74.45 74.22 74.27 74.46 74.11 74.70 74.95 74.32 68.46 67.70 73.68 76.41
48.13 49.22 51.09 52.90 54.45 56.71 59.20 59.80 61.41 60.91 62.62 67.44 70.07 70.51 70.82 72.08 73.32 73.07 73.75 73.53 73.80 73.85 73.97 74.33 73.86 73.61 73.86 74.59 75.64 65.91 65.40 68.27 75.44
48.69 49.22 49.88 51.39 53.42 55.19 57.80 59.88 60.20 60.40 62.88 65.25 68.52 71.10 70.83 72.07 72.37 72.30 73.54 73.58 73.31 73.79 73.35 73.64 73.55 73.47 74.23 74.52 74.39 65.40 63.63 66.29 74.85
49.16 49.76 50.37 51.28 52.95 54.38 56.80 58.91 60.98 61.01 61.04 63.29 62.81 64.95 67.78 69.28 71.33 72.72 72.90 72.90 73.19 73.63 73.15 72.87 72.77 73.28 73.86 74.10 74.49 62.91 62.66 65.49 73.68
49.07 49.75 50.69 50.85 52.07 54.00 55.04 57.26 59.65 60.84 60.35 61.89 62.56 61.26 62.47 66.02 68.75 69.86 72.70 73.40 73.80 74.10 74.31 73.56 73.45 73.04 73.56 69.94 73.94 64.78 60.34 63.77 72.02
49.35 49.17 49.71 50.69 51.75 53.02 54.09 55.96 58.43 59.08 60.53 59.99 60.89 61.75 61.26 62.44 66.49 67.03 67.96 72.76 74.69 74.06 74.41 74.30 74.22 73.97 74.49 74.53 72.98 72.69 59.40 58.23 71.87
48.13 48.15 48.73 49.83 50.64 51.65 53.03 54.24 56.00 57.89 58.70 61.26 60.87 60.23 59.97 61.28 62.95 65.22 66.87 67.81 68.58 70.29 72.24 72.52 73.15 73.60 74.20 74.94 75.30 65.80 61.81 57.18 58.89
47.42 47.99 48.38 49.18 49.56 50.66 52.10 53.23 54.71 55.85 58.74 60.81 59.96 57.87 57.73 59.14 60.35 62.69 65.20 64.95 68.04 69.72 70.90 71.67 72.81 72.98 72.77 73.54 75.23 75.68 60.27 57.23 56.66
47.07 47.93 47.97 48.71 49.11 49.12 50.13 52.30 53.27 55.12 58.20 60.11 58.70 57.35 55.98 57.19 58.04 59.47 62.27 62.69 64.74 66.89 67.73 69.71 70.68 72.08 72.98 73.81 74.09 75.16 75.82 72.65 67.28
46.96 48.00 49.15 49.56 49.25 49.28 50.02 51.77 52.48 54.52 56.78 58.76 56.60 56.62 56.03 56.35 56.87 58.53 59.35 61.25 60.94 63.87 66.78 65.87 69.54 71.21 72.54 73.24 73.75 74.55 69.48 70.48 75.28
45.63 47.20 48.67 49.39 50.11 50.00 50.21 52.53 54.17 54.81 57.22 57.01 55.16 54.62 55.21 55.17 54.67 54.88 57.74 56.04 58.72 55.34 53.04 52.20 50.97 48.80 54.11 67.56 63.56 57.50 53.85 52.78 51.51
46.69 46.99 46.86 46.72 47.11 47.62 49.38 48.22 50.50 53.61 54.44 51.14 52.06 53.43 53.60 53.83 52.72 54.84 55.01 55.80 55.95 56.76 58.35 51.04 50.31 48.25 48.43 46.98 53.52 53.33 48.80 50.43 50.06

GFSFLT1_sfc_wetblb_078.txt.gz
Wetbulb
65.68 69.92 71.76 70.92 71.51 72.04 72.43 72.73 73.31 73.86 74.22 75.01 75.77 75.93 76.43 77.32 77.54 75.85 75.58 76.08 75.02 74.97 75.21 76.02 78.03 78.62 77.45 77.33 77.71 77.87 78.57 76.08 75.51
65.15 68.34 71.17 71.60 71.81 72.21 72.65 72.92 73.43 74.04 74.40 75.15 75.52 75.61 76.28 76.51 77.23 76.91 75.79 76.43 76.47 75.66 77.14 76.29 77.58 78.43 77.96 77.61 77.68 77.66 78.26 76.21 76.43
63.42 68.14 69.74 71.56 72.45 72.26 72.94 73.45 73.87 74.61 74.99 75.05 75.74 75.68 75.87 75.93 76.41 77.01 76.91 76.62 76.12 76.69 76.36 77.62 77.08 78.16 78.32 77.77 78.15 78.46 78.62 77.03 77.26
61.37 63.57 67.35 68.90 71.04 72.45 73.01 73.58 73.80 73.93 74.54 74.93 75.37 75.58 75.68 75.78 75.92 76.34 76.63 76.02 76.21 76.91 76.91 77.39 77.92 78.54 78.25 77.88 77.65 78.21 78.58 78.13 77.17
59.56 61.55 62.39 63.86 66.48 70.88 72.75 73.01 73.55 73.67 74.14 73.82 74.83 75.10 75.58 75.36 76.24 76.15 75.58 75.82 76.22 77.07 76.80 77.46 78.08 78.65 78.48 77.33 77.46 78.15 78.60 77.40 76.79
57.83 58.64 59.52 61.22 63.10 64.52 66.91 68.03 72.68 73.28 73.64 73.70 74.01 74.29 73.66 74.41 74.41 75.05 75.14 75.58 76.28 76.59 76.75 76.85 76.83 77.74 78.42 78.03 77.26 77.89 78.34 78.48 78.00
56.33 57.33 58.21 59.19 59.78 60.95 62.33 65.50 67.20 68.51 72.79 73.65 73.97 74.14 74.33 73.29 74.39 74.66 74.57 75.61 76.37 76.34 77.04 76.69 76.39 76.95 77.61 77.95 77.83 77.87 78.23 78.60 78.47
57.26 56.79 56.85 58.08 58.68 59.41 60.74 61.11 63.58 65.58 67.41 69.94 74.00 73.74 73.83 74.41 75.23 75.25 75.19 74.17 75.67 76.50 76.77 76.66 76.93 76.36 76.72 77.33 77.29 77.15 78.36 78.44 78.25
54.34 54.70 55.69 57.36 58.59 59.63 59.96 60.85 61.43 61.33 62.81 66.33 71.47 72.95 73.36 74.86 75.30 75.67 75.68 75.39 72.84 76.08 76.35 76.76 76.90 76.30 76.11 75.71 74.86 68.89 67.40 73.62 77.69
52.99 53.19 53.87 54.79 56.14 57.74 59.19 60.10 61.42 61.13 61.63 64.62 65.42 70.72 73.42 73.28 73.95 74.79 75.24 75.78 75.98 75.55 75.52 76.36 76.40 76.30 76.30 76.58 76.87 65.98 64.94 67.68 75.56
53.89 54.23 54.02 54.71 55.33 56.45 58.01 59.47 59.37 62.17 63.20 64.01 63.80 63.49 64.46 65.86 71.88 73.09 74.72 74.90 75.16 75.75 75.87 75.82 75.57 75.80 76.82 76.71 76.97 65.64 64.34 66.08 75.37
53.74 54.09 54.79 55.22 55.72 56.74 58.47 58.59 59.87 61.37 62.18 64.81 63.95 62.17 62.79 63.29 64.90 68.17 72.03 73.87 74.12 75.57 75.26 75.55 75.59 75.95 76.10 76.50 76.99 63.75 62.88 66.45 74.53
53.37 54.14 54.65 54.79 55.44 56.35 57.40 57.94 58.55 59.40 60.69 61.58 63.82 63.98 63.24 63.56 64.69 64.78 66.23 70.96 73.08 74.73 75.86 74.88 75.39 75.61 76.29 72.22 76.30 66.30 60.58 65.00 73.97
53.54 53.91 53.95 54.42 55.17 55.36 56.79 57.61 57.58 57.62 59.54 60.33 62.57 63.78 64.02 63.22 63.59 64.68 65.72 66.27 69.54 73.09 75.35 76.74 76.37 75.55 76.41 76.99 75.24 75.41 60.09 58.89 73.90
52.45 52.55 53.24 53.79 53.71 54.26 55.94 56.98 56.83 56.66 57.36 60.57 62.49 62.98 62.84 63.45 63.54 62.35 64.34 67.14 67.62 67.80 71.19 72.12 74.87 75.63 76.58 76.24 77.69 67.46 63.28 57.85 59.24
51.83 52.35 52.87 53.58 53.31 53.59 54.94 55.94 56.26 55.71 57.32 58.90 60.48 61.87 61.75 62.08 62.73 63.41 63.98 64.42 66.10 67.28 68.89 70.32 71.90 72.98 72.82 75.71 76.18 77.65 61.95 58.37 57.37
50.84 51.74 51.84 53.39 53.73 53.37 53.74 55.30 55.93 56.43 57.23 57.95 58.56 59.88 60.65 61.05 60.82 60.91 62.65 62.88 64.02 65.53 65.87 66.38 68.67 70.42 72.65 73.83 75.74 77.16 77.07 74.89 69.66
50.41 50.29 50.09 50.38 51.10 50.60 49.62 51.09 52.94 55.51 57.47 58.70 57.35 58.87 59.59 59.51 59.65 60.56 60.54 61.48 62.43 61.93 62.89 62.52 63.73 65.39 68.18 69.21 72.16 75.34 61.42 62.37 76.03
46.97 47.97 49.61 50.23 49.18 50.50 51.23 51.66 52.19 54.26 53.94 54.17 56.01 57.48 57.72 57.83 58.14 58.40 59.07 59.43 60.14 54.66 50.77 48.80 48.29 48.54 53.18 63.90 58.11 54.70 53.78 50.75 52.93
47.14 47.73 49.00 48.30 48.13 47.73 49.00 49.17 50.15 52.20 53.60 52.70 50.63 51.71 55.50 55.59 55.79 57.45 57.31 57.84 58.39 57.94 58.47 51.35 48.68 47.35 47.08 46.64 49.91 48.04 50.57 46.77 48.22

GFSFLT1_sfc_wetblb_081.txt.gz
Wetbulb
68.76 69.90 69.20 69.22 71.28 71.85 71.01 71.67 72.97 74.04 75.11 75.89 76.51 76.60 77.98 78.67 78.41 75.95 75.23 76.76 76.79 75.33 74.30 75.40 79.21 78.00 77.70 77.71 77.83 77.62 78.21 76.64 76.38
67.86 67.78 70.14 70.25 71.47 70.61 72.06 72.58 72.85 74.25 75.56 76.03 76.55 76.54 77.79 78.20 78.45 77.71 77.04 78.78 77.73 75.70 78.98 75.06 77.91 77.64 77.46 77.54 77.64 77.97 78.86 76.48 77.77
64.97 70.57 68.32 67.59 70.25 71.93 72.18 72.45 73.03 74.21 75.16 75.74 76.75 77.00 76.97 76.85 77.42 78.03 77.88 77.21 77.43 77.58 77.84 77.72 74.14 77.42 78.23 77.86 77.47 77.84 78.72 78.33 78.41
61.01 63.62 66.18 67.35 70.11 71.26 71.06 73.31 74.18 74.27 74.77 75.55 76.21 76.80 77.33 77.23 77.28 77.25 77.71 77.05 76.95 77.17 77.35 77.79 77.62 78.30 78.76 77.90 78.09 78.06 79.42 79.04 77.19
60.60 62.35 62.98 63.74 66.19 67.66 68.73 68.97 70.83 72.77 74.59 74.97 75.94 76.66 78.02 76.99 77.65 77.96 76.76 77.07 77.23 77.71 78.08 77.65 78.25 78.80 78.04 78.05 77.36 78.64 78.44 77.25 76.57
58.80 60.08 63.05 62.30 61.24 62.07 64.60 67.32 70.57 69.80 69.18 73.65 74.83 76.07 76.37 76.63 76.34 76.22 76.72 77.48 77.17 78.57 78.07 78.25 76.74 77.90 78.44 77.90 77.01 78.50 78.66 78.38 77.98
58.19 58.75 59.43 60.62 60.29 61.12 62.61 63.19 65.63 68.54 69.83 71.88 71.01 73.97 75.51 75.73 75.82 75.99 76.34 77.80 78.89 77.45 79.09 78.26 77.81 78.22 78.92 78.28 77.45 77.36 77.67 78.38 78.17
59.20 59.56 59.68 58.53 59.38 60.10 61.72 62.31 62.61 63.68 67.10 69.87 71.86 73.50 73.26 75.91 76.48 76.34 76.75 77.01 77.47 78.06 78.69 78.77 78.66 78.68 78.31 78.70 77.28 76.78 78.06 78.30 78.13
57.33 57.81 58.51 59.36 60.58 61.42 60.53 61.35 62.66 63.30 64.32 66.38 69.10 69.35 71.13 71.06 75.38 74.94 77.04 76.76 76.79 76.83 77.10 79.27 79.61 78.50 78.48 77.91 75.62 69.20 68.14 74.47 78.49
56.24 56.60 57.15 57.78 58.77 59.61 60.98 61.23 62.09 61.89 63.51 65.46 64.50 64.83 65.30 66.49 69.83 72.25 74.05 76.30 77.36 76.93 76.16 77.46 79.03 78.62 78.56 78.63 78.71 67.51 65.03 68.44 76.13
56.49 57.17 57.43 57.44 57.76 59.05 60.24 60.68 61.17 62.01 63.49 65.35 64.45 63.70 63.79 64.23 66.20 68.77 71.50 72.82 74.80 75.81 76.89 76.54 76.93 78.10 78.97 79.10 78.74 66.92 64.22 65.70 76.42
56.29 56.42 57.19 57.78 58.21 58.79 60.41 59.81 60.59 61.52 62.98 64.27 66.02 64.65 64.07 63.76 63.88 65.21 67.94 69.70 69.82 74.20 76.36 75.43 75.31 75.82 77.68 77.86 78.86 65.51 63.19 66.10 75.38
55.46 56.23 56.83 56.72 57.39 58.45 59.06 59.58 59.95 59.98 60.47 61.94 62.68 63.67 64.88 66.24 65.71 64.49 65.24 65.93 68.76 70.52 74.24 75.53 77.18 75.66 76.86 72.87 77.83 68.00 62.33 64.73 75.08
55.38 55.61 55.99 56.50 57.17 57.17 57.93 59.11 59.29 59.02 59.57 59.69 61.54 63.14 64.19 64.69 65.41 65.73 65.22 66.27 68.24 68.36 69.15 72.07 74.63 75.44 77.22 77.96 76.20 77.08 61.24 59.27 75.77
54.24 54.27 54.98 55.90 56.17 56.37 57.49 58.33 58.29 58.02 58.44 60.15 60.74 61.19 62.36 64.08 64.47 64.04 64.64 66.38 66.58 68.17 68.74 68.52 70.75 73.45 74.84 76.88 77.86 69.03 65.31 58.92 60.31
53.87 54.17 55.05 55.92 55.91 56.55 57.49 58.12 58.20 57.18 58.64 59.94 60.07 59.86 60.47 61.92 63.34 63.64 64.25 63.88 65.39 65.09 69.38 69.58 69.32 69.63 72.03 72.77 74.58 77.79 64.09 59.52 58.37
53.62 54.15 53.63 53.70 54.19 54.08 54.20 54.93 55.86 56.38 57.38 58.13 58.42 59.71 59.92 60.63 61.73 61.68 62.24 62.70 62.97 63.24 64.29 65.05 65.53 67.72 67.08 67.40 70.14 75.43 77.03 70.09 67.24
52.49 52.46 52.52 52.35 51.78 51.84 51.89 52.83 53.21 53.92 55.93 56.36 56.10 56.72 57.93 59.81 60.54 61.06 61.78 63.04 61.68 61.75 64.28 60.98 61.39 61.64 62.48 62.77 64.38 68.09 57.69 57.97 64.89
51.84 51.48 51.58 52.01 51.60 51.45 51.43 50.80 51.71 53.36 54.31 53.70 52.83 54.16 55.04 56.53 57.43 58.45 59.15 59.50 59.95 55.07 51.67 50.72 48.25 47.34 53.20 60.99 54.49 51.84 49.52 48.35 50.18
49.45 50.70 50.64 50.50 50.62 50.82 50.47 50.82 49.25 50.07 51.67 51.55 51.10 50.44 52.54 54.31 54.21 56.14 56.98 57.71 58.13 57.48 58.04 48.31 47.15 46.22 46.43 45.62 47.84 45.58 44.86 43.83 44.01

GFSFLT1_sfc_wetblb_084.txt.gz
Wetbulb
64.70 66.02 68.58 67.37 70.91 71.03 72.02 70.40 72.14 73.77 75.27 75.80 76.24 76.13 76.95 77.75 78.35 76.74 76.71 77.47 78.24 73.14 72.35 73.85 77.17 78.13 78.52 79.27 77.75 77.80 78.31 78.62 77.69
66.78 68.32 69.41 69.21 70.34 71.04 72.66 70.50 72.45 73.64 75.11 76.09 76.77 76.63 77.37 78.14 78.06 77.99 75.74 77.61 79.04 77.61 75.89 73.52 76.91 73.87 77.72 78.34 78.87 78.06 78.24 76.83 77.42
62.25 63.68 67.95 67.90 68.61 68.18 72.85 71.53 72.87 74.75 75.88 76.00 76.61 76.58 77.25 77.55 77.92 78.20 78.37 79.19 79.49 80.25 77.82 74.28 72.92 73.52 73.63 78.31 78.16 78.16 78.19 76.42 76.75
61.58 62.36 64.53 66.96 66.90 65.98 69.53 72.09 70.88 73.76 75.65 76.15 76.69 76.97 77.14 77.13 77.22 77.92 78.40 77.95 79.12 79.21 80.38 75.83 73.43 67.99 71.48 77.35 78.47 77.81 77.90 77.00 76.30
61.99 62.97 62.29 64.49 66.18 65.61 65.24 67.02 70.86 71.38 71.05 74.91 76.28 76.99 77.40 77.28 77.94 77.43 77.46 77.47 78.06 79.16 78.60 79.30 79.27 77.03 77.50 77.81 77.36 77.25 77.02 77.04 76.55
60.89 62.04 63.01 63.42 63.65 63.94 64.21 64.21 65.39 67.98 71.33 71.95 73.31 76.57 77.08 77.15 76.90 77.32 77.24 77.56 77.78 78.71 78.44 78.29 77.90 77.89 78.38 77.97 78.19 78.18 77.77 77.06 77.11
59.37 60.61 61.74 62.35 62.83 62.83 63.60 63.35 64.36 65.69 68.33 69.43 71.75 72.90 71.24 76.19 76.96 77.08 77.06 78.90 78.52 78.09 78.62 78.07 78.02 78.19 78.50 77.52 77.94 77.92 77.56 77.86 77.63
59.39 58.99 59.88 60.40 60.11 60.83 62.47 62.92 62.78 64.41 66.36 67.12 69.51 70.63 71.33 71.09 72.36 76.86 78.64 78.29 77.51 78.63 78.34 78.15 78.50 78.24 77.80 78.37 77.84 76.83 77.14 77.61 77.43
57.95 58.28 58.81 59.91 61.08 61.04 60.88 61.75 62.29 63.51 65.02 65.04 66.43 67.33 67.35 69.89 72.37 72.86 74.85 76.57 77.61 77.67 78.36 78.53 78.48 77.65 77.71 77.12 76.19 70.23 68.18 73.91 76.07
56.77 56.98 57.61 58.45 59.06 60.22 60.53 60.85 63.09 63.92 65.21 65.05 63.96 64.40 65.49 66.27 68.57 70.12 70.26 72.27 75.20 76.03 76.35 76.99 77.43 77.54 77.68 77.21 77.65 69.10 65.87 66.98 75.82
57.00 57.18 57.26 57.64 58.43 59.36 60.50 60.18 61.11 63.98 65.39 65.80 65.62 65.11 64.89 65.50 65.45 66.98 68.85 70.35 69.94 71.01 73.25 75.64 75.80 76.04 77.08 77.03 77.47 68.02 66.39 66.44 72.70
56.72 56.98 57.32 57.36 58.43 59.43 61.15 60.05 61.75 62.93 63.14 65.00 64.33 64.36 65.93 65.36 64.86 64.89 65.62 67.07 67.38 69.00 69.65 70.45 73.74 75.51 75.78 76.30 76.82 67.16 63.28 65.93 73.65
56.14 56.88 57.10 56.59 57.57 58.58 58.74 59.54 59.75 60.45 59.96 61.97 61.45 62.20 64.29 66.11 66.64 66.99 66.12 66.53 67.17 69.40 69.76 69.83 71.57 72.97 75.37 72.43 75.47 68.32 63.85 64.80 74.89
56.36 56.25 56.30 56.70 57.39 57.21 58.06 58.87 58.83 59.30 59.61 59.05 60.25 61.40 62.36 64.14 66.08 65.77 67.20 68.03 68.52 68.17 69.04 70.10 70.42 71.58 74.10 75.24 74.29 75.13 62.72 60.36 73.68
54.88 55.04 55.69 56.18 56.31 56.85 57.82 58.72 58.34 57.73 58.96 60.36 61.35 61.75 61.68 62.48 63.73 64.20 63.93 65.99 66.69 66.65 67.78 68.82 69.59 70.01 71.25 75.04 75.37 67.05 65.17 58.70 58.34
54.59 55.18 55.15 55.67 55.60 56.74 57.32 56.59 56.22 55.19 57.68 59.33 59.36 59.08 59.64 62.08 62.60 62.67 64.57 65.11 63.76 63.82 66.05 67.20 68.47 68.62 68.88 68.79 69.50 71.05 59.24 59.43 58.70
54.05 54.34 53.59 53.83 53.92 53.63 54.03 54.81 54.95 54.72 56.38 57.83 57.16 57.01 57.93 58.55 58.41 60.78 62.73 62.67 62.47 62.67 62.01 62.90 64.33 63.84 63.07 63.46 64.19 69.87 67.26 62.98 62.61
52.86 53.02 53.02 53.16 52.27 52.32 52.53 53.15 53.10 53.59 54.50 54.99 52.55 53.26 54.51 56.17 57.05 57.80 58.72 61.30 62.00 61.92 63.63 59.90 60.26 60.87 60.64 59.71 59.47 62.19 53.23 53.38 60.33
52.35 52.00 52.23 52.16 52.07 52.04 51.59 51.59 51.77 51.92 52.16 52.28 51.14 50.57 50.99 51.98 53.26 54.80 55.93 56.85 57.59 55.43 50.87 49.22 47.35 46.89 52.70 60.12 54.44 49.66 47.81 45.70 44.89
48.75 51.15 51.15 50.88 50.56 51.09 51.29 51.02 50.08 50.38 51.00 51.16 50.26 48.99 50.05 50.41 50.58 51.90 53.68 55.07 55.43 54.94 56.48 51.76 48.71 46.14 45.56 45.39 49.19 46.75 45.11 44.07 43.62

GFSFLT1_sfc_wetblb_087.txt.gz
Wetbulb
63.25 63.31 65.01 65.82 65.56 68.34 68.72 68.17 70.28 71.18 71.95 72.23 72.21 71.58 72.27 72.90 72.38 72.51 71.75 72.72 71.05 72.62 69.20 70.82 71.92 73.41 73.65 74.43 73.21 73.44 73.56 73.02 72.77
61.40 62.24 63.16 63.63 64.36 68.35 69.72 68.08 70.30 71.26 71.81 72.40 72.03 72.67 72.56 73.53 73.14 72.89 72.00 72.01 71.93 71.57 71.45 72.99 73.70 72.70 73.63 73.73 74.04 73.07 73.67 72.74 72.92
62.36 64.67 66.54 65.41 66.81 68.01 68.28 68.95 71.00 72.17 72.81 72.60 73.06 72.94 73.42 73.64 73.59 74.01 73.98 74.30 73.61 73.11 72.31 72.03 71.99 72.36 71.85 73.19 74.16 74.01 73.23 72.09 72.79
62.04 62.92 65.88 66.94 67.29 66.80 67.30 67.61 69.74 71.47 72.16 73.19 73.61 73.49 73.59 73.42 74.36 74.65 74.05 73.97 74.53 73.27 71.98 71.87 71.37 70.58 68.66 71.11 73.28 73.71 73.20 72.59 72.32
61.54 62.95 63.03 65.40 66.19 66.85 67.57 66.42 67.10 68.56 68.78 70.14 71.01 74.15 74.28 74.02 74.26 74.51 74.66 74.49 74.36 74.24 71.87 72.08 70.49 67.28 66.92 69.92 72.49 73.89 73.22 72.72 72.89
61.25 61.13 61.66 62.58 62.99 63.82 64.84 65.33 66.37 67.03 67.97 68.24 70.17 69.55 71.97 71.79 73.95 74.60 74.58 74.65 74.39 74.61 74.16 73.52 73.26 72.03 71.54 72.85 73.32 73.37 73.59 73.40 72.97
60.11 60.50 61.10 61.47 61.64 62.09 62.63 63.92 64.96 65.86 66.76 68.47 68.92 69.32 68.00 69.48 70.14 71.55 73.49 74.84 74.81 75.01 74.96 74.46 73.76 73.93 73.22 74.16 74.14 74.53 74.49 74.05 73.02
58.43 57.57 57.68 58.72 59.69 60.70 62.02 62.94 64.06 65.17 65.54 67.01 67.57 67.34 67.84 66.96 70.47 71.19 72.58 72.56 73.74 73.67 74.44 74.74 74.84 74.34 74.33 75.00 74.37 74.93 74.19 74.31 74.03
56.96 57.73 57.59 58.12 58.65 58.82 59.62 61.20 61.88 63.85 63.18 64.80 66.38 65.71 66.37 67.35 69.37 69.64 69.39 71.11 72.70 73.01 72.65 73.03 74.03 74.52 74.45 73.96 75.24 70.75 69.31 72.37 72.73
54.17 55.56 55.68 55.89 56.55 56.75 57.10 59.45 62.03 62.54 62.89 63.95 64.38 64.45 64.46 65.69 67.16 67.88 68.18 69.33 68.67 68.09 69.06 72.84 72.43 72.71 73.23 73.87 73.99 67.60 66.47 66.79 70.31
53.28 53.77 54.06 54.57 54.84 54.54 55.14 56.54 58.99 62.69 63.48 64.07 63.98 63.55 63.94 64.30 64.67 65.62 66.76 67.21 67.10 68.00 68.11 68.92 70.84 72.18 73.07 73.09 74.23 66.90 64.24 66.25 68.28
53.35 52.67 52.79 53.52 55.76 55.53 55.39 55.54 56.76 57.96 59.24 58.56 58.75 59.32 61.79 64.03 64.38 64.21 64.12 64.57 65.63 66.89 67.61 68.42 68.85 69.70 71.39 71.47 72.55 67.08 63.36 64.12 69.03
52.88 52.77 52.55 52.84 54.30 54.77 54.37 54.37 56.20 55.78 56.35 56.35 56.39 57.71 58.49 60.04 62.97 62.18 61.58 63.31 63.81 65.49 66.49 68.15 70.05 69.79 70.53 69.18 71.84 67.28 61.75 63.58 70.22
52.66 52.28 51.98 53.33 53.92 53.16 53.93 54.93 55.31 55.34 54.75 54.64 56.42 57.28 58.57 59.36 59.72 60.00 60.53 61.02 62.19 62.76 62.89 64.85 66.40 68.56 69.01 70.22 70.20 67.34 60.13 59.22 66.55
51.66 51.50 52.31 53.27 52.85 53.04 52.94 53.29 52.71 52.51 52.30 54.65 55.07 55.09 55.15 55.81 57.62 59.44 59.64 59.68 60.91 60.16 59.49 61.11 63.56 65.86 66.92 69.43 66.64 59.02 57.39 56.48 57.23
51.29 51.15 50.88 51.56 51.37 51.58 51.86 52.02 51.19 49.53 51.00 52.87 52.63 52.11 51.88 53.48 54.42 54.82 56.83 58.77 58.62 57.52 58.66 57.84 59.71 61.24 59.98 62.30 63.50 66.28 56.87 57.05 58.86
49.94 49.70 48.96 49.89 49.65 49.35 48.95 49.99 50.26 49.64 50.40 50.50 49.38 48.76 49.17 50.53 51.27 51.24 52.29 53.96 56.54 55.84 56.36 56.20 55.60 55.64 55.57 55.72 56.20 59.15 63.87 59.18 60.25
48.84 48.89 48.93 48.84 47.83 48.30 47.34 47.87 48.29 48.20 48.19 48.66 47.31 47.44 47.91 47.35 48.53 48.27 49.14 51.47 51.70 53.22 53.72 51.29 51.02 53.46 54.77 54.07 54.00 55.85 55.84 51.16 54.54
48.36 47.70 47.99 47.60 47.79 47.18 46.66 47.56 46.64 46.63 47.21 47.37 46.03 45.16 45.75 46.33 45.99 46.60 48.17 49.45 49.94 50.16 48.95 47.99 46.84 45.80 46.00 52.11 50.68 48.35 46.21 45.16 44.79
47.14 47.44 47.22 46.55 46.55 46.68 46.32 46.03 45.48 46.32 47.00 46.28 46.05 44.92 45.07 45.00 46.07 46.02 45.77 46.56 46.54 45.77 47.97 48.04 47.05 45.97 45.98 44.53 45.13 44.29 43.38 43.16 44.14

GFSFLT1_sfc_wetblb_090.txt.gz
Wetbulb
64.44 64.68 65.45 65.91 66.95 67.07 68.34 68.65 70.26 71.56 69.55 68.71 69.27 70.52 70.96 71.23 71.34 70.85 70.43 70.41 69.56 70.72 70.02 69.41 71.18 72.87 72.97 72.66 72.30 71.88 72.25 71.30 71.31
63.29 63.89 64.72 65.62 66.51 67.76 68.35 68.37 69.28 70.98 71.04 69.96 69.92 70.61 70.60 70.87 71.66 71.14 70.55 71.25 70.14 71.64 70.30 70.67 71.53 72.08 72.77 73.08 72.77 71.57 72.17 71.37 71.52
62.35 64.17 64.26 64.61 65.37 68.00 68.60 68.37 68.07 70.16 72.37 71.15 70.69 71.27 70.79 71.83 71.72 72.05 71.61 71.02 71.16 70.73 70.35 71.16 72.09 71.86 72.39 72.46 72.74 72.35 71.88 71.42 71.01
62.27 63.21 65.15 66.74 66.04 67.36 67.87 68.38 68.68 69.64 70.79 70.94 70.91 71.39 71.61 71.71 72.42 72.45 72.25 72.48 72.57 71.75 71.05 71.00 70.75 70.72 71.71 71.14 72.25 72.78 71.94 71.08 71.10
62.10 62.80 64.19 66.48 66.37 67.20 66.93 67.56 68.19 68.39 68.91 69.31 69.86 70.08 70.12 71.55 72.47 72.66 72.87 72.79 72.82 73.00 71.10 70.60 70.24 70.24 68.55 68.71 70.72 72.22 72.13 71.55 72.23
61.05 62.06 62.67 63.11 64.44 65.73 66.09 66.63 67.42 68.30 69.02 68.73 68.86 69.09 69.09 70.43 70.68 70.97 72.51 72.78 73.39 73.21 71.27 70.49 70.63 68.70 66.86 66.21 69.28 71.22 72.68 72.18 71.48
60.49 60.99 61.76 62.07 62.23 62.68 64.32 65.57 66.13 67.01 68.71 68.89 68.84 68.61 67.65 66.75 68.73 69.58 70.41 72.34 73.06 71.89 72.89 71.18 71.08 71.19 70.58 70.91 71.87 72.22 72.42 72.87 70.93
58.11 58.24 59.84 60.61 61.11 61.89 63.22 64.50 64.64 65.81 67.44 68.07 68.46 67.65 67.19 67.62 69.36 69.20 70.17 71.72 71.85 73.41 72.72 73.13 73.02 72.64 72.86 72.76 73.15 73.60 72.57 73.22 72.97
55.89 56.58 57.79 58.68 60.06 60.74 61.04 62.57 63.30 63.56 64.71 65.66 66.43 66.32 66.29 67.03 68.21 68.66 69.13 68.89 68.57 69.88 71.00 71.57 72.21 72.87 72.50 72.08 74.26 68.52 67.27 70.68 72.57
56.01 55.21 54.88 55.56 56.71 58.43 60.25 61.16 61.51 62.03 63.46 64.64 63.65 64.06 64.49 65.79 66.85 67.10 67.58 67.51 68.10 67.58 67.98 68.98 70.13 70.16 71.32 72.17 72.30 67.96 65.61 66.59 69.07
54.29 54.45 53.29 53.28 53.89 53.80 54.76 59.32 62.79 62.45 62.40 62.61 63.62 63.63 63.73 64.53 64.90 64.65 65.09 65.49 65.42 66.81 67.35 67.53 68.12 69.40 69.63 69.65 72.07 66.76 64.65 65.72 68.72
50.84 51.71 52.31 52.65 53.39 53.23 55.04 55.46 56.78 56.59 55.66 55.55 56.34 56.99 58.21 60.76 62.62 62.69 64.10 64.34 65.26 65.80 66.88 66.61 67.40 68.84 68.37 69.33 70.61 63.58 61.77 64.01 69.15
50.56 51.05 52.48 52.15 52.40 53.44 53.70 53.78 55.08 54.21 53.83 53.78 53.48 54.86 56.37 58.24 59.20 59.93 61.57 61.37 62.30 64.75 64.19 65.18 66.79 66.88 68.75 66.68 71.10 58.31 58.14 62.13 68.30
51.24 50.99 51.53 52.89 52.27 51.26 50.98 52.60 52.35 51.59 51.77 51.51 52.77 53.86 54.30 54.81 54.53 56.24 57.99 58.30 59.07 60.74 58.90 59.70 61.75 64.25 66.39 66.77 64.23 60.94 57.06 58.14 64.09
50.06 50.55 51.91 51.44 50.36 49.99 49.99 50.58 49.92 49.21 49.42 50.61 50.81 50.40 50.51 50.76 51.84 53.65 54.90 55.28 57.50 57.86 57.29 58.16 58.96 60.62 65.23 66.74 65.35 58.77 56.65 55.61 56.61
49.06 49.97 50.10 50.50 48.84 48.20 48.33 48.36 48.44 46.89 47.21 48.45 48.41 47.80 47.69 48.20 48.63 49.71 50.82 52.13 52.98 53.47 54.13 53.40 52.90 53.84 54.67 55.73 56.94 61.85 54.91 55.48 56.42
47.54 47.96 48.17 48.12 47.51 46.47 45.88 46.47 46.59 45.99 46.77 46.95 46.34 46.01 46.08 46.26 46.12 46.33 46.93 50.22 51.77 51.41 50.51 49.54 49.70 51.03 50.79 51.76 53.19 53.91 55.45 58.32 55.10
46.70 46.73 46.79 47.20 46.18 45.08 45.15 45.26 44.71 45.41 46.22 45.62 44.56 44.28 44.60 44.09 44.76 44.18 45.43 46.72 47.64 48.41 47.77 47.06 47.40 48.54 48.21 49.34 50.02 51.27 47.16 46.24 49.43
46.18 46.41 46.36 45.92 45.37 44.83 44.89 44.16 44.15 44.54 45.03 44.40 43.46 43.21 43.40 43.38 42.83 42.99 43.78 43.90 44.14 46.35 45.73 45.21 43.34 42.66 44.22 48.04 46.65 44.35 43.18 42.43 43.19
47.59 45.59 45.43 44.97 44.75 44.58 44.32 43.31 43.82 44.19 44.56 44.65 43.62 41.47 41.71 41.11 42.22 42.09 41.94 42.20 42.19 42.35 44.69 45.74 44.11 43.11 43.36 43.17 42.25 42.30 42.01 42.02 42.63

GFSFLT1_sfc_wetblb_093.txt.gz
Wetbulb
63.91 63.84 65.56 65.70 66.86 66.58 66.44 68.15 69.54 69.38 68.09 67.16 67.36 68.79 69.67 70.22 69.99 68.53 68.44 69.41 69.57 69.84 69.79 70.11 70.71 71.74 72.16 71.40 71.33 70.52 68.75 70.45 70.27
62.94 63.93 64.65 65.59 66.82 67.89 68.23 67.41 69.48 69.61 68.25 67.91 67.65 68.34 69.52 69.86 70.54 70.03 69.36 69.53 69.99 69.71 70.94 70.58 70.01 71.12 71.67 71.01 71.01 70.77 70.83 70.64 70.14
61.59 63.13 64.05 65.67 66.58 67.84 68.31 67.63 68.86 69.84 69.83 69.10 69.14 68.57 69.09 70.05 70.45 70.72 70.22 69.99 70.39 69.75 70.63 70.47 69.67 71.12 71.28 71.89 72.17 71.84 70.34 70.63 70.31
61.17 62.98 64.23 64.76 66.54 67.91 68.15 68.69 69.23 69.57 70.20 69.83 69.73 70.03 69.07 69.33 70.26 70.84 71.19 70.58 71.02 71.19 70.35 70.13 70.66 71.18 70.88 70.99 71.20 71.73 70.90 70.45 70.63
62.29 63.54 65.05 65.32 66.07 67.17 67.55 67.86 68.54 68.72 69.53 69.44 68.99 68.63 69.61 70.39 70.65 71.33 71.22 69.99 71.43 72.22 71.31 69.84 70.09 70.23 70.57 70.25 70.36 71.14 71.46 71.08 71.48
61.30 62.66 63.35 65.50 66.22 66.24 66.90 67.64 68.20 68.38 68.60 68.56 68.36 67.86 68.56 69.12 69.57 70.22 70.96 71.03 71.80 72.32 72.25 70.13 69.93 69.49 68.88 68.09 67.79 69.18 71.30 71.87 70.53
59.95 61.71 62.08 62.59 63.77 65.06 65.92 66.37 67.43 68.31 69.06 69.06 68.45 68.11 67.95 68.58 68.47 68.47 69.49 70.14 70.76 70.85 72.25 71.21 70.03 69.74 68.64 67.56 67.47 68.12 70.13 71.58 71.03
59.47 60.10 60.89 61.52 62.12 63.27 64.54 65.28 66.37 67.99 68.24 68.38 68.33 67.39 67.12 67.43 68.74 69.03 68.99 68.36 68.74 70.03 71.33 72.06 71.09 70.41 70.82 70.81 71.34 72.08 71.38 71.57 71.94
57.71 58.46 59.90 61.10 61.61 62.39 63.17 63.79 64.29 65.24 65.60 66.57 67.72 66.95 66.66 67.54 67.34 67.41 67.23 67.39 67.88 67.84 68.45 69.17 70.23 70.66 70.76 70.27 72.88 69.52 67.52 70.50 71.49
55.86 56.65 57.63 59.16 60.40 61.43 62.04 62.19 63.19 63.12 63.67 64.43 64.26 64.41 65.13 66.08 66.62 65.36 65.52 65.93 66.09 66.67 66.75 67.55 67.84 69.19 70.12 70.77 70.43 65.60 64.71 66.72 70.01
54.23 54.64 54.00 54.05 55.09 58.88 61.31 62.37 61.88 59.34 58.78 59.14 60.54 61.75 63.36 64.51 64.35 64.21 64.50 64.39 64.04 65.30 65.28 65.65 66.62 67.66 67.84 68.02 69.51 62.83 62.67 65.03 67.61
54.02 53.41 53.14 52.92 54.64 55.78 56.40 55.98 55.57 55.31 54.73 54.97 55.66 56.18 57.29 58.60 60.22 62.47 63.03 62.89 63.85 64.36 63.60 63.26 64.23 66.65 67.25 67.48 68.31 59.14 59.52 65.08 68.24
53.32 52.82 53.02 54.58 55.45 54.85 53.25 51.93 53.42 52.89 52.13 52.42 52.27 53.02 53.82 54.20 54.98 57.45 57.65 59.24 60.68 63.02 61.22 61.90 62.98 64.83 67.09 64.67 64.98 58.17 59.82 63.54 66.49
51.27 51.68 51.79 52.23 51.75 50.76 50.39 50.57 50.90 49.70 49.43 48.90 50.13 51.04 51.04 51.27 51.78 53.60 53.84 55.83 57.84 57.86 57.59 58.15 62.53 65.63 65.81 65.37 63.17 62.70 55.56 56.50 61.41
51.03 50.20 50.35 50.67 49.28 48.15 48.17 48.86 48.64 46.88 46.81 47.73 48.25 48.48 48.33 48.05 48.10 50.13 51.37 51.49 52.14 53.26 53.08 52.59 53.07 53.97 55.16 57.66 57.97 55.81 55.00 54.45 55.41
51.00 50.05 49.25 48.89 47.42 46.85 46.72 46.69 46.61 45.36 45.33 46.72 46.64 46.01 45.65 45.70 46.22 46.91 48.04 48.54 49.02 48.84 48.40 48.96 50.23 50.43 50.42 50.91 52.94 52.29 50.67 50.81 51.87
48.61 48.44 47.62 47.52 46.26 45.09 44.25 44.96 45.43 45.22 45.27 45.26 44.57 43.78 43.54 43.99 43.98 44.07 45.00 46.68 47.21 45.85 45.43 46.11 47.47 47.30 47.96 48.98 49.93 48.46 47.30 47.23 48.00
47.83 46.99 46.33 45.77 44.92 44.53 43.34 43.45 44.04 44.27 44.26 44.13 43.17 42.81 42.63 41.77 42.32 42.08 42.45 43.39 43.75 44.44 44.17 44.81 43.75 43.85 45.18 45.73 45.54 44.89 44.14 42.90 44.83
45.82 45.47 45.19 44.30 43.91 43.80 43.04 42.78 43.06 43.31 43.42 43.33 41.51 40.94 40.91 41.12 40.52 40.86 41.49 41.51 41.37 44.94 44.50 43.83 42.33 42.04 42.50 44.03 44.27 42.60 41.48 40.62 41.48
47.27 45.09 44.94 44.13 43.80 43.58 42.82 42.75 42.92 43.65 43.18 42.91 41.22 39.95 39.17 39.49 40.51 40.08 39.69 39.81 39.48 38.60 40.37 43.55 42.13 41.24 41.74 41.39 41.10 40.53 39.77 39.79 40.64

GFSFLT1_sfc_wetblb_099.txt.gz
Wetbulb
66.18 66.73 66.83 68.35 69.45 68.84 70.47 70.66 71.51 72.02 72.24 72.51 72.96 73.68 74.72 75.36 76.26 74.76 75.28 75.55 74.95 74.86 75.23 75.31 76.75 76.83 77.61 76.95 76.76 76.11 75.99 75.75 76.38
65.40 66.05 66.58 66.63 69.26 70.11 70.90 69.43 70.88 72.18 72.60 72.69 72.63 72.85 74.38 74.82 74.92 75.12 75.00 75.60 75.77 75.60 76.27 75.70 76.05 76.42 76.66 77.25 76.84 76.98 76.39 74.74 76.03
64.94 66.33 66.59 67.57 67.36 67.94 69.12 69.98 70.50 71.89 72.91 72.60 72.79 72.82 73.90 74.08 74.88 75.28 75.60 75.54 75.61 75.66 76.23 75.85 76.08 75.90 76.05 76.45 76.83 77.00 76.85 76.10 76.64
65.28 65.77 66.82 68.24 68.54 68.13 68.21 70.21 69.72 71.32 72.07 71.76 72.52 72.49 73.14 74.41 74.50 75.50 75.79 75.49 75.57 76.20 76.23 76.17 76.10 75.97 75.19 75.17 75.48 76.66 77.08 76.90 75.85
65.98 66.52 66.90 68.31 69.19 69.28 68.34 67.99 69.44 70.99 72.94 71.59 73.32 73.52 72.77 73.44 74.87 75.07 75.34 75.33 75.92 76.23 75.86 76.51 76.17 75.98 76.04 76.26 75.86 76.35 76.53 76.15 76.10
64.56 65.65 66.07 67.34 68.13 69.08 69.20 68.34 68.24 69.48 70.56 71.36 70.87 72.12 73.36 73.77 74.38 74.03 74.31 75.07 75.70 75.81 75.84 76.56 76.30 76.03 75.93 75.97 75.24 75.06 75.80 75.95 76.05
64.10 65.25 66.30 67.20 67.36 68.33 69.22 69.59 69.14 68.92 68.90 69.48 69.57 70.81 71.08 71.33 72.82 73.96 74.06 74.99 74.76 75.71 76.22 75.87 76.31 76.02 75.90 75.97 74.92 74.68 74.80 74.91 75.68
63.24 63.71 64.76 66.28 67.03 67.80 68.80 69.41 69.94 69.81 69.62 68.40 67.95 68.49 68.52 68.70 70.45 70.88 72.93 73.46 73.63 73.39 74.93 75.15 75.84 75.91 75.95 75.53 75.17 74.08 74.58 74.80 74.70
61.65 62.53 63.16 65.31 66.30 66.93 67.38 68.42 69.04 69.67 69.10 68.56 68.38 67.91 67.64 68.67 68.31 69.70 71.08 71.74 71.69 71.84 72.10 73.24 73.73 73.63 73.66 73.28 73.95 62.78 64.51 70.29 75.66
60.65 61.87 62.75 63.46 63.97 64.07 65.05 66.35 67.05 66.78 67.50 68.47 68.40 68.54 68.31 67.80 67.12 66.81 67.41 69.17 69.70 69.40 70.36 71.21 71.46 71.88 72.64 70.48 66.74 60.56 61.53 65.65 75.21
60.12 60.50 60.67 61.31 59.57 58.95 59.01 60.46 60.90 61.60 62.06 62.03 61.93 62.47 63.89 65.68 65.72 65.62 65.69 67.13 67.50 67.91 68.88 69.00 69.98 71.53 67.56 65.24 61.77 58.06 59.87 64.89 73.96
59.83 59.13 58.32 58.21 57.84 57.04 57.51 57.27 57.83 58.28 58.08 58.63 58.80 58.48 58.64 61.32 65.16 64.12 64.67 64.45 65.11 65.94 67.16 67.72 70.45 66.77 65.56 61.93 59.17 54.64 57.53 64.87 66.55
58.24 57.43 57.05 56.21 56.30 56.53 55.41 55.41 56.12 54.78 54.98 55.94 57.43 56.75 57.15 58.68 60.32 62.75 61.49 63.87 63.41 64.89 66.12 67.06 64.76 60.12 58.47 54.91 55.52 51.89 52.60 59.80 64.67
58.61 57.05 55.39 55.42 54.27 54.23 54.29 55.27 56.47 55.67 56.73 55.23 56.18 56.84 57.03 57.63 59.30 59.99 60.10 59.38 59.96 61.00 61.07 58.97 57.94 57.06 55.87 53.03 51.08 49.81 49.87 51.21 57.59
54.55 53.45 52.83 52.79 52.02 52.05 53.19 54.64 54.48 53.07 51.99 54.19 55.39 55.92 56.25 56.61 56.94 57.32 56.70 57.72 57.91 56.68 58.11 57.33 57.87 57.24 55.58 53.00 50.76 48.62 48.43 48.66 49.82
53.89 53.50 54.20 54.19 52.68 52.28 54.25 55.11 55.98 54.29 53.46 54.25 54.50 54.38 54.24 54.49 54.69 54.71 55.43 56.29 55.73 55.77 56.13 54.86 53.11 53.20 53.62 51.43 50.30 48.86 47.91 47.77 48.57
54.96 55.16 54.52 54.68 54.28 53.47 52.62 53.32 53.51 53.49 53.23 53.57 53.49 52.96 52.96 53.16 53.16 52.79 53.56 53.57 53.46 53.05 52.78 52.92 53.12 51.55 49.75 47.92 47.05 46.14 47.27 47.27 48.78
53.44 53.73 53.74 54.24 53.73 52.73 51.80 52.10 52.05 52.37 52.61 53.02 51.78 51.41 51.27 51.43 51.65 51.73 50.53 50.19 50.33 48.54 47.11 48.26 49.20 48.66 47.77 47.55 45.05 43.37 41.71 41.32 46.16
50.55 50.50 51.19 52.11 52.77 52.43 51.29 50.38 50.31 51.31 51.91 51.82 50.87 49.98 49.88 50.01 49.76 49.75 49.53 48.21 45.03 42.80 42.73 41.53 40.29 39.88 42.96 44.15 41.07 40.42 39.67 39.12 40.15
51.15 50.63 50.54 50.70 50.44 51.36 50.83 50.73 50.49 51.15 51.38 50.89 50.21 49.14 48.73 47.44 47.68 47.66 47.26 47.26 46.67 44.22 42.25 41.41 40.12 39.34 39.32 39.21 38.60 39.16 38.24 38.33 39.54

GFSFLT1_sfc_wetblb_102.txt.gz
Wetbulb
67.70 67.60 69.34 69.92 71.26 72.49 73.18 73.47 74.38 74.25 74.84 75.24 75.87 75.95 76.44 77.15 76.33 74.31 74.06 75.12 76.22 74.70 76.55 75.54 78.00 76.79 77.08 77.43 77.21 77.68 78.04 76.97 76.05
67.12 66.86 67.92 69.67 71.41 72.70 72.91 73.47 74.31 74.54 74.76 75.37 75.55 75.37 76.13 76.18 75.80 75.56 75.80 76.06 77.27 76.02 76.54 77.35 77.86 77.78 77.02 77.40 77.37 77.76 77.93 75.98 76.79
66.44 66.64 67.02 68.53 70.68 72.04 71.68 73.56 74.40 74.09 75.23 75.28 75.40 75.15 75.53 75.33 75.50 75.91 75.40 76.24 75.47 76.62 78.45 78.09 77.77 77.77 77.53 76.86 76.99 77.04 77.48 76.69 76.89
67.28 66.75 68.12 68.10 68.88 72.13 73.29 74.06 73.49 71.73 74.75 75.20 75.07 74.95 75.14 75.31 75.33 75.34 76.25 75.62 75.55 76.38 76.31 77.56 77.57 78.34 77.87 77.62 76.91 77.43 77.79 77.39 76.64
68.13 67.99 68.69 69.10 68.43 68.94 70.66 71.47 71.15 71.07 72.11 73.24 74.70 75.16 75.40 75.25 74.65 75.46 74.83 75.53 75.50 76.95 76.23 77.60 77.21 77.57 78.06 77.36 76.38 77.32 77.38 76.45 75.85
69.01 68.64 69.26 70.15 70.89 70.09 70.79 69.75 68.96 69.42 70.96 72.75 73.22 75.14 74.61 75.94 74.01 74.01 74.90 75.44 75.91 76.88 76.13 76.50 76.72 77.19 76.89 76.35 76.81 77.00 76.80 76.63 76.50
67.63 68.17 68.30 69.36 70.24 70.24 71.58 71.41 70.87 69.37 69.77 71.66 72.68 73.90 74.54 74.13 74.37 74.48 74.67 75.72 76.47 76.41 77.31 75.60 76.07 76.57 77.09 76.89 76.54 76.81 77.20 76.63 76.50
65.68 66.13 67.23 68.07 68.46 69.45 70.71 71.04 71.19 70.90 69.25 69.09 69.70 71.07 70.80 72.31 74.15 75.16 75.67 75.76 76.49 76.65 76.86 76.25 77.11 76.68 77.18 77.41 76.86 75.58 77.20 77.24 76.53
63.98 65.54 66.82 68.37 68.93 69.56 69.98 70.78 71.09 71.05 71.05 70.22 71.21 68.73 68.33 69.00 69.63 71.57 73.24 74.18 74.89 75.69 76.08 76.78 77.01 76.59 76.75 77.02 76.20 62.30 63.79 70.59 76.68
64.37 64.65 66.06 68.02 69.06 69.39 70.33 71.45 71.65 71.49 70.94 70.80 70.57 68.72 68.62 68.51 69.54 69.60 69.94 71.12 72.80 73.85 74.57 75.13 74.93 75.12 74.72 71.75 70.50 59.81 62.16 65.40 75.87
63.52 63.81 63.40 62.81 63.26 63.27 64.38 67.20 69.55 69.95 69.96 70.15 69.96 69.19 68.80 70.24 68.92 67.79 67.54 67.67 68.65 70.28 71.64 72.63 73.56 72.09 70.94 68.46 63.53 57.04 60.79 66.71 75.64
62.97 62.64 61.81 60.47 61.25 60.28 59.55 59.34 61.95 63.02 62.61 63.80 64.49 64.19 66.18 67.61 66.40 65.77 65.54 65.31 66.78 68.34 70.60 71.18 71.10 70.03 67.53 64.63 60.53 53.39 55.53 67.95 71.96
60.99 60.51 59.18 58.05 57.33 57.43 57.34 56.58 58.64 57.75 59.10 59.96 60.01 60.91 61.10 63.21 65.10 67.56 68.09 68.33 66.46 65.92 69.46 65.86 64.25 64.28 61.54 57.44 56.89 50.62 52.26 61.60 69.56
59.10 57.63 56.67 56.44 55.49 54.77 55.83 57.13 57.37 56.33 55.90 56.53 59.11 60.75 62.99 62.63 63.23 64.34 65.13 65.41 66.67 64.92 60.74 59.20 60.53 58.93 53.73 53.28 52.84 52.33 49.39 50.33 61.93
54.80 53.38 53.21 53.54 53.13 53.22 54.62 55.40 56.20 55.84 55.71 58.09 60.13 61.71 61.83 62.30 62.49 62.00 63.31 64.59 64.74 62.71 60.95 60.00 59.68 58.51 57.40 55.67 54.54 48.77 48.79 48.66 50.13
53.12 53.06 52.65 52.90 52.80 53.11 54.47 57.42 57.26 54.45 55.57 59.02 59.78 60.08 60.19 60.36 61.03 61.35 62.11 62.95 60.24 59.15 61.90 61.57 61.01 60.16 58.62 55.07 56.51 54.04 49.27 48.81 49.72
53.18 53.54 53.22 53.97 53.99 52.63 52.62 54.87 55.42 56.89 56.63 57.86 58.66 58.66 58.79 58.90 58.82 59.01 60.03 59.93 60.65 60.98 60.67 60.80 59.50 58.88 57.98 56.59 52.11 50.04 47.68 50.73 53.86
54.57 54.38 55.31 55.44 54.68 53.26 53.18 54.33 54.56 54.91 55.45 57.29 56.94 57.07 56.99 57.17 56.97 57.51 56.37 53.14 53.29 53.39 48.51 47.75 57.88 56.38 55.28 55.91 54.47 47.11 42.79 43.62 47.56
53.80 53.33 55.59 55.54 55.36 53.95 53.52 53.22 53.28 53.89 54.86 56.81 57.21 56.16 56.26 56.18 56.09 55.68 54.42 52.25 48.37 42.18 41.60 40.53 39.72 39.64 45.28 46.48 41.65 40.05 39.64 39.43 40.37
54.52 54.60 53.17 53.77 54.47 55.29 54.52 53.97 53.54 54.06 54.86 55.66 55.96 55.90 55.78 55.43 53.34 54.62 53.55 52.39 50.66 46.83 42.73 41.09 39.83 39.09 39.39 39.56 38.99 39.17 38.60 38.59 39.78

GFSFLT1_sfc_wetblb_105.txt.gz
Wetbulb
66.01 66.99 69.25 68.88 70.57 71.96 71.51 71.52 73.43 73.75 74.98 75.39 75.97 75.99 76.37 76.86 77.02 74.99 74.46 76.10 76.21 75.32 74.55 74.98 77.69 77.35 77.26 77.12 77.83 77.58 78.29 76.74 75.43
66.94 68.35 66.58 67.08 70.56 72.13 71.86 73.35 72.18 74.46 75.06 75.52 75.74 75.71 76.26 76.46 76.43 76.08 76.02 72.28 76.16 76.82 77.56 77.01 78.14 77.13 77.35 77.37 77.28 77.80 78.41 76.24 77.17
68.48 69.02 68.31 69.31 69.01 70.44 72.62 73.05 73.87 74.16 74.75 75.21 75.47 75.39 75.56 75.67 75.77 76.06 76.34 76.53 76.38 72.31 76.21 76.53 77.40 77.31 77.27 77.41 77.83 77.77 78.13 77.91 77.97
68.63 67.61 67.75 67.61 70.07 69.76 73.26 73.87 72.97 73.79 73.39 75.08 74.76 75.34 75.54 75.50 75.06 75.14 75.87 75.05 75.65 76.52 76.41 76.65 76.98 77.33 77.15 76.89 77.23 77.61 77.38 78.46 77.08
69.46 68.95 68.98 67.51 68.41 70.71 72.94 73.76 74.68 74.75 75.76 73.64 74.83 74.13 76.08 75.56 75.70 75.43 74.57 75.02 75.38 76.80 76.65 77.45 76.94 77.58 77.22 76.50 76.98 77.21 77.06 76.93 76.18
69.53 70.09 69.41 69.24 69.50 70.05 73.03 74.59 74.66 74.25 74.64 73.78 74.26 75.82 75.69 76.70 75.02 74.71 74.86 74.94 75.55 76.37 76.88 76.72 76.90 76.85 76.55 76.66 76.88 76.47 77.03 77.19 76.53
69.24 69.46 69.59 70.05 70.17 70.25 69.52 69.82 70.95 72.19 72.33 72.70 73.23 73.15 74.78 75.62 75.48 74.89 75.15 77.16 75.98 76.05 77.04 76.68 76.38 77.09 77.61 77.04 76.96 76.83 76.47 76.53 76.57
69.16 68.65 68.88 69.48 69.23 71.53 72.37 72.33 71.85 72.50 71.13 71.88 70.92 71.64 72.56 72.35 76.26 76.50 76.42 76.17 76.84 76.20 76.34 76.28 76.36 76.25 77.58 76.78 76.26 74.63 75.60 76.41 76.39
66.05 66.79 67.94 70.10 70.42 71.12 71.34 72.16 72.47 72.29 72.02 72.57 71.42 70.99 71.83 72.93 74.20 74.67 75.07 75.66 75.86 76.36 75.92 76.25 76.49 75.96 76.25 75.97 76.08 62.57 63.50 69.09 76.35
65.17 67.17 67.73 68.81 69.53 70.23 71.10 72.16 72.50 72.12 71.76 72.00 72.17 69.90 70.52 70.98 71.67 70.88 71.60 72.45 74.42 74.36 74.81 75.66 75.85 75.47 75.26 74.51 72.20 58.71 60.93 66.02 74.73
65.34 65.81 67.43 67.95 67.88 68.56 69.57 72.15 73.07 73.41 72.96 72.55 71.42 71.52 70.86 70.84 69.53 69.55 70.69 70.08 69.34 70.63 72.00 74.13 74.30 73.65 72.08 70.15 65.11 55.77 57.25 62.78 75.34
65.39 64.97 64.40 63.23 64.12 64.58 64.01 66.23 70.13 71.59 71.33 71.29 70.95 70.58 71.22 70.86 70.90 69.42 67.46 67.10 68.31 69.46 70.59 71.25 70.04 69.62 68.86 66.28 62.85 52.48 54.37 63.03 74.41
63.98 62.25 61.48 60.17 59.65 59.60 58.38 58.80 62.51 62.67 62.65 64.79 64.41 65.64 67.55 68.21 69.25 66.83 66.36 66.45 66.11 67.61 67.46 66.47 66.67 64.11 63.75 57.92 60.60 50.45 51.45 57.75 72.16
60.91 58.56 57.66 57.28 55.93 55.99 57.36 58.03 58.12 57.31 57.84 58.45 61.09 62.51 63.42 64.11 65.54 65.80 66.76 67.43 68.30 66.46 65.46 64.04 63.37 61.85 59.60 57.17 55.51 51.22 49.75 50.83 61.64
56.06 54.72 54.55 54.54 54.08 54.41 55.78 56.65 56.61 55.94 56.09 58.54 60.55 62.10 63.15 63.32 64.17 63.18 64.50 67.02 64.05 62.65 62.48 62.15 61.67 60.49 59.98 58.63 56.65 50.03 49.69 49.98 51.03
53.14 52.69 52.88 53.90 53.98 54.61 56.43 56.81 56.46 54.41 56.37 59.27 59.66 60.57 62.24 63.15 63.69 64.41 65.63 65.02 64.24 62.21 62.02 61.63 61.69 61.98 60.99 59.13 57.47 56.27 50.04 49.75 50.86
53.28 53.65 52.91 53.51 53.38 52.81 53.14 55.57 56.11 56.23 57.96 59.20 58.70 58.65 60.41 61.22 61.06 62.34 64.08 64.78 63.95 63.38 63.95 63.46 63.19 62.44 61.45 59.09 57.27 56.54 53.95 54.37 56.34
54.52 54.37 55.04 55.05 53.56 52.64 52.68 54.73 54.97 56.09 56.45 58.72 58.89 59.70 59.62 59.08 58.44 60.70 57.08 51.85 47.26 56.00 47.63 45.50 52.36 60.66 60.08 57.08 57.97 49.26 43.21 43.67 50.38
53.14 54.61 55.84 54.70 54.18 54.60 54.23 53.99 54.16 55.26 56.18 56.06 57.31 58.01 58.13 57.58 58.06 58.13 56.97 55.08 50.46 41.00 41.40 40.78 40.05 40.21 47.12 47.97 41.96 40.68 40.38 39.81 40.51
54.14 53.69 53.68 55.02 55.34 55.12 54.95 54.59 53.91 54.23 55.21 57.12 56.47 55.13 55.79 56.92 53.44 57.11 56.31 55.06 53.50 50.04 43.08 40.90 39.97 39.27 39.81 39.79 39.40 39.95 39.31 39.23 39.95

GFSFLT1_sfc_wetblb_108.txt.gz
Wetbulb
63.94 64.50 66.53 68.52 69.00 69.56 70.63 71.47 71.02 74.36 75.33 74.69 75.59 76.32 76.99 78.01 77.63 76.46 74.48 73.28 72.98 69.50 71.09 72.12 77.15 78.88 78.45 78.91 79.13 78.71 79.15 78.28 77.14
64.53 66.05 65.73 67.54 69.01 68.79 69.47 72.50 71.56 71.90 75.14 75.78 75.81 75.78 76.65 77.43 78.24 77.70 77.24 74.91 73.49 71.52 72.78 73.17 74.44 77.44 78.57 78.20 78.08 79.05 78.23 77.60 76.22
65.66 66.06 67.21 69.15 69.00 67.90 69.51 71.66 72.75 71.49 73.10 75.26 75.75 75.64 76.00 75.98 76.78 77.53 77.71 74.62 71.98 70.81 69.97 73.19 69.83 72.43 78.39 79.12 76.76 76.92 78.76 76.66 75.48
66.19 65.87 66.60 69.63 69.86 70.41 69.38 70.31 70.91 72.60 74.50 75.32 75.15 75.55 75.38 76.08 75.55 76.31 77.09 76.83 75.79 70.65 72.15 74.14 71.05 75.66 79.35 78.76 77.04 76.85 78.55 77.66 77.21
66.49 67.96 69.59 69.62 69.82 70.91 71.05 70.37 72.53 71.68 74.25 74.70 74.90 74.67 75.93 76.38 76.03 75.85 75.56 76.82 75.78 78.45 77.69 78.79 78.09 78.25 78.09 78.22 78.09 78.65 77.79 76.39 76.34
69.65 69.95 70.32 69.78 69.71 67.96 67.55 65.97 66.79 70.84 72.99 72.96 74.47 73.93 74.70 73.88 75.88 76.00 76.90 74.67 76.34 78.09 78.35 77.98 77.54 77.90 77.34 76.83 76.77 75.86 77.82 77.74 77.18
69.36 70.06 69.42 69.77 70.25 69.64 68.63 65.79 65.24 69.39 72.79 73.81 73.32 73.78 74.81 71.69 76.20 75.24 76.14 74.67 76.17 77.44 78.24 77.37 77.92 76.96 76.09 76.97 76.96 76.08 77.09 77.67 76.49
69.20 69.28 69.66 69.67 69.71 70.76 72.45 70.29 70.92 71.06 70.70 73.04 74.21 73.42 73.57 71.39 73.07 75.39 76.11 76.12 77.43 77.31 77.43 76.32 76.61 77.42 77.14 77.07 72.74 67.40 68.41 75.54 76.87
68.49 67.90 68.62 69.49 71.12 71.30 71.54 71.91 71.54 71.42 71.73 72.26 72.67 71.44 71.50 73.25 73.34 72.82 72.34 73.32 76.08 76.71 76.59 76.93 77.54 76.09 76.45 75.85 66.92 61.76 62.98 66.91 75.46
67.93 68.42 69.37 69.91 70.47 70.97 72.25 72.72 73.49 72.28 73.15 73.69 72.40 71.69 71.93 73.00 73.99 73.06 72.00 72.10 74.29 73.04 74.16 75.72 75.69 75.90 74.94 70.12 64.09 57.72 59.22 63.42 71.23
66.21 67.58 66.87 67.43 69.16 70.06 71.61 72.70 72.83 72.70 73.26 72.45 72.16 71.63 71.79 71.48 71.25 70.74 70.34 69.97 72.40 72.46 71.20 70.72 70.77 70.23 70.14 68.23 58.82 54.92 56.33 60.62 70.09
64.85 63.02 62.44 62.00 62.35 63.11 64.46 66.08 70.94 72.28 72.34 72.21 71.79 71.70 70.98 70.85 70.82 69.64 69.52 68.57 69.25 69.50 69.38 69.05 67.38 66.75 64.31 64.10 56.65 52.46 54.13 60.70 75.64
60.73 59.93 59.40 59.84 60.46 60.07 59.28 60.80 64.53 64.04 64.34 67.69 68.07 70.29 70.22 70.83 70.82 69.76 68.52 67.86 67.07 68.57 68.72 66.20 64.28 61.51 59.09 59.02 56.31 50.95 52.26 59.41 71.35
57.63 57.64 56.73 56.61 57.29 57.08 57.62 58.65 60.15 59.41 60.51 59.67 61.95 63.56 65.70 67.98 69.00 68.77 68.05 67.15 69.53 67.38 65.17 63.23 61.18 58.89 57.38 55.26 54.27 51.85 50.83 51.92 60.64
55.24 54.42 55.03 55.79 54.80 55.37 56.32 57.36 57.55 57.00 57.47 59.49 61.45 62.55 62.45 63.16 64.82 64.18 66.08 64.65 62.63 64.38 63.39 61.78 60.95 59.77 59.96 57.49 55.76 51.20 50.58 50.78 51.65
52.71 53.20 54.14 55.07 54.59 54.34 55.39 56.36 56.27 55.57 57.32 59.56 59.98 59.77 60.28 61.73 64.69 64.71 65.42 63.58 63.30 61.79 61.96 60.44 60.74 61.06 60.53 59.39 59.09 56.33 50.69 50.74 51.68
52.48 52.81 53.08 53.70 53.73 52.90 53.40 54.69 55.42 56.81 57.78 58.83 58.18 58.49 59.86 60.34 59.60 58.16 54.86 56.33 60.44 58.59 53.37 58.48 61.54 63.24 61.80 60.11 58.98 57.21 53.78 54.84 57.43
53.96 54.30 54.46 52.99 51.80 52.03 53.15 54.54 54.33 55.46 56.04 57.89 57.81 58.42 58.19 58.24 58.01 57.48 50.76 46.06 47.46 49.66 43.62 43.61 50.19 49.53 51.04 54.91 56.07 46.25 43.56 43.11 47.24
53.59 54.07 55.15 53.25 53.98 53.32 53.50 53.41 53.60 54.67 57.48 57.53 56.46 56.36 56.43 56.87 58.64 58.15 55.78 54.98 47.50 41.70 41.89 40.92 40.10 40.52 47.26 43.91 42.60 41.48 40.85 40.11 40.64
54.02 54.10 54.42 54.84 54.09 54.17 54.73 54.27 53.33 55.11 54.51 55.10 55.30 56.15 54.33 55.30 54.65 57.91 56.03 55.88 52.67 50.12 42.90 41.29 40.44 39.86 40.37 39.84 40.48 40.24 39.65 39.64 40.38

GFSFLT1_sfc_wetblb_111.txt.gz
Wetbulb
63.23 64.79 65.53 65.84 66.91 67.55 68.47 69.28 70.89 71.81 71.75 70.98 71.71 71.90 71.58 71.81 71.94 70.99 70.04 70.67 70.81 67.72 68.10 70.31 71.62 72.35 73.32 73.11 74.08 73.58 73.63 72.39 73.07
62.00 64.20 64.89 65.96 66.70 68.38 68.79 69.15 71.18 72.27 71.74 71.36 71.87 72.64 72.52 71.57 71.80 71.02 70.86 70.82 70.39 69.26 67.40 69.83 71.76 72.52 72.75 73.75 73.87 73.37 73.33 72.80 71.70
61.33 63.41 63.46 65.69 66.35 67.79 68.99 68.88 70.49 72.93 72.74 71.70 71.81 72.94 72.66 72.54 72.42 72.01 71.28 70.54 70.19 67.40 67.74 69.08 71.38 72.39 71.84 73.76 73.01 72.31 72.86 72.11 71.14
62.32 62.45 63.68 63.82 65.26 67.59 68.20 69.23 70.57 71.28 72.09 72.64 72.12 72.15 72.65 72.39 72.36 72.12 71.21 71.55 70.15 69.54 68.70 70.12 70.27 70.84 71.50 72.86 72.21 73.29 72.69 72.36 71.97
64.15 64.25 64.25 64.61 66.68 67.09 68.25 68.85 68.60 70.01 69.98 71.53 72.12 72.07 72.59 72.27 72.34 72.27 72.07 71.97 70.39 68.30 68.98 71.04 71.12 70.15 72.76 72.69 72.77 73.14 71.42 72.09 73.28
64.92 65.35 63.98 66.90 67.84 66.86 67.79 67.74 67.54 67.58 68.33 70.93 71.96 72.19 72.86 72.41 72.35 72.56 71.37 71.99 72.50 71.87 71.44 72.63 73.38 73.51 72.41 72.80 73.20 72.86 73.24 73.22 72.66
65.59 64.83 64.16 66.55 66.89 66.70 67.62 65.90 65.84 65.84 66.55 68.61 70.83 72.33 71.53 71.13 70.90 71.56 71.84 71.45 72.00 73.50 73.24 72.72 71.91 72.77 72.81 72.32 72.14 69.87 71.91 73.37 72.67
64.86 64.36 64.97 66.22 66.23 66.14 65.75 65.19 65.92 67.18 67.39 67.83 70.26 69.67 70.55 70.48 71.81 71.87 72.68 72.96 71.15 73.46 73.18 72.98 72.54 72.28 72.08 68.64 67.68 65.33 65.62 68.08 71.72
64.89 65.16 65.76 66.50 67.23 67.69 64.65 64.60 64.60 66.15 64.85 67.26 71.14 69.23 69.45 70.06 70.25 71.08 71.36 71.55 71.01 70.74 70.90 70.24 71.29 71.21 70.37 64.83 62.73 61.73 63.49 65.74 68.28
63.78 64.16 64.74 66.91 67.52 68.91 69.10 67.06 64.99 68.30 68.53 70.51 69.89 68.80 69.16 68.95 70.49 70.24 70.38 70.44 71.03 71.16 70.83 70.74 69.70 69.48 64.31 58.05 56.22 56.72 58.02 62.35 66.51
61.12 60.72 60.14 62.03 63.38 64.20 65.49 70.04 69.90 70.55 70.11 69.94 69.40 68.71 69.83 70.61 69.79 69.02 68.01 68.03 68.32 70.05 70.07 69.97 68.44 66.91 65.57 59.07 54.32 55.01 56.08 59.45 66.13
59.54 59.55 59.53 60.29 60.57 61.62 62.84 64.31 67.72 69.68 69.61 69.10 69.09 68.64 68.94 68.80 68.26 67.32 67.41 66.84 67.09 68.40 68.49 66.39 64.74 64.01 61.56 55.95 51.53 53.33 55.30 62.20 66.91
57.48 56.42 56.58 57.32 58.78 59.20 59.49 61.26 64.00 64.53 66.20 66.77 67.86 68.62 68.60 68.84 68.46 67.56 66.32 65.65 65.87 66.79 64.79 62.56 61.05 59.30 58.38 55.35 50.56 51.91 53.42 60.26 67.07
55.58 55.58 55.19 56.32 56.96 56.58 58.27 59.68 60.58 59.81 61.44 61.50 62.97 65.61 68.01 67.86 67.61 67.36 66.39 65.63 65.20 65.30 62.42 59.61 58.14 55.91 53.56 52.64 52.32 50.26 51.57 53.20 57.16
53.68 53.50 54.36 55.11 54.62 54.94 55.98 58.03 59.24 58.51 58.37 60.22 62.11 62.37 62.94 63.52 65.38 65.82 64.68 63.52 64.91 61.80 61.51 59.84 58.67 57.28 54.65 52.89 49.78 51.11 50.91 51.40 52.40
52.24 53.10 53.45 53.98 53.69 53.75 54.75 55.96 56.42 56.30 57.72 59.06 60.05 60.09 60.42 62.73 59.66 61.48 63.28 62.23 61.53 61.35 61.00 60.31 59.77 58.72 57.25 55.15 52.52 49.51 51.80 51.03 52.13
51.87 52.34 52.26 53.24 52.47 51.76 52.14 53.67 54.22 56.18 57.18 58.20 58.19 58.21 58.88 58.16 52.62 50.34 48.81 51.59 50.75 50.02 49.23 52.73 54.00 58.96 57.13 53.99 52.93 48.91 48.02 48.59 50.70
53.09 52.74 52.47 51.67 51.63 51.96 52.12 53.32 53.58 54.66 55.85 57.20 56.66 56.55 56.92 57.95 54.53 49.54 44.57 42.96 45.64 44.35 40.92 42.67 46.31 49.08 48.63 53.52 47.45 42.14 41.86 41.73 42.19
52.92 52.31 52.48 52.20 52.07 51.15 51.07 51.84 52.24 52.69 54.23 55.80 54.88 54.52 55.11 55.34 57.98 55.11 48.42 45.80 43.04 42.23 41.70 41.03 40.46 40.96 42.68 40.67 42.10 41.48 40.44 39.80 40.23
53.15 53.13 52.65 51.45 51.28 51.92 52.36 51.55 51.37 52.86 53.88 53.92 51.72 51.28 49.62 52.62 54.26 54.76 52.83 51.05 48.14 44.04 40.76 42.01 40.66 39.91 40.05 41.17 40.48 39.94 39.31 39.39 39.86

GFSFLT1_sfc_wetblb_114.txt.gz
Wetbulb
62.56 63.68 64.55 64.68 65.46 66.85 67.54 68.26 70.15 70.11 69.39 68.72 69.53 69.89 70.71 70.49 70.60 69.70 69.14 68.51 69.43 68.71 67.86 69.27 70.38 71.53 72.40 71.98 72.82 71.60 72.58 70.76 72.04
61.48 62.69 64.63 64.87 65.73 66.37 67.41 68.13 70.07 70.13 69.88 69.40 69.76 69.58 70.32 70.14 70.72 70.26 69.51 69.74 69.72 68.65 67.63 68.82 70.12 71.84 71.53 72.01 72.31 72.31 72.30 71.45 71.08
60.92 63.48 64.48 65.37 66.43 67.03 67.56 68.62 70.21 71.33 70.73 70.33 70.65 70.07 70.93 70.52 70.36 70.46 70.10 69.80 69.41 68.12 66.91 67.82 68.71 71.05 71.40 71.36 72.77 71.96 71.83 71.32 70.21
60.34 63.02 64.33 65.08 66.33 67.20 67.83 69.04 70.36 71.10 71.09 70.22 70.58 71.42 71.14 70.44 70.63 70.78 69.59 69.26 69.00 67.63 65.97 66.70 68.29 70.10 70.00 70.66 71.84 71.96 72.01 71.33 70.90
60.55 63.15 64.35 64.87 66.25 66.58 67.56 69.19 70.56 71.32 71.53 70.96 70.83 72.16 71.52 70.77 70.81 70.98 69.34 69.40 69.49 69.29 66.96 68.05 69.12 69.72 69.49 70.27 71.88 71.90 71.07 71.04 73.21
64.08 62.56 62.98 64.24 65.60 66.20 67.29 67.86 69.57 71.03 70.81 70.97 70.96 71.60 70.89 71.01 71.19 70.36 69.94 69.49 69.88 68.00 68.49 67.86 69.70 69.89 68.98 70.93 71.95 70.71 70.94 71.20 70.71
61.72 64.31 62.53 63.18 64.80 66.47 67.23 67.50 68.38 68.52 68.15 68.33 68.84 70.14 70.76 70.44 70.50 70.96 71.00 70.93 70.85 68.78 67.54 68.05 70.37 71.43 71.22 70.72 69.15 68.19 69.07 70.83 71.23
61.88 62.99 62.51 64.60 64.87 65.85 66.65 66.71 66.93 67.32 68.40 68.50 68.66 68.50 69.27 69.90 70.50 70.97 71.13 70.65 70.39 71.11 70.95 71.37 71.29 70.99 68.58 67.25 66.62 66.06 66.16 67.63 68.98
59.38 60.81 61.25 65.69 65.42 66.09 65.13 65.38 65.26 66.04 66.20 67.91 69.44 68.39 69.03 69.57 69.72 70.03 71.10 71.31 71.77 71.50 70.72 69.47 69.10 69.18 66.44 63.35 62.30 58.96 63.16 64.94 67.29
59.79 60.35 60.95 61.25 65.13 65.62 65.18 65.64 65.93 65.84 65.37 66.08 68.23 68.89 69.16 69.25 69.34 69.35 69.28 70.37 70.86 70.71 69.88 70.18 68.26 65.17 61.90 60.56 57.91 56.98 58.26 61.46 64.67
59.96 60.67 60.48 60.36 61.24 62.64 63.45 65.73 65.54 66.93 66.01 66.28 68.71 68.58 68.69 68.89 69.07 68.46 68.19 68.41 69.31 70.01 69.68 69.50 68.33 64.79 61.86 58.05 58.18 56.45 57.29 61.23 65.02
56.95 58.03 59.27 60.00 60.90 61.21 62.59 63.13 66.29 68.26 67.97 68.49 68.10 68.01 68.53 68.60 68.33 67.38 67.38 66.91 67.00 67.61 67.44 66.92 65.79 63.97 60.17 57.73 54.69 54.58 57.27 64.95 63.23
55.91 55.97 56.36 57.21 58.89 59.77 60.94 60.10 65.07 65.37 66.50 67.33 67.83 67.74 67.88 68.44 67.67 67.47 66.70 66.39 66.65 65.82 64.62 62.12 60.70 58.49 54.63 53.62 52.89 53.35 54.76 64.35 62.57
54.60 55.03 55.17 56.19 56.17 56.08 58.61 59.83 61.70 60.98 61.55 61.97 64.39 67.81 68.42 68.08 67.58 66.93 66.00 64.69 64.89 62.34 60.37 58.02 55.70 52.73 52.84 52.05 51.05 51.48 52.21 56.77 61.86
53.48 53.06 53.94 55.03 54.89 55.28 56.51 58.74 59.31 58.63 58.47 60.34 62.43 63.74 63.78 64.71 66.13 66.52 65.68 64.65 62.03 61.33 59.98 58.24 56.26 53.32 51.38 50.12 50.35 50.90 51.31 52.51 55.42
52.14 52.61 52.93 53.42 53.42 53.68 54.93 56.34 58.01 57.37 58.39 60.37 60.37 58.79 57.21 56.12 55.29 55.99 58.36 62.54 61.79 60.62 59.71 58.85 57.55 56.02 53.29 51.74 51.31 51.67 50.77 51.31 52.75
51.25 51.98 51.98 52.88 52.28 51.52 52.15 53.64 54.96 56.09 57.06 58.60 59.18 58.05 55.39 54.23 52.22 50.70 51.55 52.16 51.32 49.85 51.00 55.62 59.38 58.66 55.80 53.57 50.93 48.22 47.02 48.51 48.79
51.82 51.41 51.47 51.54 51.27 50.91 51.67 52.54 53.47 55.16 56.22 56.43 56.52 57.44 56.01 52.86 50.51 49.26 48.00 44.94 47.15 48.39 43.40 42.18 47.16 49.95 55.14 53.32 49.19 45.21 42.36 43.33 43.72
51.76 51.16 51.12 50.16 49.34 49.98 50.52 49.70 50.93 51.93 54.09 55.29 54.56 54.37 56.23 54.99 51.61 49.26 46.12 44.19 43.66 42.73 42.89 42.14 41.03 41.93 44.20 42.79 44.15 41.59 40.29 39.53 39.82
52.60 52.30 49.19 50.07 50.16 51.40 50.81 50.42 51.12 51.65 52.90 50.75 49.01 49.09 50.77 50.46 54.52 52.98 49.21 46.86 43.69 42.51 43.49 43.12 42.50 41.05 41.09 41.05 40.44 40.00 38.98 38.85 39.54

GFSFLT1_sfc_wetblb_117.txt.gz
Wetbulb
62.60 63.20 63.95 64.37 65.10 65.30 66.12 67.57 67.76 68.50 67.46 68.10 67.91 68.88 69.44 69.65 69.08 68.56 67.91 67.82 67.84 67.89 68.23 69.07 69.71 70.59 71.46 71.47 71.82 70.55 71.20 70.28 71.28
61.65 62.86 63.74 64.52 65.16 65.95 66.42 67.62 68.26 68.24 67.72 67.85 68.51 68.26 69.05 69.14 69.79 69.19 68.89 68.57 67.88 68.20 68.41 68.74 69.06 71.42 71.10 71.54 71.18 71.71 71.19 70.30 70.43
61.06 63.05 63.85 64.06 64.93 66.03 66.93 67.87 69.06 69.02 68.80 67.73 69.02 68.60 69.03 69.09 69.68 69.88 69.43 69.14 68.76 68.49 67.64 67.10 69.31 70.52 70.97 70.79 70.99 71.92 71.16 70.52 70.09
61.50 62.31 64.04 64.35 65.09 66.07 67.14 68.13 68.84 69.09 69.22 68.77 68.69 68.88 68.98 68.92 69.44 69.63 69.25 68.74 68.93 68.76 67.60 66.59 66.77 67.53 70.02 69.47 70.85 71.29 70.54 70.70 70.31
61.20 62.81 63.77 64.65 65.65 66.39 66.93 66.84 67.79 69.09 69.69 69.36 69.85 69.86 69.54 69.48 69.67 69.72 68.75 68.35 68.34 68.13 66.46 65.65 66.14 67.96 69.21 68.94 70.44 69.74 70.15 70.42 71.46
62.15 62.94 64.01 64.22 65.10 66.05 66.31 66.71 67.72 68.79 70.27 69.82 70.13 70.42 70.34 69.86 69.39 69.73 68.70 68.20 68.37 68.31 67.91 66.39 67.39 69.24 68.61 68.37 70.17 70.92 70.84 70.39 70.52
61.46 62.84 62.61 62.77 63.39 64.99 66.89 67.95 68.93 69.54 70.24 70.58 70.42 70.78 70.58 69.83 69.85 69.77 69.90 69.18 68.98 68.65 67.73 67.15 66.72 68.85 69.45 69.97 70.25 69.03 69.45 70.51 71.30
60.99 61.62 63.19 64.25 62.87 65.44 66.56 67.57 68.79 70.23 70.24 70.21 70.60 70.23 70.25 70.27 70.62 70.49 70.27 69.61 69.50 69.68 68.51 67.81 68.40 69.71 68.99 67.64 67.42 66.88 66.11 67.71 69.73
58.31 60.30 62.15 63.91 64.76 65.61 66.26 67.08 67.77 68.69 68.56 69.05 69.40 69.60 70.20 70.62 69.46 70.16 70.12 70.25 70.18 70.66 69.83 69.92 69.15 69.04 66.79 63.97 62.92 59.75 63.83 64.11 67.17
59.20 59.88 60.71 62.08 63.50 64.83 64.77 64.95 65.70 65.97 66.38 67.71 68.00 68.32 68.90 69.49 69.56 68.63 69.35 69.89 70.48 69.87 69.54 69.38 67.53 65.18 63.05 61.38 59.59 57.89 58.71 61.85 64.32
57.19 56.24 59.03 60.19 61.34 63.56 64.22 65.04 65.83 66.47 66.13 66.25 67.37 67.62 68.50 68.63 68.70 68.27 68.79 68.92 68.95 69.11 69.38 69.20 67.39 64.52 62.32 59.62 59.15 56.44 57.46 60.68 63.74
55.90 56.20 56.94 58.29 59.55 60.32 61.79 63.66 66.03 66.60 66.57 66.24 67.01 67.30 67.73 68.18 68.57 67.84 67.62 67.48 67.42 67.66 68.47 68.97 66.76 64.25 60.74 60.26 58.61 55.99 56.56 63.50 63.42
55.23 55.76 56.12 56.08 57.02 58.25 59.17 60.52 63.96 67.19 66.64 67.68 66.62 67.19 67.37 68.05 67.80 67.12 66.78 66.80 67.12 66.30 66.10 63.56 61.85 59.09 58.06 56.83 57.25 55.74 56.60 62.21 61.17
54.60 54.61 54.93 56.04 56.28 56.18 57.11 59.76 62.45 61.67 62.84 62.66 63.86 68.07 68.07 67.34 67.30 67.10 66.73 66.46 65.94 63.00 60.22 57.86 56.05 54.00 52.33 51.53 52.22 52.34 54.47 57.42 58.98
53.21 53.15 53.98 54.74 55.00 55.34 56.48 58.85 59.83 59.60 59.09 60.81 62.75 63.50 63.16 65.92 66.10 66.60 65.89 64.27 62.25 60.44 57.91 54.88 52.40 50.22 49.97 50.44 50.90 52.02 52.21 54.58 57.21
52.16 52.34 52.76 53.56 53.54 54.03 54.93 56.70 58.48 57.61 57.99 59.33 57.61 58.63 58.13 56.56 55.96 57.45 59.96 62.43 61.45 60.58 60.23 57.47 54.44 52.61 50.49 50.59 51.72 50.77 51.60 51.94 53.08
51.19 51.54 51.76 52.31 52.41 51.35 52.15 53.69 55.16 56.52 58.30 58.90 56.72 55.54 55.68 56.00 56.66 55.32 55.06 54.03 54.01 55.50 55.62 58.88 58.25 55.80 53.04 50.77 48.56 48.61 49.28 49.77 49.67
51.18 51.01 51.18 51.06 50.84 49.95 50.70 51.71 52.45 54.61 55.80 56.89 56.50 54.55 53.17 52.48 52.27 50.86 48.33 46.56 48.01 49.34 44.79 46.86 52.16 52.04 54.18 52.09 49.86 46.04 43.83 45.48 46.79
50.75 50.42 50.58 49.31 48.06 48.56 49.39 49.03 49.30 50.21 52.24 54.16 55.53 54.89 53.71 52.32 51.51 49.27 48.18 48.00 46.34 43.03 43.11 42.21 41.21 41.71 45.89 45.04 44.26 41.75 40.40 39.70 40.09
51.69 50.14 50.04 49.02 47.48 48.03 49.90 49.50 49.90 50.10 50.61 48.86 47.90 48.21 46.93 50.92 50.98 49.48 47.38 45.53 44.88 43.46 43.68 43.12 41.36 40.68 40.81 40.68 41.40 40.23 39.19 38.95 40.23

GFSFLT1_sfc_wetblb_120.txt.gz
Wetbulb
62.08 61.04 63.09 63.54 64.14 64.99 65.42 66.53 67.45 68.08 67.24 67.21 68.75 69.31 69.46 69.82 69.92 69.81 69.67 69.60 69.72 69.93 70.15 70.91 71.87 72.19 73.08 73.32 73.67 72.98 73.54 72.78 72.96
61.00 62.32 62.85 63.48 64.16 64.86 65.38 66.50 67.16 68.03 67.60 67.86 68.51 68.71 69.59 69.66 69.81 69.73 69.35 69.42 69.77 69.71 70.13 70.13 71.21 71.85 72.84 73.05 73.37 73.55 73.14 72.39 72.37
61.08 63.11 62.68 63.78 64.46 64.93 65.64 67.30 67.87 68.30 68.31 67.84 68.77 68.51 69.41 69.72 70.15 70.33 70.45 70.30 69.53 69.26 69.76 69.99 70.60 71.26 72.32 72.52 72.90 73.50 73.32 73.12 73.01
59.18 62.22 62.74 63.92 64.69 65.49 66.12 67.52 67.95 67.89 67.94 67.85 68.10 68.72 69.18 69.47 69.65 70.39 70.75 70.31 70.38 70.10 69.99 68.78 69.02 70.26 71.10 71.42 71.93 73.27 73.29 73.11 72.92
59.66 62.76 63.55 64.37 64.57 65.16 65.77 66.99 67.72 68.18 68.49 68.43 68.51 69.22 69.25 69.35 69.68 70.29 69.93 69.76 69.99 70.24 69.62 69.02 68.67 68.59 69.65 71.13 71.41 72.88 72.31 72.48 73.62
60.43 62.66 63.85 64.65 64.63 64.91 65.69 66.53 67.59 68.31 69.04 68.98 69.23 69.25 69.35 69.48 69.52 69.89 70.01 69.74 69.94 69.99 69.52 68.74 67.97 68.29 69.72 70.77 70.99 72.22 71.82 71.97 72.51
61.64 62.36 63.76 63.33 64.30 65.07 66.22 66.79 67.11 67.98 68.98 69.93 69.70 69.89 69.76 69.69 69.99 70.38 70.39 70.38 70.08 70.07 69.99 69.45 68.32 69.36 70.76 70.41 70.67 72.24 72.04 71.98 72.29
61.29 62.21 63.44 63.20 63.51 64.54 66.09 66.87 67.12 68.04 68.94 70.38 70.18 69.87 70.14 70.10 70.70 71.20 71.23 70.93 70.48 70.56 69.87 69.78 69.61 69.09 71.09 70.94 70.20 68.77 68.68 70.10 71.16
58.84 60.68 62.43 64.77 65.03 66.05 66.32 67.06 67.73 69.09 69.75 69.69 70.66 69.79 70.01 70.48 70.42 70.79 70.93 70.79 70.77 70.91 70.89 69.90 69.61 70.65 70.50 68.06 65.65 61.68 64.37 66.29 69.14
57.57 58.31 60.07 62.57 64.45 65.04 65.56 65.58 66.24 66.14 66.39 68.54 68.72 68.25 68.92 69.67 70.50 70.18 69.84 70.49 70.43 70.36 70.41 69.58 70.18 68.83 66.51 64.18 63.52 59.03 60.74 62.36 66.65
56.15 57.25 57.91 58.84 59.74 61.32 64.36 65.94 65.76 66.40 66.38 66.76 67.91 67.91 68.27 68.83 68.99 69.01 69.10 69.74 69.24 69.26 70.19 68.02 68.11 66.59 65.10 63.21 62.11 57.92 57.96 60.52 64.52
55.71 56.17 56.63 57.07 58.15 59.48 60.70 61.81 64.92 66.26 66.33 66.31 66.69 66.89 67.82 68.27 68.72 68.33 68.27 68.13 67.95 68.83 68.92 68.72 67.59 66.10 63.81 62.91 61.30 57.79 58.65 63.36 64.35
55.28 55.65 55.95 56.21 57.25 58.55 58.84 59.94 62.41 66.28 66.10 66.28 66.30 66.91 67.57 68.20 68.61 68.09 67.95 67.21 67.32 66.93 67.45 66.57 64.78 62.20 61.97 60.32 60.78 56.17 56.71 62.06 63.21
54.61 54.88 55.06 56.53 56.95 56.51 57.13 59.80 62.48 63.43 63.90 63.09 64.61 66.47 67.68 67.79 67.72 67.95 67.93 67.05 66.18 64.55 63.13 60.77 59.74 57.99 57.23 55.13 55.21 56.99 55.97 59.25 61.70
53.10 53.10 53.78 54.33 55.28 55.49 56.79 58.43 59.68 59.16 58.76 59.60 62.44 62.57 63.00 65.05 66.66 67.00 66.28 64.45 62.22 60.55 60.37 57.31 56.61 56.39 55.14 53.35 54.07 53.28 56.25 57.27 56.86
51.73 52.32 52.63 53.45 53.00 53.80 54.47 56.35 57.81 56.95 57.98 58.42 58.06 58.36 58.06 57.15 57.15 57.85 60.79 62.66 61.05 58.94 57.71 55.87 53.89 53.74 50.84 51.27 52.75 52.55 51.75 52.73 54.00
51.23 52.03 51.76 52.54 52.21 51.87 51.71 53.13 55.05 56.67 57.73 57.03 56.47 55.69 54.80 54.82 55.71 54.84 54.64 54.03 54.60 55.72 58.46 58.74 57.59 55.79 54.69 53.12 52.00 50.76 51.47 51.53 53.17
49.26 49.88 50.99 51.35 50.72 50.19 50.08 51.43 51.92 53.79 56.43 56.91 55.40 54.85 53.97 53.34 53.96 51.82 50.16 48.01 49.20 49.87 45.58 48.46 54.18 54.88 55.41 52.11 50.24 45.26 43.16 45.61 47.80
50.29 48.85 50.32 49.69 49.54 50.28 50.51 50.34 50.57 50.58 52.62 55.91 55.03 52.89 51.92 51.84 51.16 49.95 50.47 50.46 47.52 46.46 46.01 46.65 43.66 43.83 47.91 45.97 44.22 41.71 40.51 39.51 40.07
50.88 50.44 49.87 48.49 48.18 49.40 49.88 49.72 49.38 50.50 50.76 49.93 49.43 49.55 52.68 51.26 50.42 48.51 46.92 46.79 46.94 45.62 42.73 42.37 40.61 40.66 41.25 43.07 43.40 40.51 39.32 39.03 40.33

GFSFLT1_sfc_wetblb_123.txt.gz
Wetbulb
65.54 65.75 66.08 67.09 68.30 69.12 69.74 70.29 70.92 71.29 71.40 71.54 72.52 73.12 74.20 74.96 75.53 74.39 74.38 75.08 74.46 74.13 74.14 74.73 76.31 76.20 76.94 76.86 77.19 77.12 77.56 76.61 76.25
63.52 64.96 66.03 66.69 68.30 69.41 69.88 70.35 70.88 71.21 71.43 71.86 72.27 72.88 74.14 74.53 74.75 74.95 74.58 75.29 75.15 74.17 75.02 74.60 74.99 75.72 75.95 76.56 76.73 76.99 77.12 75.51 75.97
63.26 64.98 64.74 64.90 66.16 68.92 69.91 70.67 71.33 71.84 72.07 71.78 72.16 73.01 73.90 74.15 74.42 75.05 75.25 75.12 74.67 74.79 74.74 74.71 74.71 74.86 75.36 75.86 76.52 76.86 77.14 77.04 76.78
64.83 64.64 65.80 66.14 65.52 68.65 69.91 70.43 71.02 71.05 71.85 71.88 71.84 72.50 73.29 73.98 74.04 74.32 74.59 74.52 75.02 75.16 74.93 74.39 73.94 74.64 74.88 75.34 75.63 76.26 76.68 76.83 76.58
64.11 65.59 66.08 65.77 66.19 67.13 69.28 69.92 70.57 70.49 71.51 71.79 72.07 72.72 73.04 72.95 73.62 74.19 73.79 74.26 74.67 75.22 74.92 74.83 74.66 73.80 73.84 73.94 74.99 75.85 76.04 75.75 75.59
64.10 64.22 65.03 65.31 66.06 66.41 67.76 69.45 68.91 70.99 71.64 71.78 72.45 72.92 72.66 72.83 73.10 73.43 73.40 73.95 74.41 74.89 74.58 74.26 73.65 72.80 72.94 73.16 73.37 74.78 75.80 76.22 75.90
64.17 65.44 64.87 64.72 66.42 67.93 68.85 69.57 70.29 71.41 71.68 69.88 72.53 72.63 72.41 72.46 72.72 73.01 73.30 74.12 74.38 74.45 74.49 73.99 73.49 73.12 72.56 73.16 74.40 74.19 74.86 75.63 75.37
62.94 64.91 65.53 66.04 67.37 67.37 68.04 69.62 70.38 71.09 71.95 70.83 70.92 72.33 71.52 71.68 74.01 73.83 73.97 74.46 74.74 74.85 74.74 74.20 74.35 73.22 73.07 73.98 74.62 73.84 74.45 74.67 75.15
59.33 60.18 61.62 65.87 66.34 66.70 67.12 69.49 70.59 71.11 70.00 69.82 72.90 70.15 71.86 72.62 73.74 73.51 74.19 74.53 74.92 75.06 74.91 75.16 74.72 73.94 73.56 73.29 73.14 63.06 64.89 68.96 73.12
57.94 58.70 59.44 60.63 61.76 65.00 68.32 68.53 68.83 71.25 72.08 72.79 71.37 72.38 72.51 72.75 72.18 72.69 71.40 72.23 74.51 73.25 74.99 75.54 74.82 74.29 74.19 73.27 71.76 59.82 60.87 62.46 70.63
56.72 57.28 57.92 58.68 59.19 60.97 63.02 64.24 67.96 69.13 70.03 70.99 70.16 70.96 69.70 70.17 71.76 71.25 70.87 70.47 71.10 70.27 73.77 71.93 74.41 73.35 72.16 69.77 68.40 58.65 58.66 60.76 69.13
56.50 56.90 57.80 58.92 59.26 59.99 61.19 62.59 63.98 66.15 68.58 69.41 67.90 67.60 68.26 68.64 69.38 68.96 69.31 69.27 69.57 69.82 70.13 70.25 68.82 69.90 71.33 68.91 65.73 58.71 58.77 62.45 68.42
56.37 56.59 56.76 57.42 58.36 59.81 61.05 61.69 63.22 64.63 67.11 67.98 67.29 68.81 68.61 68.64 69.00 69.23 68.84 69.25 68.51 69.05 69.73 69.07 68.57 67.10 67.38 61.98 63.50 57.65 56.56 61.05 65.75
56.03 55.94 55.80 57.06 57.97 57.93 59.01 60.65 63.16 63.67 64.31 64.38 65.83 67.31 69.07 69.51 70.10 70.26 69.56 68.46 67.62 66.78 64.95 64.03 62.19 59.74 58.01 57.95 57.39 59.21 56.81 56.68 63.84
56.47 55.61 55.31 55.70 55.78 55.83 58.19 59.67 59.91 58.59 58.43 61.27 63.83 65.36 63.89 64.30 66.61 68.03 68.05 65.73 64.00 62.22 60.04 57.85 56.18 54.94 54.96 56.33 56.77 52.85 56.79 58.19 58.56
54.67 54.90 54.72 55.43 55.55 55.76 57.23 60.04 59.92 58.31 58.03 59.61 59.49 58.73 57.49 57.97 58.51 57.43 58.51 61.75 61.91 59.50 59.64 57.61 55.70 54.62 54.14 54.46 54.49 55.52 52.96 52.73 55.11
53.96 54.41 54.78 55.45 55.86 54.91 54.93 58.31 60.04 58.73 58.59 57.70 57.22 55.96 56.14 55.96 54.20 52.71 53.78 54.51 54.80 54.99 58.64 58.29 56.92 55.22 54.36 54.60 54.54 54.61 53.94 54.59 57.16
53.70 55.05 55.06 55.38 53.41 52.85 53.49 54.84 55.79 57.12 57.85 57.42 56.32 56.68 55.25 54.26 53.83 53.79 50.94 48.28 51.05 50.25 47.25 49.29 56.91 56.10 55.24 53.52 50.47 45.63 42.52 45.43 48.32
54.69 54.53 54.49 53.11 54.09 52.76 53.49 53.12 54.17 55.90 56.90 56.34 54.61 52.75 52.82 53.19 53.55 53.64 52.99 51.56 48.64 45.98 47.08 45.67 44.82 48.04 49.42 46.29 44.57 42.14 41.31 40.88 41.45
52.64 53.79 53.75 53.15 52.45 53.83 54.90 54.05 53.76 53.95 55.03 54.81 54.24 54.16 52.26 51.75 50.76 49.83 49.39 51.18 51.62 46.10 43.70 42.55 42.38 42.87 43.27 45.08 44.11 41.17 40.38 40.22 40.95